GFSMW_prec_cloud_003.txt.gz
Cloud_Cover
0 0 0 0 0 0 0 1 0 2 20 49 100 100 100 100 100 100 87 99 15 16 3 5 5 2 0 0 4 0 0 0 0 0 0 0 0 5 5 5 1 0 0
0 0 0 0 0 0 0 0 0 32 82 27 53 98 100 100 100 53 49 96 68 2 0 0 0 0 0 0 0 0 0 0 0 0 0 0 0 0 0 0 0 0 0
0 0 0 0 0 0 0 0 1 72 83 37 61 54 100 99 33 40 41 29 2 0 0 0 0 0 0 0 0 0 0 0 0 0 0 0 0 0 0 0 0 0 0
0 0 0 0 0 0 0 0 13 78 64 64 100 99 40 15 5 5 16 8 0 0 0 0 0 0 0 0 0 0 0 0 0 0 0 0 0 0 0 0 5 2 0
0 0 0 0 0 0 0 0 61 55 58 88 71 77 39 0 5 5 5 5 4 0 0 0 0 0 0 0 0 0 0 0 0 0 0 0 0 0 0 0 0 0 4
0 0 0 0 0 0 0 8 41 57 46 11 35 1 0 5 5 5 5 5 5 0 0 0 0 0 0 0 3 0 0 0 0 0 0 0 0 0 0 0 0 0 0
0 0 0 0 0 0 0 8 20 8 2 0 0 0 5 75 64 83 54 5 2 0 0 5 0 0 0 5 4 0 0 0 0 0 0 0 0 0 0 0 0 0 0
0 0 0 0 0 1 0 0 0 0 5 0 0 4 5 33 60 66 35 4 0 0 0 0 0 5 5 3 0 0 0 0 3 5 0 0 0 0 0 0 0 0 0
0 0 0 0 2 5 5 0 0 1 2 5 4 2 5 5 5 5 5 5 0 0 0 1 5 1 0 0 0 3 5 5 5 5 5 5 0 0 0 0 0 3 6
0 0 0 0 2 14 43 1 0 4 3 5 5 5 7 50 5 5 5 0 0 0 5 5 0 4 0 2 5 5 5 5 5 4 2 0 0 0 0 0 0 0 5
5 0 0 4 5 23 1 0 0 3 5 5 5 5 25 5 5 5 4 0 4 5 5 3 1 2 5 5 5 5 5 5 5 5 0 0 0 0 0 0 0 4 5
2 0 3 2 0 0 0 0 0 3 5 5 5 5 66 27 5 5 2 5 5 57 1 1 4 5 5 5 5 5 5 5 5 5 3 0 0 0 0 0 0 5 5
52 4 2 2 0 0 0 0 0 5 28 84 92 97 25 5 5 5 5 5 5 0 1 5 5 5 5 5 5 5 5 5 5 3 0 0 0 0 0 3 5 5 93
100 5 0 0 0 0 0 0 4 56 99 100 91 10 5 5 5 5 5 5 8 5 5 5 6 16 5 5 5 5 5 5 3 0 0 0 0 0 5 5 40 89 31
89 5 0 0 0 0 0 5 79 100 100 84 45 5 5 5 5 5 61 14 12 5 5 65 84 13 5 5 5 5 5 5 0 2 0 0 0 5 23 100 61 59 63
31 1 0 0 0 1 7 100 100 100 96 45 5 5 5 5 49 78 22 11 18 99 81 6 4 5 5 62 11 5 5 5 0 0 0 0 0 0 3 5 14 100 100
100 35 5 4 5 5 5 81 76 28 5 5 5 5 5 92 82 49 81 100 100 76 5 5 5 57 46 5 5 5 5 0 0 0 0 0 0 2 5 3 21 100 100
100 100 48 5 5 5 5 5 5 5 5 5 5 60 87 98 100 81 99 71 5 5 5 5 78 46 5 5 5 5 5 0 2 0 0 2 4 5 86 98 65 5 5
100 100 84 5 5 0 1 2 5 5 12 45 87 90 99 91 93 46 5 5 5 5 29 93 10 5 5 5 0 5 5 5 5 0 5 14 60 37 100 100 78 5 4
82 7 6 31 46 11 5 5 5 85 92 90 82 92 90 99 50 56 5 5 10 100 67 67 26 5 3 5 4 5 5 5 5 21 17 5 75 100 100 100 96 34 5
100 98 98 50 5 5 10 59 73 61 72 94 98 98 100 62 5 5 5 90 84 39 77 31 5 5 5 5 3 10 63 5 95 15 5 18 76 100 100 100 57 52 100
100 76 8 5 63 35 15 89 64 42 37 76 68 5 5 5 5 24 73 50 95 88 20 5 86 66 5 1 2 52 97 96 73 68 32 53 98 100 85 52 99 100 98
7 5 74 97 62 83 17 5 23 8 6 5 5 5 5 6 76 44 68 77 15 5 15 93 44 10 5 5 1 5 82 97 100 75 98 87 85 7 5 49 100 94 55
39 73 48 9 13 5 60 99 66 5 5 5 5 21 60 8 5 13 5 5 5 33 51 5 5 5 5 5 6 62 100 100 100 100 61 5 4 5 16 20 5 59 100
100 99 87 42 59 66 69 8 5 5 5 5 36 9 5 5 5 5 5 5 5 5 5 5 5 5 6 35 100 100 100 100 100 100 9 4 5 30 58 57 87 100 100
100 99 85 76 50 15 5 5 5 5 41 10 5 5 5 5 5 5 5 6 5 5 5 2 5 5 24 85 100 100 100 100 100 69 12 57 74 100 100 100 100 98 100

GFSMW_prec_cloud_006.txt.gz
Cloud_Cover
0 0 0 0 0 0 9 56 51 10 0 50 88 100 100 100 100 100 100 100 100 37 5 58 64 5 4 5 0 0 0 0 0 0 0 0 0 0 0 0 0 0 0
0 0 0 0 0 0 7 47 5 4 24 76 85 100 100 100 100 100 100 98 8 5 61 13 5 2 5 0 0 0 0 0 0 0 0 0 0 0 0 0 0 0 0
0 0 0 0 0 0 14 11 10 38 85 100 100 83 100 96 100 100 97 5 5 5 24 5 5 5 0 0 0 0 0 0 0 0 0 0 2 0 0 0 0 0 0
0 0 0 0 0 0 0 0 0 48 74 100 100 54 0 52 100 65 51 4 1 5 5 5 5 2 0 0 0 0 0 0 0 0 0 0 0 0 0 0 2 0 1
36 2 0 0 0 8 0 0 0 27 95 100 100 100 100 98 67 0 1 0 6 5 5 5 5 5 0 0 0 0 0 0 0 0 0 0 0 0 0 2 0 0 2
38 8 0 0 3 2 0 0 0 14 99 100 100 100 99 96 5 0 0 7 97 78 6 5 8 2 0 0 0 0 0 0 0 0 0 0 0 1 0 0 0 0 0
8 46 4 0 0 0 0 0 1 89 100 100 100 100 88 12 0 0 3 64 98 88 35 34 3 0 0 0 0 0 0 0 0 0 2 3 0 0 0 0 0 0 0
22 68 5 0 0 0 0 0 100 100 100 98 46 20 5 0 0 2 5 5 72 64 7 0 0 0 0 0 1 0 0 0 2 5 5 5 5 3 0 0 0 1 0
5 4 0 2 5 5 5 3 96 98 78 16 5 5 5 5 5 3 5 5 5 5 4 0 0 0 3 5 0 0 0 5 5 5 5 5 5 5 0 0 0 2 4
5 0 5 4 9 10 5 34 41 31 8 2 5 5 5 5 5 5 5 5 5 5 0 0 0 5 3 0 0 5 5 5 64 6 5 5 1 0 0 0 0 0 5
5 0 5 5 5 4 35 85 72 38 1 5 5 24 87 72 23 5 20 5 5 5 5 5 3 5 0 0 4 5 12 99 57 5 2 5 0 0 0 0 0 4 5
5 22 5 5 0 1 70 95 83 44 5 5 16 74 100 94 92 74 5 5 5 5 5 5 5 2 0 5 5 97 32 6 4 0 5 4 0 0 0 0 5 5 5
57 5 7 42 5 4 49 80 78 5 5 5 50 96 99 96 79 8 5 5 5 5 5 5 5 4 20 82 23 5 2 0 1 5 0 0 0 0 0 1 5 5 75
7 8 89 100 89 29 80 39 5 4 4 50 100 86 88 94 20 5 5 5 5 5 5 5 5 30 6 5 3 0 0 5 5 5 5 0 0 0 5 5 24 35 5
100 87 100 98 59 5 3 4 5 1 5 72 73 83 100 58 5 41 69 5 5 66 36 44 5 5 5 1 0 1 5 5 5 4 1 4 3 5 5 66 6 22 16
100 100 88 34 99 5 5 5 3 0 5 80 65 96 9 10 96 70 6 5 74 79 5 5 5 2 0 0 2 5 5 5 3 5 5 5 5 0 5 5 30 100 100
98 65 90 100 100 8 4 2 23 5 38 49 73 12 74 75 59 80 37 84 66 5 5 2 0 0 0 4 5 5 5 5 5 5 5 5 5 2 5 5 48 100 32
100 100 100 100 99 97 100 100 68 5 56 59 7 57 68 94 76 61 73 76 5 5 5 0 0 3 6 5 5 4 15 46 30 17 8 5 4 5 94 87 91 5 5
100 100 100 100 100 100 100 54 5 49 36 5 51 66 47 45 74 98 18 5 4 0 0 2 5 5 5 5 5 56 50 31 10 73 11 5 53 74 100 100 92 48 4
100 100 100 100 100 100 100 57 38 19 9 62 78 86 56 72 42 5 5 5 1 0 5 5 5 5 3 5 5 5 72 17 5 64 34 5 96 100 100 100 98 29 4
100 100 100 100 97 33 15 5 12 61 62 36 16 56 21 5 5 5 4 1 5 5 5 5 4 5 5 5 5 6 64 44 100 48 14 5 42 100 100 100 44 41 100
99 100 90 74 90 20 25 83 26 5 32 12 7 5 5 5 5 0 4 5 5 5 5 5 5 5 5 5 5 5 82 98 98 64 19 86 100 100 64 40 95 100 98
100 100 100 91 89 97 100 53 57 8 5 5 5 5 5 5 5 5 5 5 5 5 5 5 5 5 1 3 1 5 23 91 100 86 99 77 83 5 5 60 100 93 18
100 100 97 100 100 99 93 52 63 88 71 63 7 5 5 5 5 5 5 5 4 5 5 5 5 5 5 5 6 14 11 71 48 96 38 5 4 5 8 10 6 18 98
100 100 100 99 100 100 100 98 100 100 93 5 5 5 5 5 5 5 5 5 5 3 5 5 5 5 5 17 98 100 99 100 99 100 5 3 5 5 21 14 58 98 100
100 100 100 100 100 100 100 100 100 51 5 5 27 5 5 5 5 5 5 4 5 0 5 2 5 5 18 73 100 100 100 100 98 53 5 47 76 100 100 100 100 98 100

GFSMW_prec_cloud_009.txt.gz
Cloud_Cover
0 0 0 0 0 0 0 8 100 61 18 48 46 85 100 100 100 100 100 100 100 99 100 100 100 100 100 95 53 62 88 5 0 0 0 0 0 0 0 0 0 0 0
0 0 0 0 0 0 2 100 89 26 4 6 0 1 72 100 100 100 100 100 100 73 66 100 100 100 99 85 5 5 2 0 0 0 0 0 0 0 0 0 0 0 0
0 0 0 0 0 0 13 100 48 24 28 39 1 4 100 100 100 100 100 100 85 75 62 76 97 65 95 68 5 5 5 5 0 0 0 0 0 0 0 0 0 0 0
0 0 0 0 0 0 10 100 51 27 60 74 5 11 83 46 99 100 100 92 5 34 61 92 5 66 68 5 5 16 5 5 0 0 0 0 0 0 3 0 0 0 2
0 0 0 0 0 0 0 43 60 64 65 82 66 17 100 97 93 100 100 0 4 5 5 5 9 85 30 5 5 5 5 0 0 0 0 0 0 0 0 0 1 5 5
0 0 0 0 1 3 4 0 49 98 100 96 100 83 100 100 100 100 36 0 0 4 1 5 79 67 25 5 25 5 0 0 0 0 0 0 0 0 0 0 0 0 0
0 0 0 0 5 6 5 0 0 41 99 25 95 100 100 99 88 25 0 0 1 1 4 6 70 11 5 19 19 0 0 0 0 0 0 0 0 4 5 2 0 0 0
0 0 0 0 5 18 5 0 5 0 88 16 99 100 100 44 100 2 0 5 1 2 5 5 6 5 4 3 0 0 0 0 0 0 0 0 5 5 5 0 0 0 0
5 0 0 0 6 5 10 5 5 0 4 100 100 100 100 100 58 5 5 5 4 5 5 5 5 5 5 5 0 0 0 0 0 0 5 5 5 0 0 0 0 0 0
5 5 5 0 5 5 5 5 5 4 96 100 100 100 99 46 22 63 10 5 5 5 5 5 5 5 5 5 5 0 0 0 1 1 4 3 2 0 0 0 0 0 5
6 5 5 3 24 7 5 5 16 93 100 100 88 22 5 72 94 92 77 76 34 5 57 5 5 5 5 5 5 1 5 5 5 5 5 3 0 4 0 0 0 4 5
0 5 5 5 5 5 5 79 100 100 100 86 5 5 49 91 66 76 88 100 41 70 56 15 5 5 5 5 5 5 5 5 5 5 0 1 5 5 0 0 0 5 5
0 3 38 9 5 8 37 94 100 100 100 92 97 80 98 100 77 72 100 64 82 74 82 21 5 5 5 5 3 5 5 5 2 0 5 2 1 0 0 3 5 5 38
0 2 5 5 5 28 84 100 100 100 86 95 100 100 100 100 82 71 35 92 100 94 10 5 5 15 26 5 5 5 3 0 1 5 2 0 0 0 5 19 77 99 85
4 5 13 5 15 63 99 100 100 94 95 100 100 100 100 100 22 5 95 100 74 57 20 38 26 78 5 5 3 0 0 4 5 0 0 0 0 5 15 97 98 98 89
98 31 11 79 32 26 63 77 92 100 32 5 99 100 100 65 5 99 95 57 51 59 72 47 100 8 4 0 0 0 5 2 5 0 0 0 0 5 31 42 84 98 100
76 72 66 88 6 8 65 62 5 9 24 77 100 89 44 31 100 94 67 55 76 80 70 95 5 0 0 0 4 5 5 5 0 0 2 5 5 4 5 9 88 100 79
78 82 99 86 97 100 100 100 100 100 100 100 100 100 75 100 87 73 86 93 78 87 40 4 0 0 2 5 5 4 5 5 5 5 5 5 5 19 100 100 100 54 7
100 100 99 100 100 100 100 100 100 100 100 100 100 100 100 96 95 99 71 63 73 5 1 0 0 5 5 4 0 5 5 5 5 2 5 5 98 100 100 100 35 96 38
100 100 100 100 100 100 100 100 100 100 100 100 100 100 100 99 60 51 69 5 5 0 0 1 5 5 3 0 5 5 10 60 31 99 100 46 100 100 100 100 99 95 5
100 100 100 100 100 100 100 100 100 100 100 100 100 85 66 48 52 12 5 4 2 1 5 5 4 0 0 4 5 5 22 92 99 100 100 69 78 100 100 100 64 45 100
100 100 100 100 100 100 100 100 100 94 99 99 87 63 45 35 5 5 5 5 5 5 5 4 1 3 0 0 4 7 93 100 100 98 58 53 100 98 58 21 94 100 97
100 100 100 100 100 100 100 100 100 100 100 100 100 70 32 55 5 5 5 5 5 2 0 1 4 1 0 0 0 5 45 84 100 42 99 91 71 5 5 43 80 86 80
100 100 100 100 100 100 100 100 100 100 100 100 100 100 86 5 5 5 5 1 0 0 0 0 1 3 5 5 7 26 8 81 48 84 77 5 4 5 5 13 9 70 99
100 100 100 100 100 100 100 100 100 100 100 96 56 19 5 5 5 4 2 0 0 0 3 1 4 5 5 12 92 94 97 100 100 100 19 5 5 14 27 31 68 100 97
100 100 100 100 100 100 100 100 100 96 26 5 2 5 5 5 5 5 2 0 0 0 0 0 5 5 5 61 97 100 100 100 97 69 5 34 77 97 100 100 98 100 100

GFSMW_prec_cloud_012.txt.gz
Cloud_Cover
0 0 0 0 0 0 0 0 0 0 0 100 86 40 68 68 100 100 100 100 100 100 5 5 100 86 5 20 33 62 100 100 45 13 25 5 2 0 0 0 0 0 0
0 0 0 0 0 0 0 0 0 0 0 49 82 53 98 80 99 27 100 100 100 100 24 10 78 79 66 53 62 99 100 100 56 5 5 5 5 0 0 0 0 0 0
0 0 0 0 0 0 0 0 0 0 4 96 70 50 32 43 90 94 100 100 100 100 6 78 97 100 82 85 84 46 92 100 80 5 5 16 5 0 0 0 0 0 0
5 2 0 0 0 0 0 0 0 0 31 56 0 0 0 20 76 100 100 100 100 95 4 97 100 100 46 100 100 7 90 82 13 5 5 5 2 0 0 0 0 0 0
4 0 0 0 0 0 0 0 0 3 13 0 0 3 5 0 100 100 100 100 100 15 0 2 5 5 55 5 5 60 86 59 5 5 5 4 0 0 0 0 0 0 0
1 0 0 0 0 0 0 0 0 22 0 24 81 23 24 13 93 100 100 100 87 0 0 0 0 0 4 5 5 9 5 5 5 2 0 0 0 0 0 0 0 0 4
4 4 0 0 0 0 0 0 0 1 53 100 97 13 100 91 99 100 100 100 14 0 0 2 5 5 5 5 5 5 5 2 0 0 0 0 0 0 0 0 0 0 0
0 4 5 5 5 2 0 0 0 0 46 100 77 86 70 100 100 100 100 83 4 4 5 5 5 5 5 5 4 2 0 0 0 0 0 0 0 0 0 0 0 0 0
0 0 5 5 5 5 5 0 0 0 63 32 100 100 97 100 100 84 100 5 5 5 5 6 17 56 5 5 5 3 1 5 0 0 0 0 0 0 0 0 0 0 0
0 2 5 7 15 7 5 0 0 2 36 21 96 83 100 76 100 100 68 76 82 88 94 100 97 75 68 5 5 3 5 5 1 0 0 0 0 0 0 0 0 0 0
0 1 38 100 99 22 1 1 1 5 74 50 56 97 100 96 100 100 98 80 94 100 100 98 76 82 27 5 5 5 5 5 2 0 0 0 0 0 0 0 0 0 0
0 0 3 100 100 6 5 1 5 28 7 79 97 100 100 100 100 100 95 100 100 100 93 85 66 85 70 5 5 5 5 5 0 0 0 0 0 0 0 0 0 0 5
1 5 0 89 83 31 10 5 78 97 86 96 100 100 100 93 93 96 100 100 99 93 95 63 100 98 16 5 5 5 5 2 0 2 0 0 0 0 0 0 4 5 18
4 0 11 86 41 68 24 74 100 100 100 100 100 71 56 90 88 99 100 100 88 91 70 100 87 55 6 5 5 5 5 0 5 3 0 0 0 0 2 5 21 66 90
22 7 23 51 70 100 90 85 100 100 100 100 82 63 66 100 100 100 100 100 90 67 100 81 84 81 50 5 5 4 0 5 5 1 0 0 1 5 6 84 91 100 97
55 86 16 22 100 100 100 100 100 100 100 100 67 98 100 100 96 100 100 97 62 100 86 95 91 100 14 5 5 3 5 5 3 0 0 2 5 19 85 98 100 100 100
69 36 33 87 100 100 100 100 100 100 100 100 96 100 100 100 100 100 97 76 100 100 99 93 92 9 5 5 5 7 5 5 4 3 5 5 11 91 93 97 100 100 98
88 92 95 100 100 100 100 100 100 100 100 100 100 100 100 100 100 100 100 100 100 100 100 47 49 5 5 6 8 5 5 5 5 5 5 55 86 90 100 99 87 100 78
100 98 100 100 100 100 97 99 100 100 100 100 100 100 100 100 100 100 100 100 100 98 59 8 64 10 5 5 5 6 5 8 5 5 30 84 100 100 100 100 89 94 100
97 100 100 100 100 91 81 76 95 99 100 100 100 100 100 100 100 100 100 100 75 19 84 5 5 5 5 14 9 35 66 5 5 13 87 96 98 100 100 100 100 100 100
100 100 100 100 100 100 97 100 100 100 100 100 100 100 100 100 100 99 98 86 98 76 6 5 5 13 42 14 74 11 5 12 72 99 99 100 100 100 100 100 96 100 100
100 100 100 100 100 97 100 100 100 100 100 100 100 100 100 100 100 100 100 98 33 5 5 5 5 5 38 28 0 5 68 93 100 100 100 89 100 98 60 38 75 100 100
100 100 100 100 100 100 100 100 100 100 100 100 100 100 100 100 100 85 10 5 5 5 5 5 13 13 1 2 2 42 73 100 100 100 100 100 76 8 5 44 100 100 100
100 100 100 100 100 100 100 100 100 100 100 100 100 100 89 21 5 5 5 5 5 5 5 5 5 5 4 4 5 67 88 100 100 99 91 53 20 5 45 60 94 100 99
100 100 100 100 100 100 100 100 100 100 100 100 97 79 84 10 5 5 32 9 3 5 4 5 4 5 3 7 45 87 100 100 100 95 71 5 5 5 81 87 99 98 100
100 100 100 100 100 100 100 100 100 100 99 61 69 21 5 43 88 48 9 6 5 5 8 5 4 0 5 43 91 100 100 100 89 78 15 14 79 96 100 100 99 98 100

GFSMW_prec_cloud_015.txt.gz
Cloud_Cover
1 0 0 0 0 0 0 0 0 0 0 0 3 24 100 100 100 18 81 100 80 100 100 5 1 3 5 32 99 100 93 34 5 5 5 5 7 5 5 26 10 5 0
99 40 8 0 0 0 0 0 0 0 0 0 44 30 100 99 67 23 2 100 98 100 100 30 0 0 5 68 93 99 88 70 62 43 5 10 42 59 5 0 0 0 0
100 99 47 29 7 0 0 0 0 0 0 1 77 97 100 97 100 59 1 14 91 100 100 87 0 0 0 20 29 64 61 28 92 73 12 5 5 11 12 5 5 0 0
6 36 100 85 100 58 2 0 0 0 0 6 48 94 3 42 81 10 2 59 99 100 100 88 0 0 0 5 21 63 64 5 5 17 4 5 5 5 38 6 0 0 0
4 6 62 74 14 5 4 1 0 0 0 0 25 76 0 18 47 19 64 100 100 100 100 55 0 0 0 0 0 1 1 4 4 0 3 5 5 4 0 0 0 0 0
5 5 14 5 10 5 5 5 2 0 0 12 50 0 0 0 2 23 92 100 100 100 100 5 5 0 0 0 4 5 5 5 5 3 5 5 4 0 0 0 0 0 0
53 32 20 5 5 5 5 40 5 0 2 49 2 8 31 0 0 0 28 100 100 100 99 9 5 5 4 1 5 5 5 5 5 2 1 0 0 0 0 0 0 0 0
0 5 3 0 3 8 5 5 5 0 8 6 42 96 6 4 3 91 39 100 100 100 33 5 52 48 5 5 5 5 5 5 5 5 0 0 0 0 0 0 0 0 0
0 0 0 0 0 3 5 5 51 15 5 47 100 71 40 39 34 99 99 100 100 100 15 5 5 5 5 9 54 5 7 14 5 3 0 0 0 0 0 0 0 0 0
2 1 0 0 0 0 0 1 7 78 48 97 98 98 43 100 99 58 100 100 100 87 60 65 72 74 85 62 11 5 39 5 5 2 5 5 0 0 0 0 0 0 0
70 22 25 0 0 0 0 15 61 97 100 100 99 97 95 100 72 100 100 100 100 59 73 68 75 96 5 42 5 67 11 5 5 5 5 3 0 0 0 0 0 0 0
100 100 98 0 0 0 24 48 92 100 95 73 45 100 100 82 99 100 100 100 85 98 56 37 7 21 84 26 75 85 5 5 5 5 5 0 0 0 0 0 0 0 0
100 100 68 2 46 43 95 100 100 65 94 49 77 96 100 100 100 100 100 100 63 72 67 66 82 28 5 57 100 8 5 24 5 5 2 0 0 0 0 0 0 4 5
100 100 10 2 86 100 100 100 66 55 84 87 99 100 100 100 88 98 100 55 70 87 85 99 87 20 55 100 14 5 72 8 5 5 0 0 0 0 0 4 5 6 5
100 93 5 43 100 100 100 64 95 100 100 100 100 100 100 100 100 100 53 100 100 100 100 99 97 77 100 76 48 68 13 5 3 3 3 0 0 0 17 62 67 77 68
88 100 24 97 100 100 76 73 87 100 100 100 100 100 100 100 99 91 97 100 100 93 81 100 100 100 100 99 93 53 5 5 5 5 5 0 0 5 57 86 98 99 100
100 100 99 100 100 100 100 100 100 100 100 81 100 100 84 34 73 82 100 100 100 100 80 100 100 100 100 100 100 53 5 5 5 5 4 5 5 5 68 88 95 14 65
100 100 100 77 100 100 100 100 100 100 100 100 100 100 99 93 99 100 100 100 100 100 100 100 100 100 100 100 59 5 8 5 5 3 5 5 5 34 96 15 34 61 52
100 100 100 100 100 100 100 100 100 100 100 100 100 100 100 100 100 100 100 100 100 100 100 100 100 100 99 99 97 11 5 5 1 2 5 5 41 44 100 100 94 19 5
100 100 100 100 100 100 100 100 100 100 100 100 100 100 100 100 100 100 100 100 100 100 100 100 100 100 100 61 5 5 4 5 5 5 5 49 54 100 100 100 52 6 5
100 100 100 100 100 100 100 100 100 92 72 95 100 100 100 100 100 100 100 100 100 100 100 100 100 92 24 5 4 5 5 11 8 5 5 5 95 97 100 100 64 18 100
100 86 86 80 99 97 78 100 100 95 100 100 100 100 100 100 100 100 100 100 100 100 100 99 23 5 5 4 5 5 64 59 69 22 18 39 99 98 77 64 74 100 100
100 100 100 100 97 100 100 100 100 100 100 95 98 100 100 100 100 100 100 100 100 76 9 5 27 18 5 5 4 5 39 61 30 82 91 84 78 72 9 17 100 98 67
100 100 100 100 100 100 100 100 100 100 100 100 100 100 100 100 100 100 80 45 14 44 99 84 70 29 28 10 43 5 5 17 73 37 10 5 45 5 5 10 5 18 89
100 100 100 100 100 100 100 100 100 100 100 100 100 100 100 100 100 81 55 93 93 77 69 46 14 38 34 14 5 29 27 85 83 95 8 5 5 5 5 5 10 78 100
100 100 100 100 100 100 100 100 100 100 100 100 100 100 100 93 90 69 28 13 25 73 36 6 10 12 9 6 37 71 94 99 97 37 5 5 5 5 37 82 81 96 100

GFSMW_prec_cloud_018.txt.gz
Cloud_Cover
23 37 5 5 12 5 4 0 0 0 0 0 0 0 0 92 100 100 100 51 9 10 0 39 39 0 0 0 0 0 0 5 51 66 40 95 81 78 44 5 5 27 19
5 5 5 7 8 100 100 20 4 0 0 0 0 0 0 19 100 100 100 91 21 5 6 77 61 5 1 0 0 0 0 4 5 5 6 62 38 5 8 5 5 5 3
10 5 5 26 30 67 100 100 13 3 4 0 0 20 24 22 78 100 100 63 11 5 14 97 98 45 5 4 0 0 0 1 5 5 8 5 5 5 23 18 1 0 4
77 11 5 4 2 9 64 100 100 55 5 0 3 1 2 0 12 69 100 76 51 16 11 100 98 16 5 5 5 0 0 0 1 4 0 0 0 0 3 3 5 5 5
4 32 5 0 0 1 5 48 94 97 100 38 24 16 0 6 13 100 100 100 93 100 43 100 100 51 5 5 5 52 5 2 0 0 0 5 2 0 0 4 1 0 0
4 3 0 0 0 0 0 5 11 33 5 5 11 10 2 70 61 98 100 100 100 100 60 37 94 76 5 20 5 41 59 5 5 5 5 5 5 0 0 0 0 0 0
0 0 0 5 3 0 0 0 0 71 76 6 20 22 5 4 0 70 100 100 100 100 95 55 100 55 5 5 5 5 48 23 16 5 5 5 5 0 0 0 0 0 0
0 0 0 0 1 5 0 0 0 40 100 63 16 62 90 5 4 31 98 72 83 74 100 100 100 10 5 5 5 5 5 7 37 16 16 5 5 0 0 0 0 0 0
4 2 0 0 0 0 0 0 0 6 98 99 76 100 77 5 5 24 94 100 91 60 100 100 93 5 5 5 20 68 67 8 5 39 40 49 5 0 1 2 0 0 0
0 0 0 0 0 0 0 0 0 0 13 74 100 96 5 81 44 59 39 100 100 100 67 100 46 5 5 5 11 62 45 62 44 5 5 5 4 2 5 0 0 0 0
100 7 6 0 5 0 0 0 0 4 0 100 100 91 99 100 97 99 100 100 100 100 100 100 8 28 55 58 72 88 64 5 5 37 5 5 5 5 5 1 0 0 0
95 8 3 0 5 5 1 0 0 3 77 100 100 100 100 100 100 73 69 100 100 100 100 96 61 100 97 95 59 80 5 5 33 45 5 5 5 5 5 0 0 0 0
88 4 5 31 88 16 99 100 16 100 100 100 100 100 100 100 98 100 100 96 100 100 100 81 94 84 80 78 98 96 54 59 61 6 5 10 51 5 5 0 0 0 0
88 79 98 88 100 92 96 93 100 100 96 100 100 100 100 100 100 100 89 100 100 100 100 98 87 72 87 100 73 100 88 71 54 50 56 16 5 5 5 0 2 5 17
34 97 100 100 100 100 100 100 100 100 100 78 100 100 100 100 100 98 100 100 100 100 100 76 55 96 100 97 91 96 100 97 93 98 51 5 5 5 2 16 59 87 99
5 76 100 100 100 100 100 100 100 100 100 85 100 100 100 100 100 100 100 100 100 82 65 100 100 100 100 100 100 100 100 95 76 87 31 5 5 2 5 29 63 93 100
100 100 100 100 100 100 100 100 100 100 100 100 100 100 100 100 100 100 100 100 91 100 100 100 100 100 100 100 100 100 98 99 98 65 5 5 4 1 5 8 87 13 10
54 100 100 100 100 100 100 100 100 100 100 100 100 100 100 100 100 100 100 100 100 96 100 100 100 100 100 100 68 97 99 100 88 5 5 2 1 5 44 68 46 72 5
100 100 100 100 100 100 100 100 100 100 100 100 100 100 100 100 100 100 100 100 100 100 100 100 100 100 100 92 96 100 100 45 55 8 5 4 5 48 80 82 12 5 5
100 100 100 100 100 100 100 100 100 100 100 100 100 100 100 100 100 100 100 98 89 100 100 99 77 100 91 100 100 100 98 14 100 94 8 5 5 61 100 100 97 60 5
100 100 100 100 100 100 100 100 100 100 100 100 100 100 100 86 100 100 100 100 100 96 97 100 100 100 100 73 88 16 78 34 23 31 6 5 11 99 100 100 82 31 97
100 100 100 100 100 100 100 100 100 100 100 100 100 100 100 100 100 100 89 80 100 100 100 100 83 95 90 45 90 90 65 44 26 5 5 5 67 86 83 70 35 99 100
100 100 100 100 100 100 100 98 100 86 98 100 100 100 98 96 90 99 100 100 100 92 47 52 72 25 29 44 83 64 43 5 5 5 48 87 48 35 31 5 76 93 5
94 100 100 100 100 96 97 100 100 100 100 95 61 98 100 99 100 100 98 56 26 5 7 5 5 21 75 78 43 10 5 5 5 5 5 9 5 4 4 4 4 5 5
98 100 100 100 100 100 100 100 100 99 100 100 100 100 100 96 61 15 11 5 5 5 5 5 56 78 41 28 8 45 9 22 93 97 5 2 2 0 4 5 5 5 9
100 100 100 100 100 100 100 99 100 100 100 100 82 62 26 10 15 12 11 62 23 5 5 5 38 74 61 44 33 60 77 100 99 54 5 5 5 5 5 5 5 5 29

GFSMW_prec_cloud_021.txt.gz
Cloud_Cover
35 5 5 0 1 3 0 0 0 0 5 16 5 0 12 66 100 100 100 79 47 59 47 0 0 0 0 0 0 0 0 0 0 0 0 0 5 5 40 5 48 38 62
5 5 5 5 25 7 5 5 5 1 0 14 85 4 5 2 91 100 100 100 100 72 31 0 0 4 1 2 1 2 4 1 0 0 0 0 1 5 5 4 3 0 1
5 5 5 5 5 5 5 5 4 5 5 5 12 80 89 19 80 92 99 100 97 100 62 0 0 5 39 0 0 2 5 5 4 4 0 0 0 0 3 4 4 1 1
88 95 83 61 5 5 54 29 15 5 0 5 5 6 38 21 5 4 5 72 100 100 100 20 10 79 99 8 0 4 5 5 5 5 5 5 3 0 0 0 0 5 0
98 99 76 48 19 5 6 81 25 5 3 0 5 5 10 99 75 6 5 22 100 100 100 40 20 32 100 94 2 5 5 5 56 92 50 18 9 10 5 5 5 3 0
5 3 0 5 5 4 2 0 5 3 3 2 5 5 5 27 78 13 36 7 90 100 100 100 71 98 99 91 47 5 5 5 5 11 45 45 6 15 31 30 47 24 3
3 5 5 5 5 4 3 1 0 5 0 2 4 5 5 5 5 5 32 5 68 100 100 100 73 76 22 100 10 0 0 5 5 5 5 5 48 68 67 74 99 100 100
5 4 3 5 34 41 33 5 4 0 0 0 0 2 5 4 6 5 94 79 100 100 100 100 100 51 81 100 38 0 5 5 5 5 5 5 16 68 40 35 26 39 62
5 0 0 0 0 0 0 2 5 0 0 0 12 5 5 5 5 31 98 100 100 100 100 100 100 74 100 100 8 44 5 5 5 5 5 5 5 20 5 5 6 5 5
3 3 0 0 0 0 0 0 0 0 0 2 0 3 5 5 5 42 91 100 100 100 100 100 100 98 100 100 76 33 5 5 5 5 36 6 5 5 14 10 5 5 4
99 58 38 4 9 44 0 0 0 0 0 0 1 11 17 5 62 100 77 100 100 100 100 100 100 100 76 100 72 20 19 14 6 5 98 57 5 5 5 5 5 5 1
100 97 100 90 36 5 1 0 0 16 1 2 0 14 92 59 100 100 100 100 100 100 100 100 100 100 100 94 99 75 97 61 72 86 98 71 5 5 5 5 5 5 5
100 98 97 55 95 35 27 2 2 100 11 0 1 96 98 100 100 100 100 100 100 100 100 100 100 100 100 100 94 90 98 91 100 85 68 62 15 68 5 5 5 5 5
100 100 100 100 100 15 0 0 1 38 10 64 84 82 100 100 100 100 100 100 100 100 100 100 100 100 100 76 70 95 100 100 81 100 67 69 73 40 5 5 5 43 45
21 82 82 7 2 14 75 90 95 98 67 100 99 99 100 100 100 100 100 100 100 100 100 100 100 100 86 74 96 100 100 99 100 100 100 100 77 23 33 29 78 87 15
97 15 39 55 100 100 100 100 96 100 100 100 100 100 100 100 100 100 100 100 100 100 100 100 100 72 83 100 100 100 100 100 100 100 99 72 100 100 100 100 48 66 63
96 75 100 77 100 100 100 100 100 100 100 100 100 100 100 100 100 100 100 100 100 100 100 100 100 100 100 100 100 92 100 100 93 49 100 100 100 100 90 5 7 42 79
100 49 39 97 93 100 100 100 100 100 100 100 100 100 100 100 100 100 100 100 100 100 100 100 100 100 100 98 100 100 94 100 100 100 100 100 100 27 8 55 91 100 82
100 100 100 100 100 100 100 100 100 100 100 100 100 100 100 100 100 100 100 100 100 100 100 100 100 100 100 100 100 100 66 98 100 100 100 81 29 52 89 99 94 5 5
100 100 100 100 100 100 100 100 100 100 100 100 100 100 100 100 100 100 100 100 100 100 100 100 98 44 100 92 80 72 100 96 95 94 16 5 40 92 99 100 99 55 5
100 100 100 100 100 100 100 100 100 100 100 100 100 100 100 100 100 100 100 96 100 84 59 44 100 99 97 82 69 18 39 21 5 30 89 84 56 98 100 100 98 80 90
100 100 100 100 100 100 100 100 100 100 100 100 100 100 100 100 100 100 100 100 98 74 100 100 100 100 29 5 5 5 5 26 5 9 11 13 70 99 82 60 49 97 96
100 100 100 100 100 100 100 100 100 100 100 96 100 100 100 100 89 94 100 100 100 100 100 96 37 5 5 5 5 5 5 42 14 5 53 100 98 11 4 4 45 20 4
100 100 100 98 82 90 100 100 100 100 100 96 100 100 100 100 100 100 100 100 100 74 7 5 5 5 5 5 8 29 6 5 5 13 99 63 3 4 3 0 0 5 5
100 98 100 100 100 100 100 100 100 95 73 66 29 61 100 100 100 100 86 30 5 5 5 5 4 5 5 7 19 34 9 46 86 100 11 3 0 0 2 5 5 5 5
100 100 100 100 100 100 100 100 100 100 100 100 100 91 97 96 56 13 5 6 5 5 3 3 5 12 61 24 5 50 87 100 100 5 1 0 5 5 5 5 5 5 14

GFSMW_prec_cloud_024.txt.gz
Cloud_Cover
100 98 83 22 5 5 0 0 0 4 0 2 17 5 5 5 22 42 98 100 100 100 99 94 90 24 0 0 0 0 0 0 0 0 5 0 0 0 0 0 0 5 25
100 100 100 100 7 5 1 0 4 5 5 1 0 4 70 91 29 44 78 100 100 100 100 46 98 6 0 0 0 0 0 0 0 0 0 5 4 6 4 1 0 0 2
100 100 100 100 100 100 97 38 5 5 5 5 11 52 6 99 100 100 89 100 100 100 100 100 81 30 0 0 3 0 0 0 0 0 0 5 44 72 62 12 5 4 4
100 100 100 83 100 100 86 5 4 4 5 5 34 5 13 8 14 6 16 8 83 100 100 100 100 53 19 14 89 16 0 0 0 0 0 0 2 5 5 24 59 89 17
100 100 100 100 75 65 79 100 100 93 42 5 5 53 65 40 17 5 5 5 5 38 97 100 100 100 51 19 73 89 1 0 0 0 0 5 5 5 4 1 4 37 98
41 32 28 10 5 5 5 5 6 26 31 5 12 5 22 84 47 5 12 19 13 5 31 99 100 100 100 60 92 100 74 40 0 0 0 4 5 3 0 5 4 26 17
2 5 5 5 5 5 5 5 5 4 0 0 24 4 5 32 6 5 5 67 80 71 19 30 99 100 100 95 29 51 100 100 0 0 5 5 5 3 5 5 4 4 5
5 5 9 49 93 99 53 5 4 0 0 0 2 9 0 2 15 5 5 5 44 36 45 100 90 100 100 84 67 100 24 100 14 5 5 5 5 5 5 5 2 4 5
5 6 38 85 94 69 56 28 9 5 5 5 2 30 2 0 7 5 5 5 8 90 100 100 85 100 100 100 100 41 100 100 5 5 5 5 5 5 5 5 5 5 0
6 4 5 2 3 4 5 2 0 3 2 4 17 13 0 0 4 5 5 5 16 86 100 100 100 100 100 100 100 74 100 100 31 5 5 6 25 37 5 5 5 5 1
7 8 7 3 5 1 2 11 31 8 0 15 67 6 0 1 0 4 5 8 61 72 100 100 100 100 100 100 100 99 84 100 75 34 6 62 85 76 74 5 5 5 4
8 7 64 97 92 99 18 93 100 100 71 37 6 1 0 0 10 0 47 22 100 100 100 100 100 100 100 100 100 100 100 100 95 45 82 99 93 100 90 98 99 84 60
52 4 20 94 100 100 100 100 98 100 100 100 100 27 10 0 11 11 100 68 100 100 100 100 100 100 100 100 100 100 100 85 68 41 14 99 99 93 100 100 90 63 34
86 5 79 100 100 100 100 98 84 78 71 34 11 69 6 23 99 43 100 100 100 100 100 100 100 100 100 100 100 100 99 70 6 77 100 99 95 100 97 84 100 87 21
94 85 35 77 95 92 47 3 0 0 0 4 92 86 38 100 96 96 98 100 100 100 100 100 100 100 100 100 100 100 100 68 99 100 69 95 87 13 92 16 79 85 82
100 100 72 94 100 100 79 53 60 9 38 88 84 100 100 100 100 98 100 58 100 100 100 100 100 100 100 100 100 100 100 100 100 100 74 100 100 100 81 42 74 84 57
100 100 100 93 100 100 100 100 100 99 98 100 100 100 100 100 100 100 100 100 100 100 100 100 100 100 100 100 100 100 100 100 100 78 100 95 35 27 70 26 56 100 99
100 98 89 100 100 100 100 100 100 100 100 100 100 100 100 100 100 100 100 100 100 100 100 100 100 100 100 100 100 100 100 100 100 100 98 95 48 5 18 95 29 12 18
100 100 100 100 100 100 100 100 100 100 100 100 100 100 100 100 100 100 100 100 100 100 100 100 100 100 100 100 100 98 100 100 97 100 90 32 5 5 28 5 60 26 5
100 100 100 100 100 100 100 100 100 100 100 100 100 100 100 100 100 100 100 100 100 100 100 100 100 100 100 100 98 100 98 100 100 98 62 5 5 6 73 100 97 57 5
100 100 100 100 100 100 100 100 100 100 100 100 100 100 100 100 100 100 100 100 100 100 100 100 100 100 100 100 100 100 100 100 100 37 0 0 7 96 100 100 85 12 90
100 100 100 100 100 100 100 100 100 100 100 100 100 100 100 100 100 100 100 100 100 100 100 100 84 46 13 100 100 100 100 81 8 4 5 7 81 100 74 28 12 70 73
100 100 100 100 100 100 100 100 100 100 100 100 100 100 100 100 97 97 77 100 100 100 82 18 13 94 100 100 100 100 14 5 5 5 54 96 86 41 2 1 5 6 0
90 100 97 98 100 100 100 100 100 100 100 76 75 44 22 5 95 99 84 20 29 62 97 100 100 100 100 97 29 5 5 5 5 13 77 69 5 0 0 0 0 0 5
83 66 93 100 96 99 100 98 74 58 50 79 57 79 96 94 100 100 100 100 100 100 100 98 100 69 14 8 36 20 7 43 84 99 22 0 0 0 1 1 3 5 5
100 100 100 100 100 100 100 88 46 73 97 100 100 73 35 84 100 100 100 85 92 82 27 8 5 53 52 26 5 57 88 99 94 9 0 3 5 5 5 5 5 5 13

GFSMW_prec_cloud_027.txt.gz
Cloud_Cover
100 100 100 100 100 53 5 5 5 5 15 40 94 93 26 1 5 3 22 6 7 94 100 100 100 100 100 99 1 0 4 0 0 0 0 0 0 0 0 2 5 29 5
100 100 100 100 100 100 35 11 5 24 91 44 20 5 5 5 4 3 41 100 97 92 95 100 100 99 100 91 5 6 5 5 0 0 0 0 0 0 0 0 3 19 65
100 100 100 100 100 100 100 100 56 21 14 28 25 74 77 61 76 25 43 100 10 45 100 100 100 96 74 65 25 5 8 4 3 0 0 0 0 0 0 0 0 0 0
100 100 91 76 94 100 100 100 100 100 94 78 99 100 78 19 5 5 6 51 41 79 94 100 100 100 100 100 54 24 6 5 2 0 0 0 0 0 0 0 0 0 0
100 100 100 99 67 60 48 50 88 95 98 43 83 72 23 5 22 26 5 6 78 55 47 100 100 100 100 86 100 100 7 5 5 0 0 0 0 0 0 0 4 3 5
89 59 94 100 91 96 86 54 71 66 25 5 12 25 5 7 29 46 17 45 42 52 91 95 94 100 100 100 96 100 92 28 67 5 5 1 0 0 2 5 5 5 5
5 5 5 5 5 4 4 4 4 5 12 12 24 41 6 24 65 75 56 12 5 5 5 26 99 43 49 94 95 100 100 100 86 19 46 58 3 5 5 5 5 5 5
0 0 0 0 0 2 0 0 0 0 4 5 14 20 36 6 21 5 5 5 13 11 5 5 5 5 83 100 82 100 100 100 100 100 61 87 24 5 5 5 5 5 5
15 11 5 1 1 13 27 18 10 5 5 5 5 7 50 81 63 100 90 70 15 33 18 4 5 59 100 100 100 100 100 100 100 100 74 100 100 6 5 17 5 5 5
4 12 0 0 0 1 3 18 62 95 100 61 18 6 71 33 38 99 100 100 100 92 43 5 5 77 100 100 100 100 100 100 100 100 100 100 99 45 70 6 11 15 28
0 0 4 4 0 3 4 5 17 5 4 8 19 43 57 38 15 5 5 9 92 100 96 5 15 79 100 100 100 100 100 100 100 100 100 98 100 100 50 86 16 60 5
78 3 5 3 1 5 24 76 100 97 50 8 26 100 55 33 43 47 6 7 63 99 99 100 96 100 100 100 100 100 100 100 100 100 100 100 100 100 100 97 77 16 5
92 6 30 5 1 5 31 100 100 100 94 100 79 92 68 94 41 64 80 95 41 67 100 100 100 100 100 100 100 100 100 100 100 100 100 100 100 100 96 76 24 9 5
7 62 100 24 5 15 49 94 100 100 100 100 92 61 91 98 100 100 100 100 100 100 100 97 100 100 100 100 100 100 100 100 100 100 100 100 100 96 99 69 58 43 6
69 18 34 100 100 98 98 94 93 90 99 100 100 100 100 100 100 100 100 100 100 100 100 100 100 100 100 100 100 100 100 100 100 100 100 100 100 98 87 70 97 35 94
65 100 96 100 55 100 100 100 95 79 12 4 53 100 100 100 100 100 100 100 100 100 100 100 100 100 100 100 100 100 100 100 100 100 100 99 100 99 100 88 100 86 66
99 93 65 98 100 100 100 100 100 98 51 6 87 100 100 100 100 100 100 100 100 100 100 100 100 100 100 100 100 100 100 100 100 100 100 100 100 100 100 100 85 16 48
55 87 100 100 100 100 100 100 100 100 100 92 95 100 100 100 100 100 100 100 100 100 100 100 100 100 100 100 100 100 100 100 100 100 100 100 100 100 100 100 77 73 5
100 96 96 100 100 100 100 100 100 100 100 100 100 100 100 100 100 100 100 100 100 100 100 100 100 100 100 100 100 100 100 100 100 100 100 100 100 100 100 100 99 55 5
100 100 100 100 100 100 100 100 100 100 100 100 100 100 100 100 100 100 100 100 100 100 100 100 100 100 100 100 100 100 100 100 100 100 94 100 100 100 100 100 75 5 5
100 100 100 100 100 100 100 100 100 100 100 100 100 100 100 100 100 100 100 100 100 100 100 100 100 100 100 100 100 98 74 70 21 30 96 100 100 100 99 90 7 5 34
100 100 100 100 100 100 100 100 100 100 100 100 100 100 100 100 100 100 100 100 100 100 100 100 99 100 100 97 100 57 68 62 99 100 100 100 100 87 82 44 5 11 71
100 100 100 100 100 100 100 100 100 100 100 100 100 100 100 100 100 100 100 100 100 100 73 99 91 74 52 65 59 82 96 100 83 100 100 94 54 10 4 0 5 9 2
94 89 100 100 100 100 100 100 96 99 98 100 100 99 96 53 64 56 74 80 72 63 96 88 88 95 98 28 53 69 100 100 100 99 82 78 5 0 0 0 0 0 4
75 93 90 69 89 98 100 82 19 46 66 63 92 97 94 95 93 93 86 91 98 94 100 100 100 100 100 100 100 100 100 92 92 97 5 4 0 3 2 1 3 5 5
100 100 100 83 74 100 89 5 5 16 16 37 67 82 83 92 82 83 77 66 47 96 79 73 97 100 100 100 100 96 89 100 74 5 1 3 5 5 5 5 5 5 14

GFSMW_prec_cloud_030.txt.gz
Cloud_Cover
100 100 100 100 100 100 100 100 100 100 100 100 100 100 100 96 44 60 75 53 12 5 5 5 5 27 16 18 100 99 8 5 5 5 5 4 4 5 1 0 0 0 0
100 100 93 67 100 100 100 100 100 98 100 100 100 84 82 98 44 49 52 5 5 20 5 5 12 100 100 100 100 100 5 5 5 5 5 0 3 5 0 0 0 0 0
100 93 100 100 100 100 100 100 100 100 100 100 100 100 100 79 96 74 100 21 5 41 5 5 48 67 100 71 99 100 48 5 9 5 5 5 5 5 0 0 0 0 0
100 98 81 22 24 100 100 100 100 100 100 100 100 100 100 100 98 100 47 49 26 28 13 13 88 61 99 98 100 100 98 27 64 14 5 5 41 5 5 4 4 2 0
100 87 6 6 8 8 75 93 100 100 100 98 49 53 84 100 100 100 100 99 94 100 92 76 84 99 100 100 100 100 100 100 96 65 14 5 64 85 5 5 5 5 5
60 95 100 48 13 22 91 100 100 100 100 95 82 78 66 90 94 100 100 70 27 97 100 95 60 53 96 100 100 100 100 100 100 100 98 70 66 41 5 5 33 30 5
70 55 89 94 68 28 5 5 6 62 58 61 53 17 46 61 71 48 62 75 89 100 100 100 100 100 100 100 100 100 100 100 100 100 100 100 89 63 25 33 38 11 17
9 6 5 4 0 1 2 2 5 5 1 0 0 2 41 51 27 5 3 10 10 57 10 19 64 100 100 100 100 100 100 100 100 100 100 100 100 100 100 100 100 91 24
1 0 0 0 0 0 0 0 3 0 0 0 0 0 12 96 40 4 0 5 13 22 100 100 100 100 100 100 100 100 100 100 100 100 100 100 100 100 100 100 100 88 58
43 16 3 3 5 3 0 0 0 0 0 0 0 0 0 66 43 32 13 12 93 100 100 100 100 87 100 100 100 100 100 100 100 100 100 100 100 100 100 100 100 100 88
5 16 5 3 4 1 0 0 0 0 0 0 0 0 18 98 99 64 43 53 100 100 100 100 100 100 100 100 100 100 100 100 100 100 100 100 100 100 100 100 100 100 100
26 5 5 1 4 0 0 0 0 5 2 5 67 99 100 100 100 100 100 99 88 77 100 100 100 100 100 100 100 100 100 100 100 100 100 100 100 100 100 100 100 100 91
61 5 5 5 36 2 1 0 3 5 5 17 99 100 100 100 100 100 100 100 100 100 100 100 100 100 100 100 100 100 100 100 100 100 100 100 100 100 100 100 100 100 100
5 5 5 5 5 56 7 5 5 9 58 89 81 94 100 100 100 100 100 100 100 100 100 100 100 100 100 100 100 100 100 100 100 100 100 100 100 100 100 100 100 100 100
9 8 99 17 76 83 76 31 9 97 88 100 100 100 100 100 100 100 100 100 100 100 100 100 100 100 100 100 100 100 100 100 100 100 100 100 100 100 100 100 100 97 100
55 5 66 100 100 100 100 100 100 100 94 98 86 99 100 87 100 100 100 100 100 100 100 100 100 100 100 100 100 100 100 100 100 100 100 100 100 100 100 100 100 97 100
70 11 70 93 100 100 100 100 100 100 100 100 87 47 100 78 98 100 100 100 100 100 100 100 100 100 100 100 100 100 100 100 100 100 100 100 100 100 100 100 97 100 100
99 100 85 100 100 100 100 100 100 100 100 100 100 100 100 100 100 100 100 100 100 100 100 100 100 100 100 100 100 100 100 100 100 100 100 100 100 100 97 100 100 100 100
98 100 86 100 100 100 100 100 100 100 100 100 100 100 100 100 100 100 100 100 100 100 100 100 100 100 100 100 100 100 100 100 100 100 100 100 100 100 100 100 100 100 27
92 88 100 99 100 100 100 100 100 100 100 100 100 100 100 100 100 100 100 100 100 100 100 100 100 100 100 100 100 100 100 100 100 100 100 92 64 19 57 96 98 100 97
41 89 100 100 100 100 100 100 100 100 100 100 100 100 100 100 100 100 100 100 100 100 100 100 100 100 100 100 100 100 100 95 93 47 47 48 98 100 100 100 65 5 40
34 79 58 100 100 100 100 100 100 100 100 100 100 100 100 100 100 100 100 100 100 100 100 100 100 100 100 100 100 91 100 100 100 100 100 55 90 100 90 99 41 56 70
89 100 69 26 86 100 100 100 100 100 100 100 100 97 98 100 98 31 37 100 97 94 42 100 98 100 100 100 100 98 94 100 98 100 100 99 68 12 5 3 5 6 4
5 77 95 26 43 74 98 98 100 92 62 49 10 40 88 100 98 98 92 95 83 80 73 63 40 83 88 97 99 100 100 94 74 30 5 5 5 5 5 0 0 0 2
81 21 17 37 84 100 76 18 42 35 6 5 51 50 53 80 99 88 98 100 100 93 84 88 86 86 96 93 84 94 67 73 21 25 5 5 5 5 1 0 1 3 5
99 100 78 27 71 98 61 14 30 40 39 9 23 45 56 45 23 9 8 9 5 10 27 54 53 54 80 98 96 77 72 73 20 5 4 3 5 5 5 5 5 5 14

GFSMW_prec_cloud_033.txt.gz
Cloud_Cover
100 94 99 100 100 100 100 100 100 100 100 86 100 100 100 100 100 92 18 79 100 92 67 5 13 5 5 5 5 5 36 71 5 5 5 5 5 3 0 5 0 5 0
85 98 100 100 81 87 97 100 100 100 100 100 100 100 100 100 100 100 84 45 25 30 36 49 76 77 68 46 61 19 94 100 12 5 5 5 5 5 5 5 5 1 0
25 48 99 53 92 100 100 100 100 100 100 100 100 100 100 100 100 100 100 100 87 52 19 18 85 98 81 98 99 100 100 100 99 43 56 100 72 13 6 5 5 5 4
100 100 63 21 61 99 100 100 100 100 100 100 100 100 100 100 100 100 100 100 100 97 99 95 99 100 100 100 100 100 100 100 100 100 100 100 100 100 94 54 50 9 5
100 100 100 99 99 98 99 100 100 100 100 100 100 100 100 100 100 100 100 100 100 100 100 80 99 100 100 100 100 100 100 100 100 100 100 100 100 100 100 81 99 100 71
100 100 100 100 34 5 5 9 92 83 47 40 72 61 81 95 100 100 100 100 100 100 100 100 100 100 85 100 100 100 100 100 100 100 100 100 100 100 100 100 100 100 69
99 66 100 100 78 13 8 8 14 34 61 64 62 81 58 91 81 100 100 100 100 100 100 94 59 75 95 97 100 100 100 100 100 100 100 100 100 100 100 100 100 100 95
99 60 92 95 66 31 21 6 5 5 5 3 3 2 5 16 100 73 19 55 97 83 34 31 25 7 8 36 98 100 100 100 100 100 100 100 100 100 100 100 100 100 100
50 71 75 85 54 5 5 5 4 3 1 0 0 0 0 0 2 100 98 66 31 14 14 17 29 31 32 19 94 100 100 100 100 100 100 100 100 100 100 100 100 100 100
9 5 4 4 2 0 0 0 0 0 0 0 0 0 0 0 2 100 100 74 48 34 17 5 35 67 93 98 88 100 100 100 100 100 100 100 100 100 100 100 100 100 100
5 5 3 2 2 0 0 0 0 0 0 0 0 0 0 49 81 100 100 100 96 99 98 94 63 46 96 100 100 100 100 100 100 100 100 100 100 100 100 100 100 100 100
98 9 5 3 3 4 1 0 0 0 0 0 0 1 8 49 100 100 100 100 100 100 100 100 100 100 100 100 100 100 100 100 100 100 100 100 100 100 100 100 100 100 100
5 5 2 2 63 62 25 0 0 0 0 1 2 4 7 75 100 100 100 100 100 100 100 100 100 100 100 100 100 100 100 100 100 100 100 100 100 100 100 100 100 100 100
5 4 5 5 100 100 100 52 0 1 23 10 24 18 41 100 100 100 50 100 100 100 100 88 91 78 100 100 100 100 100 100 100 100 100 100 100 100 100 100 100 100 100
5 5 4 5 100 100 100 78 45 10 17 50 48 67 47 98 86 84 100 100 100 100 100 100 96 97 100 100 100 100 100 100 100 100 100 100 100 100 100 100 100 100 100
5 11 8 65 95 92 96 92 100 100 100 100 76 5 5 5 33 64 100 100 100 100 100 100 100 100 100 100 100 100 100 100 100 100 100 100 100 100 100 100 100 100 100
6 33 42 88 97 100 100 100 100 82 59 100 98 80 97 99 100 100 100 100 100 100 100 100 100 100 100 100 100 100 100 100 100 100 100 100 100 100 100 100 100 100 100
8 29 75 100 100 100 100 100 100 99 95 100 100 98 99 100 100 100 100 100 100 100 100 100 100 100 100 100 100 100 100 100 100 100 100 100 100 100 100 100 100 100 100
63 77 100 100 100 100 100 100 100 100 100 100 100 100 100 100 100 100 100 100 100 100 100 100 100 100 100 100 100 100 100 100 100 100 100 100 100 100 100 100 100 95 48
100 85 100 100 100 100 100 100 100 100 100 100 100 100 100 100 100 100 100 100 100 100 100 100 100 100 100 100 100 100 100 100 100 100 100 100 100 100 100 100 100 92 99
25 100 100 100 94 95 100 100 100 100 100 100 100 100 100 100 100 100 100 100 100 100 100 100 100 100 100 100 100 100 100 100 100 100 100 100 100 90 98 98 66 22 46
5 51 86 77 82 92 100 100 100 100 100 100 100 100 100 100 97 92 100 100 100 100 100 100 100 100 100 100 100 100 100 100 100 100 69 21 17 90 69 32 16 30 35
56 29 6 14 99 100 100 100 100 100 100 100 100 92 52 71 92 47 80 99 75 100 100 100 100 100 100 100 100 100 100 100 100 100 97 90 56 38 66 87 54 5 0
5 86 73 5 9 73 96 100 99 86 5 5 5 5 5 5 14 27 41 46 63 99 100 100 100 100 100 100 100 100 100 100 100 100 100 100 97 82 9 5 0 0 5
40 45 20 16 32 16 93 93 68 23 5 6 5 5 5 10 5 5 5 5 57 90 90 89 79 88 88 82 77 78 100 99 91 46 15 5 5 5 1 1 5 5 8
83 86 93 84 84 16 42 100 99 92 53 52 55 33 6 5 5 5 5 5 5 7 15 5 10 6 19 70 71 79 80 59 6 5 5 5 4 5 5 5 7 6 58

GFSMW_prec_cloud_036.txt.gz
Cloud_Cover
98 74 100 100 95 5 78 100 16 5 5 5 97 100 100 100 100 100 55 67 81 99 100 41 5 5 27 21 47 97 97 98 100 100 27 25 95 100 100 29 15 5 5
61 49 54 100 99 100 100 100 100 100 100 90 21 7 70 100 100 100 100 100 100 99 47 98 83 48 76 57 86 95 72 98 90 100 100 96 89 100 100 100 98 56 66
11 11 32 45 19 76 100 100 100 100 100 100 100 97 60 100 100 100 100 94 60 94 100 96 99 80 66 90 98 100 99 56 84 100 100 100 100 100 100 100 100 100 100
5 6 13 42 19 15 82 100 100 100 100 100 100 100 100 100 98 50 62 74 100 97 96 98 100 100 100 100 100 100 88 56 100 100 100 100 100 100 100 100 100 100 100
62 5 5 7 21 48 8 85 100 100 100 100 100 100 100 100 100 100 100 100 99 100 100 100 100 100 100 100 100 100 100 100 100 100 100 100 100 100 100 100 100 100 100
10 17 24 19 14 6 23 47 98 100 100 98 70 62 79 74 85 100 100 100 100 100 100 100 100 82 100 100 100 100 100 100 100 100 100 100 100 100 100 100 100 100 100
100 100 99 61 5 5 5 20 57 92 87 53 11 5 14 38 66 55 71 94 100 100 100 100 100 100 83 82 99 94 99 100 100 100 100 100 100 100 100 100 100 100 100
100 100 100 97 55 50 46 53 45 31 8 5 5 5 5 6 23 34 10 10 8 28 72 100 100 100 98 84 75 50 99 100 100 100 100 100 100 100 100 100 100 100 100
100 100 100 49 38 77 35 5 5 7 5 5 0 3 0 1 0 2 0 15 0 5 21 100 100 100 100 100 100 88 100 100 100 100 100 100 100 100 100 100 100 100 100
100 100 61 26 45 24 33 23 7 5 3 2 0 0 0 0 0 0 2 52 3 43 100 100 100 98 100 100 100 100 100 100 100 100 100 100 100 100 100 100 100 100 100
100 98 14 5 22 58 13 5 1 0 0 0 0 0 0 0 0 14 100 100 100 100 100 100 100 100 100 100 100 100 100 100 100 100 100 100 100 100 100 100 100 100 100
44 38 17 8 28 21 6 0 0 0 0 0 0 0 0 0 2 99 100 100 100 100 100 100 100 100 100 100 100 100 100 100 100 100 100 100 100 100 100 100 100 100 100
11 5 7 9 48 100 83 45 5 0 0 0 0 0 1 1 3 39 75 81 100 100 100 100 100 100 100 100 100 100 100 100 100 100 100 100 100 100 100 100 100 100 100
69 94 100 52 66 100 99 85 53 2 2 2 0 0 36 54 35 5 56 74 100 100 100 100 100 100 100 100 100 100 100 100 100 100 100 100 100 100 100 100 100 100 100
100 100 23 19 93 100 99 98 78 47 30 25 10 5 5 38 43 21 29 34 34 88 100 92 100 100 100 100 100 100 100 100 100 100 100 100 100 100 100 100 100 100 100
100 20 21 92 100 100 100 100 100 69 49 16 7 96 58 27 95 69 56 90 64 10 24 100 100 100 100 100 100 100 100 100 100 100 100 100 100 100 100 100 100 86 100
7 55 80 100 100 100 100 100 100 100 98 70 68 87 100 68 99 100 100 100 96 98 100 100 100 100 100 100 100 100 100 100 100 100 100 100 100 100 100 100 100 100 100
48 19 96 100 100 100 100 100 100 97 86 100 98 88 78 79 100 100 100 100 100 100 100 100 100 100 100 100 100 100 100 100 100 100 100 100 100 100 100 100 100 100 100
4 84 100 100 100 100 100 100 100 100 100 100 100 91 99 99 100 100 100 100 100 100 100 100 100 100 100 100 100 100 100 100 100 100 100 100 100 100 100 88 100 100 100
37 87 100 100 100 100 100 100 100 100 100 100 100 100 100 100 100 100 100 100 100 100 100 100 100 100 100 100 100 100 100 100 100 100 100 100 100 92 100 100 100 100 100
46 98 96 100 100 100 100 100 100 100 100 100 100 100 100 100 99 100 100 100 100 100 100 100 100 100 100 100 100 100 100 100 100 100 100 100 100 100 100 100 100 100 100
10 72 79 94 88 100 100 100 100 100 100 100 96 91 92 97 83 66 69 66 33 81 100 100 100 100 100 100 100 100 100 100 100 100 100 100 100 100 100 100 100 100 100
5 11 41 98 86 96 100 90 100 100 78 84 100 24 14 6 5 5 5 5 5 5 8 17 51 86 100 100 100 100 100 100 100 100 100 100 100 68 59 30 10 5 2
5 5 5 12 87 100 100 100 34 10 5 5 4 5 5 5 5 5 2 5 5 5 17 37 30 27 28 20 18 52 56 43 17 24 32 34 14 5 4 0 0 0 2
20 20 5 67 46 10 5 5 18 98 63 5 5 10 15 17 5 0 5 5 4 5 5 5 5 5 5 5 5 5 18 43 65 60 31 6 5 0 0 0 3 5 5
100 97 100 90 95 53 5 5 5 58 100 67 44 46 41 28 5 5 5 5 5 5 5 5 5 5 5 8 40 50 62 62 26 8 5 0 0 0 1 5 8 58 85

GFSMW_prec_cloud_039.txt.gz
Cloud_Cover
99 36 33 42 39 3 5 5 5 5 48 5 1 5 5 75 100 100 5 85 78 58 40 31 12 11 81 100 98 78 53 90 39 40 25 85 100 100 68 98 98 100 100
94 98 12 37 21 26 25 41 94 6 5 5 72 50 25 52 100 100 100 13 5 33 67 100 98 100 100 92 89 50 80 91 66 15 32 9 34 90 22 47 100 100 100
100 100 100 100 100 100 100 100 96 55 7 8 22 12 5 1 5 42 100 100 66 38 97 84 68 78 93 73 35 73 58 18 44 56 43 76 80 100 99 88 100 100 100
100 100 100 100 100 100 100 100 100 99 61 24 5 5 5 5 60 86 46 13 26 10 80 100 100 100 99 100 100 100 100 100 100 99 100 100 100 100 100 100 100 100 100
86 18 99 100 98 91 86 89 100 100 100 72 100 82 62 96 100 97 91 76 51 35 54 100 100 100 100 100 100 100 100 100 100 100 100 100 100 100 100 100 100 100 100
5 33 83 96 99 100 100 100 98 95 70 56 98 100 93 100 100 100 99 75 35 53 90 100 100 100 100 100 75 74 93 100 100 100 100 100 100 100 100 100 100 100 100
67 99 88 51 85 96 67 28 8 11 16 88 100 100 100 100 87 47 47 40 46 34 89 84 100 100 100 100 100 100 73 24 74 100 100 100 100 100 100 100 100 100 100
62 59 37 26 58 43 8 28 83 92 48 27 80 30 6 5 3 5 89 90 22 59 68 12 62 100 100 100 100 100 100 100 52 12 99 100 100 100 100 100 100 100 100
58 71 14 66 83 100 100 85 43 33 15 10 6 5 5 5 22 98 87 52 12 0 0 57 36 100 100 100 100 100 100 100 100 100 100 100 100 100 100 100 100 100 100
98 98 100 100 100 100 96 100 90 56 8 27 8 5 85 67 2 1 0 0 0 5 37 64 94 100 100 100 100 100 100 100 100 100 100 100 100 100 100 100 100 100 100
100 100 100 100 100 100 93 39 10 5 5 5 5 5 5 5 2 0 6 69 92 93 86 100 100 100 100 100 100 100 100 100 100 100 100 100 100 100 100 100 100 100 100
100 100 100 100 100 100 74 11 10 5 5 72 11 1 0 3 33 34 58 100 100 100 100 100 100 99 100 100 100 100 100 100 100 100 100 100 100 100 100 100 100 100 100
100 100 100 57 83 94 24 64 86 18 8 0 0 0 17 49 59 8 3 30 52 54 38 38 97 98 95 100 100 100 100 100 100 100 100 100 100 100 100 100 100 100 100
100 100 91 100 100 92 90 100 100 97 18 2 0 7 35 18 0 0 4 4 2 8 42 24 19 38 100 100 100 100 100 100 100 100 100 100 100 100 100 100 100 100 100
14 40 74 36 77 100 100 93 98 100 51 21 10 29 43 29 5 4 9 9 2 12 38 27 40 70 76 100 100 100 100 100 100 100 100 100 100 100 100 100 100 100 100
83 100 100 99 100 100 100 86 100 100 98 71 94 94 96 81 61 62 55 73 99 100 100 100 100 80 93 99 100 100 100 100 100 100 100 100 100 100 100 100 100 100 100
100 100 46 48 100 100 100 100 100 100 100 100 98 96 91 87 73 73 100 100 100 100 100 100 100 100 100 100 100 100 100 100 100 100 100 100 100 100 100 100 100 100 100
100 95 75 99 100 100 100 100 100 100 100 100 100 88 84 78 97 100 100 100 100 100 100 100 100 100 100 100 100 100 100 100 100 100 100 100 100 100 100 100 100 100 100
100 25 86 97 100 100 100 100 100 100 100 100 100 100 98 100 100 100 100 100 100 100 100 100 100 100 100 100 100 100 100 100 100 100 100 100 100 100 100 100 100 100 100
100 98 95 79 100 100 100 100 100 100 100 100 100 100 100 100 100 100 100 100 100 100 100 100 100 99 98 92 99 100 100 100 100 100 100 100 100 100 100 100 100 100 100
100 78 71 99 100 100 100 100 100 100 100 100 100 100 100 100 99 100 100 100 100 98 78 67 79 94 48 97 100 100 100 100 100 100 100 100 100 100 100 100 100 100 100
98 58 70 100 100 100 100 100 100 98 100 100 99 100 100 93 84 71 63 28 4 0 0 0 1 5 5 70 100 99 100 100 100 100 100 87 98 55 66 64 46 40 11
69 28 61 57 86 88 100 100 92 96 76 73 21 7 5 0 4 0 4 0 0 0 0 0 0 0 0 3 4 5 5 5 5 5 14 61 88 88 76 14 6 5 0
86 5 30 10 22 31 82 6 6 5 2 5 21 5 0 0 2 5 5 0 0 0 0 0 4 5 5 5 5 5 5 21 19 30 81 30 5 5 5 0 0 0 0
63 17 5 10 15 9 5 5 4 0 0 10 98 32 5 4 13 22 5 0 1 5 5 5 5 5 5 5 5 11 6 5 6 7 5 5 5 5 1 0 0 2 5
100 96 86 99 100 82 8 5 5 5 5 5 20 68 46 46 95 48 5 5 5 5 5 5 5 5 5 5 5 25 37 56 85 34 5 5 5 0 1 4 7 47 91

GFSMW_prec_cloud_042.txt.gz
Cloud_Cover
100 100 100 100 100 100 100 100 100 100 95 66 41 66 6 5 5 1 1 5 74 86 5 3 5 2 0 5 5 27 67 58 52 81 100 97 98 100 100 100 77 10 6
100 86 100 95 100 100 100 100 95 63 85 53 7 9 12 77 5 5 5 16 4 25 8 2 5 5 5 28 75 91 99 85 18 5 11 30 72 93 26 56 62 100 100
100 100 100 100 98 60 13 5 5 32 5 35 97 84 85 98 100 8 5 5 1 0 0 38 22 17 5 17 21 40 96 96 97 94 62 74 100 100 100 100 100 100 100
100 100 100 100 100 100 84 97 87 72 91 66 57 23 87 55 13 88 9 5 1 1 3 0 30 99 79 95 84 50 100 100 100 80 99 100 99 100 100 100 100 100 100
100 100 100 100 100 100 100 100 100 95 100 100 100 82 11 5 5 5 5 96 89 27 34 6 8 100 100 98 6 7 25 12 16 65 63 90 100 100 100 100 100 100 100
35 64 100 100 100 100 100 100 100 100 100 99 28 24 91 16 5 5 5 5 52 85 100 100 46 82 100 100 100 100 78 100 98 96 81 100 100 69 97 100 80 100 100
93 58 85 100 100 100 100 99 100 93 78 72 98 63 42 20 32 22 27 43 72 100 52 36 13 14 40 93 100 100 100 100 100 96 42 42 82 100 100 100 99 96 100
100 100 100 100 99 98 99 99 100 100 100 93 51 15 41 41 99 80 52 45 36 82 100 79 5 5 66 62 86 100 100 100 100 100 100 100 100 98 100 100 100 100 100
97 94 97 75 100 100 99 88 63 38 48 29 87 68 66 67 34 56 21 6 5 5 5 19 85 85 78 100 100 100 100 100 100 100 100 100 100 100 100 100 100 100 100
76 96 92 90 94 67 31 54 33 76 74 100 100 92 80 78 21 60 63 60 16 5 5 63 4 2 78 100 100 100 99 100 100 100 100 100 100 100 100 100 100 100 100
100 94 65 46 20 40 55 52 100 100 100 100 100 97 56 92 86 77 7 28 78 77 69 51 5 13 98 100 100 100 100 100 100 100 100 100 100 100 100 100 100 100 100
100 100 100 100 100 100 100 100 100 100 100 100 100 46 99 51 100 85 5 31 100 100 48 92 91 100 100 100 100 100 100 100 100 100 100 100 100 100 100 100 100 100 100
100 100 100 100 100 100 100 100 100 100 100 100 100 81 8 5 53 5 5 0 2 0 0 0 7 76 94 99 100 73 70 100 100 100 100 100 100 100 100 100 100 100 100
100 100 100 100 100 100 100 100 100 100 100 100 97 38 5 3 5 1 0 0 0 0 0 0 7 17 36 43 64 97 98 100 100 100 100 100 100 100 100 100 100 100 100
100 100 100 100 100 100 100 100 100 100 98 49 24 52 48 1 5 0 1 2 30 65 39 41 66 53 96 84 78 26 95 95 100 100 100 100 100 100 100 100 100 100 100
100 100 100 100 100 100 100 100 100 100 100 100 100 100 69 100 100 98 100 52 44 36 92 98 74 100 86 99 100 47 85 89 100 100 100 100 100 100 100 100 100 100 100
100 100 100 100 100 100 100 100 100 100 100 100 71 83 100 100 100 100 100 100 100 100 100 100 100 100 100 100 100 89 100 100 100 100 100 100 100 100 100 100 100 100 100
100 100 100 100 100 100 100 100 100 100 100 100 100 100 100 100 100 100 100 100 100 100 100 100 100 100 100 100 100 87 64 66 99 100 100 100 100 100 100 100 100 100 100
96 100 100 21 100 100 100 100 100 100 100 100 100 100 100 100 100 100 100 100 100 100 100 100 100 100 100 100 87 39 65 58 86 100 100 100 100 100 100 100 100 100 100
100 100 100 100 100 100 100 100 100 100 100 100 100 100 100 100 100 100 100 100 100 100 100 100 97 45 19 58 10 5 5 34 67 78 100 100 100 100 100 100 100 100 100
100 100 100 100 100 100 100 98 100 100 100 100 98 97 100 100 100 100 100 100 96 25 16 97 86 58 13 5 5 2 0 0 0 2 4 4 5 5 30 32 5 7 13
100 100 100 100 100 100 100 100 100 100 100 100 100 100 100 86 88 50 99 68 12 4 0 0 2 1 1 3 4 5 3 4 5 5 5 5 7 5 5 5 5 6 5
100 100 100 100 100 100 100 100 96 100 84 18 5 0 5 91 10 4 5 0 0 5 0 0 0 1 4 0 0 5 5 5 5 5 5 41 28 8 6 5 5 5 5
100 100 100 100 98 89 61 5 3 5 3 0 0 0 9 100 96 16 1 2 6 5 5 2 0 4 5 4 3 5 5 5 5 10 5 5 5 5 5 5 5 3 5
100 100 100 100 98 5 8 5 5 1 0 0 0 3 5 46 55 6 5 20 58 46 12 5 5 5 5 5 5 5 5 5 5 5 5 5 5 5 5 0 0 0 5
100 100 100 100 100 99 97 64 5 5 5 1 4 3 5 11 8 72 70 92 99 99 21 5 5 5 7 6 5 5 5 10 39 5 5 5 5 5 0 0 1 5 48

GFSMW_prec_cloud_045.txt.gz
Cloud_Cover
100 100 100 100 100 100 100 100 100 100 100 91 63 100 100 100 100 100 100 100 100 34 95 100 99 13 5 5 5 5 5 8 57 100 35 5 10 57 100 37 5 94 100
100 100 100 100 100 100 100 100 100 100 100 100 100 100 100 100 100 100 100 100 66 97 56 73 93 6 0 1 0 2 6 24 62 74 53 35 72 100 100 100 100 100 100
100 100 100 100 100 100 100 100 100 100 100 100 100 100 100 100 100 87 11 17 5 5 5 5 3 17 46 26 4 5 65 100 100 100 89 64 27 53 100 100 79 29 11
100 100 100 100 100 99 100 100 100 100 100 100 100 100 100 98 18 61 91 100 47 5 0 0 3 5 0 7 34 60 78 70 97 44 81 52 12 5 5 44 80 65 96
100 100 100 100 100 100 100 100 100 100 100 100 100 99 38 5 6 96 88 97 55 5 0 0 0 12 5 5 5 15 100 50 18 80 100 100 57 63 51 50 94 100 99
52 83 100 100 100 100 100 100 100 100 100 100 81 44 25 100 98 9 5 5 6 6 5 2 5 4 9 20 85 100 100 100 96 74 81 97 74 76 78 72 97 100 100
6 6 20 79 100 100 100 100 100 100 100 98 100 100 100 59 13 13 71 10 5 5 5 5 88 21 34 5 23 27 45 67 94 96 86 100 100 96 100 100 100 100 98
66 68 56 5 11 80 93 100 100 100 100 100 100 99 64 80 100 26 8 5 5 5 5 49 89 89 92 94 54 100 25 50 75 97 98 100 100 100 100 100 100 100 100
100 100 79 40 24 37 30 50 60 93 100 100 100 100 100 89 98 37 44 21 12 94 30 95 48 6 82 100 22 5 88 94 41 41 70 98 51 100 100 100 100 100 100
100 100 99 77 84 83 88 100 100 100 100 100 85 96 100 60 44 77 73 66 61 87 89 62 5 5 36 6 27 82 98 99 100 100 100 100 100 100 100 100 100 100 100
100 100 100 100 100 100 100 100 100 100 100 100 100 100 95 76 100 94 58 100 100 100 74 44 52 19 13 6 1 10 12 92 98 93 100 100 100 100 100 100 100 100 100
100 100 100 100 100 100 100 100 100 100 100 100 100 99 49 100 100 100 100 100 100 90 87 47 76 0 7 99 97 100 100 100 93 96 95 100 100 100 100 100 100 100 100
100 100 100 100 100 100 98 96 100 77 59 100 100 100 100 100 100 100 100 87 7 5 5 5 1 0 1 35 99 100 97 100 100 100 100 100 100 100 100 100 100 100 100
100 100 100 100 100 100 100 100 100 100 100 100 100 100 100 100 100 100 31 5 2 3 0 0 0 0 0 0 2 24 75 80 93 100 100 100 100 100 100 100 100 100 100
100 100 100 100 100 100 100 100 100 100 100 100 100 100 100 100 98 68 4 5 2 39 83 35 68 44 48 46 0 9 29 43 94 100 100 100 100 100 100 100 100 100 100
100 100 100 100 100 100 100 100 100 100 100 100 100 100 100 100 100 100 100 100 100 86 63 89 67 77 100 100 100 66 86 78 100 100 100 100 100 100 100 100 100 100 100
100 100 100 100 100 100 100 100 100 100 100 100 100 100 100 100 100 100 100 100 100 100 100 100 100 100 100 100 100 79 100 100 100 100 99 93 100 100 100 100 100 100 100
100 100 100 100 100 100 100 100 100 100 100 100 100 100 100 100 100 100 100 100 100 100 100 100 100 100 100 100 100 56 21 51 57 47 35 33 75 67 90 100 100 96 100
100 100 100 100 100 100 100 100 100 100 100 100 100 100 100 100 100 100 100 100 100 100 100 100 100 100 100 65 9 28 13 15 32 29 7 5 5 7 7 16 15 56 94
100 100 100 100 100 100 100 100 100 100 100 100 100 100 100 100 100 100 100 100 100 100 100 57 32 5 5 5 2 5 5 5 5 4 0 1 2 5 5 5 5 5 16
100 100 100 100 100 100 100 100 100 100 100 94 100 100 100 100 99 100 100 77 13 53 100 100 90 7 1 5 5 2 0 0 0 0 0 4 6 5 14 65 5 7 85
100 100 100 100 100 100 100 100 100 100 100 100 100 100 60 72 100 99 93 100 78 5 1 1 0 4 0 0 4 5 5 5 0 0 5 5 7 5 5 5 5 5 5
100 100 100 100 100 100 98 100 100 100 100 62 34 6 3 0 0 6 85 100 99 10 3 0 3 17 5 5 0 4 5 5 5 5 11 5 5 5 5 5 5 5 1
100 100 100 100 100 100 100 99 72 44 5 5 5 0 0 0 0 4 5 8 37 7 5 5 30 32 38 6 5 5 5 7 39 5 5 5 5 5 5 5 5 5 0
100 100 100 100 100 100 100 100 100 77 18 5 4 0 0 0 2 2 5 5 7 13 5 6 18 50 27 18 43 53 89 73 41 20 33 20 6 5 5 5 5 0 4
100 100 100 100 100 100 100 100 100 100 94 5 5 5 4 4 5 5 5 6 45 39 39 62 89 99 93 92 100 100 100 100 94 64 45 6 5 5 5 4 0 5 6

GFSMW_prec_cloud_048.txt.gz
Cloud_Cover
100 100 100 100 100 100 77 35 5 34 95 100 100 98 65 96 100 100 100 100 100 100 100 100 100 100 70 33 5 5 5 5 5 82 100 99 12 100 100 94 100 100 100
96 100 100 100 100 100 100 100 100 100 100 100 100 100 100 100 100 100 100 100 100 100 100 100 100 87 13 19 25 5 5 5 2 24 77 100 26 51 5 5 5 22 8
97 100 97 100 100 100 100 100 100 100 100 100 100 100 100 100 100 100 100 100 100 100 100 100 100 100 45 5 5 2 5 0 1 5 57 12 19 45 53 54 54 16 55
64 100 100 100 100 100 100 100 100 100 100 100 100 100 100 100 100 100 100 100 93 35 20 8 11 7 5 5 4 4 0 21 27 10 75 97 65 50 70 89 93 86 78
77 100 100 100 100 100 87 99 100 100 100 100 100 100 100 100 100 100 100 100 100 82 67 36 5 27 31 5 2 2 18 15 34 85 100 100 68 99 58 76 45 48 78
5 44 100 100 100 100 99 98 77 99 85 83 77 85 88 86 71 42 74 94 100 98 100 99 34 8 17 28 16 5 9 18 94 99 99 99 82 97 100 83 54 93 100
5 5 35 100 100 100 100 100 94 75 61 13 5 5 12 14 17 38 60 38 27 66 11 5 9 55 43 16 23 35 46 44 58 40 52 82 100 100 100 100 86 94 100
7 5 5 45 85 100 100 100 100 81 99 68 36 11 6 28 62 83 97 60 59 88 5 5 8 5 56 16 5 24 65 38 66 52 96 100 96 84 100 100 100 100 65
76 82 48 5 39 93 67 73 80 84 38 28 35 36 60 57 73 24 54 78 14 5 23 54 58 99 86 26 58 66 100 100 88 72 63 96 100 100 100 100 100 100 100
94 88 71 19 21 23 61 92 78 47 38 33 66 57 49 98 100 100 90 66 85 100 100 76 61 32 17 42 18 23 74 68 84 99 100 100 100 100 100 100 100 100 100
99 88 86 85 72 6 66 98 100 100 100 99 100 100 100 100 100 100 100 100 100 100 70 88 93 19 5 5 30 18 16 42 99 88 100 100 100 100 100 100 99 89 100
100 100 99 62 34 12 41 87 100 100 100 100 100 100 100 100 100 100 100 100 86 83 100 93 10 5 5 5 7 2 1 15 95 100 100 100 100 100 100 100 100 100 100
100 100 100 100 100 100 88 99 99 100 100 100 100 100 100 100 100 100 100 100 98 99 60 25 21 53 10 18 0 31 67 95 100 98 100 100 100 100 100 100 100 100 100
100 100 100 100 100 100 100 100 100 100 100 100 100 100 100 93 100 100 100 100 99 77 31 50 31 12 3 0 0 0 0 6 96 100 100 100 98 100 100 100 100 100 100
100 100 100 100 100 100 100 100 100 100 100 100 98 96 100 100 100 62 100 100 100 100 70 13 27 83 99 70 15 39 86 93 99 99 100 95 99 97 100 100 99 100 100
100 100 100 100 100 98 97 100 100 100 100 100 100 100 100 100 100 100 100 100 100 100 95 87 100 100 100 100 100 100 100 100 100 100 100 100 100 100 100 100 100 100 100
100 100 100 100 100 100 100 100 100 100 100 100 100 100 100 100 100 100 100 100 100 100 100 100 100 100 98 100 99 100 100 100 100 89 53 79 81 70 59 70 86 90 100
100 100 100 100 100 100 100 100 100 100 100 100 100 100 100 100 100 100 100 100 100 100 100 100 100 100 100 99 68 28 40 52 59 45 40 31 20 41 32 24 7 5 5
100 100 100 100 100 100 100 100 100 100 100 100 100 100 100 100 100 100 100 100 100 100 100 100 100 92 12 5 5 28 33 9 14 8 5 4 4 5 5 5 5 5 5
100 100 100 100 100 100 100 100 100 100 100 100 100 100 100 100 100 100 100 100 100 100 36 16 54 7 5 5 5 2 5 5 3 0 0 4 5 7 31 5 5 5 5
100 100 100 100 100 100 100 100 100 100 100 100 100 100 100 100 100 100 100 90 99 100 100 96 74 5 4 4 5 4 5 5 5 0 0 5 5 9 5 5 5 5 46
100 100 100 100 100 100 100 100 100 77 100 100 100 100 100 100 100 94 97 87 25 11 19 23 67 11 3 0 3 5 64 71 37 5 5 6 6 5 5 5 5 5 5
100 100 100 100 100 100 100 100 100 100 100 100 100 100 50 74 100 61 28 5 4 0 2 5 5 5 5 5 10 72 69 64 39 48 68 66 49 5 5 18 5 5 5
100 100 100 100 100 100 100 100 100 100 100 100 100 97 42 5 5 5 0 0 0 0 1 5 5 5 46 44 57 98 99 60 62 85 66 26 5 5 21 5 5 5 4
100 100 100 100 100 100 100 100 100 100 100 100 100 80 55 5 5 5 0 0 0 5 1 2 5 5 5 40 65 78 78 80 100 76 57 53 14 31 5 5 5 5 5
100 100 100 100 100 100 100 100 100 100 100 100 100 100 98 29 5 5 5 5 5 5 5 5 5 29 5 5 30 89 100 80 89 98 91 32 40 40 33 5 5 5 7

GFSMW_prec_cloud_051.txt.gz
Cloud_Cover
60 66 100 100 100 100 100 39 10 27 5 5 5 5 52 87 100 100 100 98 39 16 37 89 100 100 100 100 100 77 39 9 5 13 5 5 5 22 1 3 5 38 45
50 47 100 100 100 100 100 100 100 85 83 75 76 61 18 36 40 83 100 100 89 98 100 100 100 100 100 100 76 25 5 12 23 30 43 64 11 5 7 5 6 10 27
56 100 82 96 100 100 100 100 100 89 100 100 100 100 100 100 100 100 100 100 100 100 100 100 100 100 100 100 100 82 46 24 76 8 86 100 70 24 62 35 26 43 86
6 59 84 26 77 100 100 100 100 100 96 99 100 100 100 100 100 100 100 100 100 100 100 100 100 100 100 100 99 78 60 69 62 45 32 88 100 100 87 19 96 99 45
5 5 5 42 63 84 100 100 100 100 100 100 100 100 100 100 100 100 94 100 67 39 5 18 38 41 45 47 82 96 92 30 46 98 100 98 100 100 99 100 34 10 32
5 5 5 22 92 49 23 79 100 100 100 100 100 100 100 100 100 100 100 100 100 59 62 71 20 79 86 69 42 48 15 35 47 74 100 100 100 100 100 100 100 100 95
5 0 3 11 71 100 97 59 71 95 100 100 100 100 100 100 100 100 100 100 100 100 100 100 100 100 100 100 100 90 68 91 75 98 100 90 89 90 100 100 100 100 100
5 5 5 5 24 98 97 79 48 75 97 71 65 64 99 100 100 100 100 100 100 90 78 96 86 91 58 90 51 65 81 94 100 100 100 62 77 25 100 100 100 100 100
100 37 5 5 5 5 5 5 18 45 65 98 100 100 100 51 54 50 65 75 80 98 74 70 99 91 100 100 94 100 100 100 100 100 100 99 99 88 31 95 94 100 100
88 90 92 5 5 5 5 5 5 5 44 66 86 94 100 91 81 69 56 46 57 100 100 95 96 95 93 29 46 46 66 99 99 100 100 100 100 100 100 100 100 100 100
100 99 62 5 5 39 42 5 5 52 83 89 83 82 92 78 71 94 100 100 100 100 100 95 88 87 69 51 5 23 37 91 100 77 56 100 100 96 100 100 100 100 100
100 96 100 100 84 57 74 63 6 48 37 25 65 98 93 92 95 98 100 86 100 100 90 100 100 71 27 14 5 48 67 68 59 67 100 100 99 100 100 100 100 100 100
100 100 100 100 100 100 100 69 68 85 77 72 62 19 63 89 87 96 100 100 100 100 98 70 15 38 54 5 40 54 61 93 86 74 45 4 8 57 100 100 100 100 100
100 100 100 100 100 100 100 100 100 100 100 100 99 100 100 100 100 100 100 100 99 96 97 25 61 44 5 14 62 67 82 87 94 89 70 31 37 78 100 95 75 63 61
100 100 100 100 100 100 100 100 100 100 100 100 100 100 100 100 100 100 100 100 100 83 27 92 100 100 100 100 100 100 100 100 100 100 100 100 100 99 94 100 100 100 100
100 100 100 100 100 100 100 100 100 100 100 100 100 100 100 100 100 100 100 100 100 100 100 100 100 100 100 100 100 100 100 100 100 100 100 95 100 100 100 100 100 100 50
100 100 100 100 100 100 96 100 100 100 100 100 100 100 100 100 100 100 100 100 100 100 100 100 96 76 100 100 100 100 100 97 36 19 22 55 11 71 60 20 6 75 94
100 100 100 100 100 100 100 100 100 100 100 100 100 100 100 100 100 100 100 100 100 100 100 100 49 35 78 65 51 19 20 64 100 76 51 16 5 5 8 5 5 5 4
99 100 100 100 100 100 100 100 100 100 100 100 100 100 100 100 100 100 100 100 100 100 100 100 74 5 5 5 5 12 28 5 5 4 2 4 5 5 34 5 5 5 5
100 100 100 100 100 100 100 100 100 100 100 100 100 100 100 100 100 100 100 100 100 100 60 19 74 7 5 5 5 1 0 4 2 0 0 5 6 17 19 5 5 5 20
100 99 100 100 100 100 100 100 100 100 100 100 100 100 100 100 100 100 100 100 99 100 50 29 14 7 3 5 5 5 5 0 0 0 5 5 6 12 5 37 14 20 12
100 100 100 100 100 100 100 100 100 100 100 100 100 100 100 100 100 100 100 100 98 95 68 7 2 0 0 0 2 5 5 5 5 5 26 47 47 18 17 26 48 42 8
100 100 100 100 100 100 100 100 100 100 100 100 100 100 100 100 100 100 100 100 62 59 3 0 0 0 0 0 5 5 5 6 47 90 66 71 96 100 100 99 54 6 5
100 100 100 100 100 100 100 100 100 100 100 100 100 100 100 100 100 98 100 100 90 13 4 0 0 0 0 0 0 2 10 20 32 61 100 100 100 63 46 18 7 5 30
100 100 100 100 100 100 100 100 100 100 100 100 100 100 100 100 100 100 100 100 8 5 5 3 0 5 5 5 5 5 5 5 5 41 100 98 99 100 81 18 30 49 23
100 100 100 100 100 100 100 100 100 100 100 100 100 100 100 100 100 100 100 100 68 5 5 5 5 5 5 5 5 18 88 98 58 5 5 60 80 54 11 12 6 5 24

GFSMW_prec_cloud_054.txt.gz
Cloud_Cover
100 100 100 100 100 100 100 100 100 99 98 72 50 32 53 91 100 100 81 62 26 5 13 80 100 58 100 100 100 100 100 100 15 79 73 5 6 41 72 54 10 5 5
64 100 100 100 100 100 100 100 100 100 100 82 82 67 15 14 51 50 19 5 5 5 5 37 81 91 93 100 100 100 28 29 72 64 100 100 98 100 95 35 19 9 6
34 94 100 100 100 100 100 100 100 100 100 100 100 99 97 85 28 18 18 16 23 30 60 58 58 61 97 100 100 86 100 100 100 92 88 100 100 100 100 79 53 25 18
92 100 99 100 100 100 100 100 100 100 100 100 100 100 100 100 100 100 100 100 100 100 100 100 100 100 100 100 100 100 100 100 100 100 100 100 100 100 96 100 100 94 84
100 100 100 82 47 100 100 100 100 100 100 100 100 100 100 100 100 100 100 100 100 100 100 100 100 100 100 100 100 100 100 100 100 100 100 100 98 100 100 100 100 92 100
79 100 98 11 5 6 42 98 100 100 100 100 100 100 100 100 100 100 100 100 100 100 100 100 100 100 100 100 100 100 100 98 87 100 100 95 100 100 100 100 100 100 76
66 93 29 6 5 5 5 5 64 100 100 100 100 100 100 100 100 100 100 100 100 100 100 100 100 100 92 100 100 100 100 100 100 100 100 100 100 82 100 92 97 95 61
62 38 89 66 5 5 13 24 5 6 74 100 100 100 100 100 100 100 100 100 100 100 100 100 100 100 100 100 100 100 100 100 100 100 100 100 74 34 73 100 99 98 100
100 58 50 5 4 4 5 5 5 5 5 5 61 100 100 100 100 100 100 100 100 100 100 100 100 100 100 100 100 100 100 100 100 100 100 100 100 96 66 100 100 100 100
100 100 88 6 1 0 0 0 3 23 5 2 16 43 99 100 100 100 100 100 100 100 100 100 100 100 100 100 100 92 88 100 88 61 94 100 100 100 100 100 98 100 100
100 100 100 92 5 5 4 0 0 0 0 0 1 5 5 92 100 100 100 100 100 100 100 100 100 100 98 72 65 58 68 100 95 74 40 84 100 94 76 100 100 98 100
100 100 100 100 100 35 5 5 5 3 4 2 0 0 0 5 26 90 91 100 100 100 100 100 100 89 37 67 77 5 5 5 6 5 100 100 89 57 100 100 100 100 100
6 92 79 98 100 74 34 85 80 81 11 7 5 2 4 1 4 6 6 6 18 58 51 73 66 81 74 77 27 75 61 55 54 26 100 64 4 26 33 90 100 100 98
5 5 3 85 100 100 100 100 100 98 100 100 23 30 52 65 86 38 60 68 51 99 94 69 100 88 100 95 100 100 100 100 100 100 100 82 32 21 38 69 74 84 100
5 5 5 5 100 100 100 100 100 100 100 100 100 100 100 100 100 100 100 100 100 100 100 100 100 100 100 100 100 100 100 100 100 100 100 100 100 100 100 100 100 100 100
76 96 5 5 100 83 46 94 100 100 100 100 100 100 100 100 100 100 100 100 100 100 100 100 100 100 100 100 100 100 100 98 65 100 67 99 98 85 100 100 100 100 100
69 92 100 17 9 96 100 95 100 96 100 100 100 100 100 100 100 100 100 100 100 100 100 100 100 100 100 100 100 100 39 8 5 7 11 6 5 25 8 5 5 12 20
89 92 93 100 100 77 81 100 98 100 100 100 100 100 100 100 100 100 100 100 100 100 100 100 100 100 100 100 73 10 11 99 100 55 60 6 5 12 5 5 5 5 26
83 100 100 100 100 87 73 100 99 80 100 100 100 100 100 100 100 100 100 100 100 100 100 100 100 100 100 47 5 11 5 5 5 4 5 5 8 18 62 5 5 5 64
99 100 100 100 100 100 100 100 100 100 100 100 100 100 100 100 100 100 100 100 100 100 100 100 100 100 76 5 0 0 0 0 0 5 5 5 5 24 20 5 7 70 71
98 100 99 100 100 100 100 100 100 100 100 100 100 100 100 100 100 100 100 100 100 100 100 100 100 96 93 8 5 3 0 0 0 2 5 5 5 7 29 65 84 71 60
97 84 100 100 100 100 100 100 100 100 100 100 100 100 100 100 100 100 100 100 100 100 100 100 100 100 82 4 1 5 4 5 0 0 3 5 8 46 63 54 77 99 100
100 100 100 99 100 100 100 100 100 100 100 100 100 100 100 100 100 100 100 100 100 100 100 100 100 56 61 5 1 5 4 1 0 2 3 5 4 5 5 50 99 100 45
100 100 100 100 100 100 100 100 100 100 100 100 100 100 100 100 100 100 100 100 100 100 100 100 100 100 13 5 5 5 5 5 5 8 96 84 37 12 34 99 94 95 70
100 100 100 100 100 100 100 100 100 100 100 100 100 100 100 100 100 100 100 100 100 100 100 100 100 84 39 6 47 5 5 5 5 48 6 53 99 100 100 100 100 100 80
100 100 100 100 100 100 100 100 100 100 100 100 100 100 100 100 100 100 100 100 100 100 100 100 100 100 66 56 17 5 5 5 5 5 5 5 5 26 86 100 100 100 100

GFSMW_prec_cloud_057.txt.gz
Cloud_Cover
100 100 100 100 100 100 100 100 100 60 70 93 100 100 100 100 100 100 100 89 50 24 34 96 75 59 92 21 5 13 5 37 84 93 92 100 99 100 13 98 100 100 20
100 100 100 100 100 100 100 100 98 77 42 67 100 100 100 100 100 71 82 80 67 89 100 100 100 100 51 30 58 73 41 96 100 67 83 99 99 37 100 100 100 90 62
100 100 100 100 100 100 100 100 100 98 69 74 100 100 100 100 100 100 100 100 100 100 100 100 100 100 99 100 97 82 100 100 100 98 72 93 90 100 100 100 100 97 77
100 100 100 100 100 100 100 100 100 100 100 100 100 100 100 100 100 100 100 100 100 100 100 92 85 100 100 100 100 100 100 100 100 100 100 100 100 100 100 96 100 100 86
99 100 100 100 96 100 100 100 100 100 100 84 99 100 100 100 100 100 100 100 92 56 63 60 100 100 100 100 100 100 100 100 100 100 100 100 100 84 100 100 100 99 100
89 100 100 99 85 100 100 100 100 100 100 100 53 99 100 100 100 100 100 100 96 100 100 100 100 100 100 100 100 100 100 100 100 100 100 97 100 85 100 100 100 99 96
100 100 79 100 100 88 66 100 100 100 100 100 98 89 100 100 100 100 100 100 100 100 100 100 100 100 100 100 100 100 100 100 100 100 100 100 100 100 100 100 100 100 99
100 100 100 100 100 100 48 6 14 56 50 100 100 100 100 100 100 100 100 100 100 100 100 100 100 100 100 100 100 100 100 100 100 100 100 100 100 100 100 100 37 66 100
100 100 100 100 100 100 96 5 6 47 99 69 46 86 75 98 100 100 100 100 100 100 100 100 100 100 100 100 100 100 100 100 100 100 100 100 100 100 94 100 100 100 100
100 100 100 100 100 100 98 72 5 5 5 10 52 98 100 100 100 100 100 100 100 100 100 100 100 100 100 100 100 100 100 100 100 100 96 92 95 78 87 100 100 100 100
100 100 100 100 100 100 99 80 6 5 3 0 0 5 16 42 37 58 100 100 100 100 100 100 100 100 100 100 100 100 100 100 100 99 100 98 84 100 100 100 100 100 88
15 100 100 74 100 100 100 94 10 6 5 5 0 0 5 5 5 8 78 100 100 100 100 100 100 100 100 97 95 87 96 90 70 100 98 67 84 33 34 59 97 80 100
0 0 84 95 69 58 99 100 100 93 6 7 2 0 0 0 3 21 69 91 97 96 70 39 36 41 47 32 43 95 92 100 97 100 100 100 82 32 50 48 56 42 78
1 0 0 11 100 98 7 5 76 100 100 99 25 5 5 15 38 32 21 10 5 8 24 80 98 56 100 100 100 100 100 100 100 100 100 98 23 93 73 72 72 96 100
5 3 0 0 0 27 47 31 14 5 88 97 88 98 73 40 86 100 90 59 93 76 100 100 100 100 100 100 100 100 100 100 100 100 100 100 100 100 100 100 100 100 92
5 5 5 4 0 0 0 2 86 58 23 72 99 95 100 100 96 88 100 100 100 100 100 100 100 100 100 100 100 100 100 100 100 100 100 99 98 99 100 100 100 100 75
67 5 5 18 34 95 82 19 5 5 5 7 85 100 100 100 100 100 100 100 100 100 100 100 100 100 100 100 100 98 100 100 100 100 61 5 5 3 5 5 5 5 5
8 41 51 83 100 99 100 100 96 85 81 100 92 100 100 100 100 100 100 100 100 100 100 100 100 100 100 100 100 100 100 94 98 87 6 5 5 6 5 5 5 5 10
93 91 90 84 100 100 100 100 100 100 95 100 100 100 100 100 100 100 100 100 100 100 100 100 100 100 100 100 100 100 87 100 100 23 5 3 5 26 5 3 0 2 5
94 92 100 100 100 100 100 98 100 100 100 100 100 100 100 100 100 100 100 100 100 100 100 100 100 100 100 100 100 100 100 100 100 5 0 5 5 6 5 5 3 5 5
54 8 63 100 100 100 100 100 100 100 100 100 100 100 100 100 100 100 100 100 100 100 100 100 100 100 100 100 100 100 100 100 56 4 0 0 11 5 7 5 0 4 5
70 35 82 82 97 99 100 100 100 100 100 100 100 100 100 100 100 100 100 100 100 100 100 100 100 100 100 100 100 100 100 100 78 5 5 5 5 5 30 5 5 5 5
64 46 54 84 100 100 100 100 100 100 100 100 100 100 100 100 100 100 100 100 100 100 100 100 100 100 100 100 100 100 100 99 11 5 5 5 5 5 5 5 5 5 64
100 100 100 100 100 100 100 100 100 100 100 100 100 100 100 100 100 100 100 100 100 100 100 100 100 100 100 100 100 100 100 100 10 5 55 8 5 5 5 5 5 5 5
93 98 100 100 100 100 100 100 100 100 100 100 100 100 100 100 100 100 100 100 100 100 100 100 100 100 100 100 100 100 100 100 100 37 28 11 5 5 5 5 5 5 5
99 99 99 100 100 100 100 100 100 100 100 100 100 100 100 100 100 100 100 100 100 100 100 100 100 100 100 100 100 100 100 100 53 20 36 24 8 12 5 5 5 5 15

GFSMW_prec_cloud_060.txt.gz
Cloud_Cover
100 100 100 100 52 12 63 100 100 100 100 100 100 100 100 100 89 98 82 93 100 100 100 35 58 64 71 60 57 100 74 52 67 84 100 100 92 96 73 100 100 86 69
100 100 100 100 100 96 45 97 100 100 100 100 100 100 100 100 97 96 100 100 100 100 100 84 61 74 75 51 65 99 95 100 92 100 100 100 100 100 100 100 98 37 5
100 100 100 100 100 100 100 100 100 100 100 100 100 100 88 70 92 99 96 100 100 100 100 100 100 99 100 100 100 100 100 100 100 100 100 100 100 100 100 100 100 98 60
100 100 100 100 100 100 100 100 86 100 100 100 100 98 99 100 96 97 99 100 100 100 100 100 100 100 100 100 100 100 100 100 100 100 100 100 100 100 100 100 100 100 100
100 100 100 100 100 100 100 100 100 100 100 100 100 100 100 100 100 100 100 100 100 100 100 100 100 100 100 100 100 100 100 100 100 100 100 100 100 100 100 100 100 100 100
98 99 100 99 100 100 100 100 100 100 87 85 100 100 100 100 100 100 100 100 100 100 100 100 100 100 100 100 100 100 100 100 100 100 100 100 100 100 100 100 89 100 100
100 100 100 100 100 100 100 100 100 97 96 66 96 100 100 100 100 100 100 100 100 100 100 100 100 100 100 100 100 100 100 100 100 100 100 100 100 100 100 100 100 100 65
26 100 100 97 100 100 100 100 100 100 100 97 100 100 100 100 100 100 100 100 100 100 100 100 100 100 100 100 100 100 100 100 100 100 100 100 100 100 100 100 100 100 100
6 98 100 100 100 100 100 100 100 100 100 100 100 100 95 71 99 100 100 100 100 100 100 100 100 100 100 100 100 100 100 100 100 100 100 100 100 100 100 100 100 100 100
54 100 100 100 100 100 100 77 97 99 100 100 100 100 88 98 100 100 100 100 100 100 100 100 100 100 100 100 100 100 100 100 100 100 100 100 100 100 100 100 100 92 100
0 2 41 100 100 100 100 100 100 87 77 72 66 68 56 26 27 91 100 100 100 100 100 100 100 100 100 100 100 100 100 100 100 100 100 100 100 100 100 100 100 88 100
0 0 81 100 100 100 100 100 100 100 100 70 42 66 99 99 68 97 71 40 81 100 100 100 100 100 100 100 100 100 100 100 100 42 26 24 9 100 100 100 63 12 67
1 0 0 61 63 91 85 100 100 100 100 100 100 98 15 96 98 12 83 86 92 89 91 100 100 100 100 100 100 100 100 41 5 18 100 100 100 100 100 80 60 74 77
0 0 0 0 0 0 4 98 100 100 92 100 100 100 96 96 100 69 30 9 5 7 20 36 30 26 49 91 100 96 98 96 100 100 100 100 100 100 99 90 79 98 64
0 0 0 0 0 0 0 0 32 9 28 82 76 100 100 100 100 96 87 77 100 71 93 100 100 100 98 100 100 100 100 100 100 100 100 100 99 92 92 99 63 53 72
5 0 0 0 0 0 0 4 0 0 0 5 87 37 34 97 100 100 100 100 100 100 100 100 100 100 100 100 100 100 100 100 100 100 100 100 100 100 100 92 86 49 74
4 5 1 1 0 5 36 1 2 3 23 1 1 29 83 92 100 100 100 100 100 100 100 100 100 100 100 100 100 100 100 100 100 100 78 100 92 96 5 98 9 5 5
3 5 5 5 5 5 52 44 50 90 100 86 72 71 88 88 100 100 100 100 100 100 100 100 100 100 100 100 100 100 100 100 100 100 100 100 100 90 5 14 4 5 5
11 23 100 100 100 65 88 58 61 88 93 100 100 99 100 98 100 100 100 100 100 100 100 100 100 100 100 100 100 100 100 100 100 100 100 100 100 61 100 37 4 0 4
58 7 51 83 5 66 61 74 96 100 92 100 100 100 99 100 100 100 100 100 100 100 100 100 100 100 100 100 100 100 100 100 100 100 100 100 84 54 66 6 3 5 1
7 3 5 13 83 100 68 61 82 88 98 98 96 100 100 100 100 100 100 100 100 100 100 100 100 100 100 100 100 100 100 100 100 100 73 81 87 100 99 5 5 5 5
5 5 5 57 93 92 67 73 90 100 99 100 100 100 100 100 100 100 100 100 100 100 100 100 100 100 100 100 100 100 100 100 100 100 100 100 100 100 23 6 5 5 5
31 100 92 77 81 44 87 100 100 100 100 100 100 100 100 100 100 100 100 100 100 100 100 100 100 100 100 100 100 100 100 100 100 100 100 100 100 100 93 15 5 5 4
92 96 100 58 72 25 95 100 100 100 95 100 100 100 100 100 100 100 100 100 100 100 100 100 100 100 100 100 100 100 100 100 100 100 100 100 100 100 100 23 5 4 5
100 78 100 100 100 100 100 100 100 100 100 100 100 100 100 100 100 100 100 100 100 100 100 100 100 100 100 100 100 100 100 100 100 100 100 100 100 100 47 5 5 5 5
100 100 100 100 100 100 100 100 100 100 100 100 100 100 100 100 100 100 100 100 100 100 100 100 100 100 100 100 100 100 100 100 100 100 100 88 85 53 54 5 5 7 5

GFSMW_prec_cloud_063.txt.gz
Cloud_Cover
100 100 100 100 100 100 100 100 100 100 100 100 100 100 100 100 100 100 100 100 96 98 94 100 100 100 100 100 100 100 100 100 67 96 70 100 100 100 100 100 100 100 96
100 100 100 100 100 100 100 100 100 100 100 100 100 100 100 100 100 100 100 100 100 100 100 99 100 100 100 100 100 100 100 100 100 100 100 100 100 100 100 100 100 98 86
99 100 100 100 100 100 100 100 100 100 100 100 100 100 100 100 100 100 100 100 100 100 100 100 100 100 100 100 100 100 100 100 100 100 100 99 100 100 100 100 100 92 55
100 93 100 100 100 100 100 100 100 100 100 100 100 100 100 100 100 100 100 100 100 99 60 96 100 100 100 100 100 100 100 100 100 100 100 100 100 100 100 100 100 100 93
100 99 70 100 100 100 100 100 100 100 100 100 100 100 100 100 100 100 100 100 100 100 100 100 100 100 100 100 100 100 100 100 100 100 100 100 100 100 100 100 100 100 100
100 100 100 100 100 100 100 100 100 100 100 100 100 100 100 100 100 100 100 100 100 100 100 100 100 100 100 100 100 100 100 100 100 100 100 100 100 100 100 100 100 100 100
100 100 100 100 100 100 100 100 100 100 100 100 100 100 100 99 100 100 100 100 100 100 100 100 100 100 100 100 100 100 100 100 100 100 100 100 100 100 100 100 100 100 94
35 93 100 100 100 100 100 100 100 100 100 100 100 100 91 62 73 87 85 100 100 100 100 100 100 100 100 100 100 100 100 100 100 100 100 100 100 100 100 100 100 100 100
100 100 100 100 100 100 100 100 100 100 100 100 100 99 82 68 74 98 97 100 96 100 100 100 100 100 100 100 100 100 100 100 100 100 100 100 100 100 100 100 100 100 86
1 2 21 76 76 100 100 100 100 100 100 100 100 100 100 100 98 90 100 74 68 64 99 97 100 100 100 100 100 100 100 100 100 100 100 100 100 100 100 100 100 100 100
0 0 0 97 99 92 100 100 100 100 100 100 100 98 100 100 100 98 95 85 85 83 88 100 100 100 100 100 100 100 100 100 100 100 100 100 100 100 100 100 80 95 96
0 0 0 1 49 62 7 100 100 100 100 100 100 100 100 100 100 100 100 100 98 86 78 59 94 100 100 100 100 100 100 100 100 100 100 100 100 47 68 56 98 100 100
0 0 0 0 0 0 0 0 57 89 100 100 100 100 100 100 100 95 100 100 39 5 47 51 94 100 100 100 100 100 100 100 100 100 100 95 83 35 49 54 99 100 100
0 0 0 0 0 0 0 0 0 3 5 70 100 100 100 100 100 100 100 100 100 89 59 6 5 45 53 43 83 95 88 96 86 91 27 21 32 98 100 100 100 100 100
0 0 0 0 0 0 0 0 0 0 0 3 51 39 100 100 100 100 100 100 98 100 100 98 97 100 98 100 100 100 100 100 100 97 97 100 94 100 100 100 100 100 100
0 0 0 0 0 0 0 0 0 0 0 0 0 31 5 100 100 100 100 100 100 100 100 100 100 100 100 100 100 100 100 100 100 100 100 100 100 100 100 100 100 100 71
0 0 3 4 1 1 0 0 0 0 0 0 0 0 1 18 100 100 80 100 100 100 100 100 100 100 100 100 100 100 100 100 100 99 100 100 100 100 100 100 100 100 91
0 0 3 4 24 5 5 5 5 0 0 2 0 4 18 85 100 94 76 98 100 100 100 100 100 100 100 100 100 100 100 100 100 100 100 100 100 100 100 100 80 100 100
5 0 2 4 25 89 53 61 37 5 8 5 5 16 44 96 100 94 95 100 100 100 100 100 100 100 100 100 100 100 96 100 100 100 100 100 100 100 100 100 97 100 93
87 13 22 66 5 52 86 7 17 88 66 65 56 58 56 100 85 100 100 100 100 100 100 100 100 100 100 100 100 100 100 100 100 100 100 100 100 100 100 100 100 100 97
32 6 5 5 5 5 5 28 68 81 86 62 70 69 100 100 100 100 100 100 100 100 100 100 100 100 100 100 100 100 100 100 100 100 100 100 100 100 100 100 100 100 100
10 40 62 39 5 14 47 100 95 100 79 100 93 99 100 100 100 100 100 100 100 100 100 100 100 100 100 100 100 100 100 100 100 100 100 100 100 100 100 100 100 100 100
5 5 28 7 68 48 76 98 77 99 94 77 100 100 100 100 100 100 100 100 100 100 100 100 100 100 100 100 100 100 100 100 100 100 100 100 100 100 100 100 100 100 100
6 5 6 32 84 100 100 26 50 67 23 41 100 100 98 100 100 100 100 100 100 100 100 100 100 100 100 100 100 100 100 100 100 100 100 100 100 100 100 100 100 100 100
8 68 72 58 24 100 100 100 84 88 99 100 100 100 100 100 100 100 100 100 100 100 100 100 100 100 100 100 100 100 100 100 100 100 100 100 100 100 100 100 100 100 11
64 71 82 100 99 100 100 100 100 100 100 100 100 100 100 100 100 100 100 100 100 97 100 100 100 100 100 100 100 100 100 100 100 100 100 100 100 100 100 100 100 82 5

GFSMW_prec_cloud_066.txt.gz
Cloud_Cover
100 100 96 100 100 100 100 100 100 100 100 100 100 100 100 100 100 100 100 100 100 100 100 98 100 100 100 100 100 100 100 100 100 100 100 100 100 100 100 100 100 58 64
100 95 100 100 100 100 100 100 100 100 100 100 100 100 100 100 100 100 100 100 100 100 100 100 100 100 100 100 100 100 100 100 100 100 100 100 100 100 100 100 100 100 100
100 97 100 99 97 94 100 100 100 100 100 100 100 100 100 100 100 100 100 100 100 100 100 100 100 100 100 100 100 100 100 100 100 100 100 100 100 100 100 100 100 100 100
100 91 100 100 100 100 100 100 100 100 100 100 100 100 100 100 100 100 100 100 100 100 100 88 100 100 98 98 100 100 100 100 100 100 100 99 74 100 100 100 100 100 100
82 100 100 100 100 100 100 100 100 100 100 100 100 100 100 100 100 100 100 100 100 100 100 100 100 100 100 100 100 100 100 100 100 100 100 100 100 100 100 100 100 100 100
5 68 100 100 100 80 100 100 100 100 100 100 100 100 100 100 100 100 100 100 100 100 100 100 100 100 100 100 100 100 100 100 100 100 100 100 100 100 100 100 100 100 100
81 18 29 100 100 100 100 94 100 100 100 100 100 100 100 100 100 100 100 100 100 100 100 100 100 100 100 100 100 100 100 100 100 100 100 100 100 100 100 100 100 100 100
15 88 76 100 96 100 100 100 100 100 100 100 100 100 100 100 100 100 99 79 100 92 100 100 100 100 100 100 100 100 100 100 100 100 100 100 100 100 100 100 100 100 100
98 11 61 100 91 100 100 100 100 99 100 100 100 100 100 100 100 100 100 100 100 100 83 100 100 100 100 100 100 100 100 100 100 100 100 100 100 100 100 100 100 100 100
70 5 0 12 14 21 100 100 100 100 100 100 100 95 100 100 100 100 74 100 98 99 48 45 70 80 80 100 100 100 100 100 100 100 100 100 100 100 100 100 100 100 100
0 0 0 0 0 1 100 100 85 100 100 100 100 100 100 99 100 100 100 100 100 72 87 82 100 93 100 99 52 99 82 100 100 100 100 100 100 100 100 100 100 100 100
5 0 0 0 0 4 100 100 100 100 95 100 100 100 100 100 100 100 100 100 87 98 100 80 91 100 100 100 100 39 80 100 100 100 100 100 100 100 100 100 100 94 99
1 0 0 0 0 0 0 22 34 24 5 44 57 92 88 100 100 100 100 100 98 100 100 100 100 89 99 99 88 78 34 6 29 87 94 90 76 94 63 96 100 100 100
0 0 0 0 0 0 0 0 0 0 0 1 98 62 17 44 99 100 100 100 100 100 100 100 100 100 100 93 94 29 13 50 31 70 56 68 57 87 100 100 100 100 100
0 0 0 0 0 0 0 0 0 0 0 0 41 100 70 37 25 10 100 100 100 100 100 100 100 100 100 100 100 100 100 100 100 100 100 92 100 100 100 100 100 100 100
5 4 4 0 0 0 0 0 0 0 0 0 0 0 0 0 0 0 2 40 100 100 59 100 100 100 100 100 100 100 100 100 100 100 100 100 100 100 100 100 100 100 100
5 0 0 0 0 0 0 0 0 0 0 0 0 0 0 0 0 0 90 44 2 56 100 100 100 100 100 100 100 100 100 100 100 100 100 100 100 99 99 100 100 100 100
0 2 0 0 0 0 4 5 77 23 1 0 0 0 0 0 0 55 100 94 19 88 100 100 100 100 100 100 100 100 100 100 100 100 100 100 100 100 100 100 100 100 100
2 4 2 0 0 2 0 33 100 7 5 5 5 5 5 5 5 99 99 42 72 100 100 100 100 100 100 100 98 69 100 100 100 100 100 92 100 100 100 100 100 100 100
21 5 0 0 4 0 5 5 5 17 100 93 37 5 5 5 25 100 88 51 95 100 100 100 100 100 100 100 82 58 100 100 100 100 100 100 100 100 100 100 100 100 100
4 5 2 2 2 3 5 6 5 5 36 25 63 68 38 15 100 90 87 82 100 100 100 100 100 100 100 100 100 100 100 100 100 100 100 100 100 100 100 100 100 100 100
29 5 8 5 5 5 5 5 5 5 76 70 98 83 83 94 100 97 100 100 100 100 100 100 100 100 100 100 100 100 100 100 100 100 100 100 100 100 100 100 100 100 100
5 5 5 5 5 5 5 5 5 40 92 88 58 38 73 100 100 100 100 100 100 100 100 100 100 100 100 100 100 100 100 100 100 100 100 100 100 100 100 100 100 100 100
5 5 5 5 10 9 5 5 38 35 60 92 100 27 100 100 100 100 100 100 100 100 100 100 100 100 100 100 100 100 100 100 100 100 100 100 100 100 100 100 100 100 100
54 36 46 35 94 67 47 5 37 83 98 100 100 100 100 100 99 100 100 100 100 100 100 100 100 100 100 100 100 100 100 100 100 100 100 100 100 100 100 100 100 100 100
63 64 90 99 89 98 100 72 65 100 100 100 100 100 100 100 100 100 100 100 100 100 100 100 100 100 100 100 100 100 100 100 100 100 100 100 100 100 100 100 100 100 100

GFSMW_prec_cloud_069.txt.gz
Cloud_Cover
100 100 100 100 100 100 100 100 100 100 100 100 99 89 64 100 100 100 100 100 100 100 100 100 100 100 100 100 100 100 100 100 100 100 100 91 84 100 100 100 100 98 100
100 97 100 100 100 100 100 100 100 100 100 100 100 100 100 99 100 100 100 100 100 100 100 100 100 100 100 100 100 100 100 100 100 99 94 98 100 100 100 100 100 100 99
100 100 100 100 100 100 100 100 100 100 100 100 100 100 100 100 100 100 100 100 100 100 100 100 100 100 100 100 100 100 100 100 99 98 100 100 100 100 100 100 100 100 100
100 100 100 100 100 100 100 100 100 100 100 100 100 100 100 100 100 100 100 100 100 100 100 100 100 100 100 100 100 100 100 91 94 100 100 100 100 100 100 100 100 100 100
78 100 100 100 100 100 100 100 100 100 100 100 100 100 100 100 100 100 100 100 100 100 100 100 100 100 100 100 100 100 99 99 91 100 100 100 100 100 86 98 100 100 100
42 89 100 100 100 100 100 100 99 98 100 100 100 100 100 100 100 100 100 100 100 100 100 100 98 100 100 100 100 100 100 100 100 100 100 100 78 100 100 100 100 100 100
37 47 100 100 100 100 100 86 64 32 62 35 97 100 100 100 100 100 100 100 100 100 100 100 100 100 100 100 100 100 100 100 100 100 100 100 100 100 100 100 100 100 100
5 4 0 0 7 90 100 100 12 38 83 80 74 82 100 100 100 100 100 100 100 100 100 100 100 100 100 100 100 100 100 100 100 100 100 100 100 100 100 100 100 100 100
97 5 24 99 4 0 2 59 100 100 63 100 100 100 100 100 100 100 100 100 100 100 100 100 100 99 98 94 95 98 100 100 100 100 100 100 100 100 100 100 100 100 100
13 5 4 2 4 52 100 100 12 65 100 100 100 100 100 100 100 100 100 93 82 96 94 100 100 99 100 94 40 32 78 9 60 60 87 83 100 100 100 100 100 100 100
95 5 0 0 0 10 95 60 3 30 100 61 100 100 100 100 100 99 100 100 100 100 100 76 93 99 100 86 63 81 31 53 34 42 33 88 100 100 97 100 100 100 100
5 5 5 5 5 5 6 26 6 0 94 100 55 21 100 100 100 100 97 100 100 99 100 100 100 96 83 66 54 97 80 90 92 98 77 100 100 100 100 100 100 100 100
100 96 98 8 4 0 0 0 0 0 0 0 0 1 100 30 29 9 100 100 100 100 100 100 100 100 100 100 98 99 99 99 100 100 100 100 100 100 100 98 100 100 100
100 95 81 5 2 0 0 0 0 0 0 0 0 0 53 91 93 99 42 62 100 100 100 100 100 100 88 88 100 99 100 100 100 100 100 100 100 100 100 100 100 100 100
100 100 84 5 4 0 0 0 0 0 0 0 0 0 0 19 16 1 24 1 5 8 36 100 100 100 100 100 84 100 99 100 100 100 100 100 100 100 100 100 100 100 100
100 100 100 7 5 0 0 0 0 0 0 0 0 0 0 0 0 0 0 0 0 0 28 100 100 100 100 100 100 100 100 100 100 100 100 100 100 100 100 100 100 100 100
100 72 5 5 1 5 0 0 0 0 0 0 0 0 0 0 0 0 0 0 0 0 0 1 84 100 100 100 100 100 100 100 100 100 100 100 100 100 100 100 100 100 100
73 7 2 0 0 1 0 0 0 0 0 0 1 5 3 1 0 0 0 4 7 0 0 26 99 100 100 100 100 100 100 100 100 95 100 100 100 100 100 96 100 100 100
5 5 5 6 5 0 0 0 0 0 0 5 5 5 5 5 6 5 16 99 62 45 45 96 100 100 100 100 100 100 100 100 60 50 64 100 100 100 100 100 100 100 100
31 5 4 1 0 2 3 65 0 4 5 0 5 5 5 62 100 64 13 100 65 83 96 100 100 100 100 100 47 100 100 100 72 99 100 100 100 100 100 100 100 100 100
15 5 5 5 4 3 0 2 4 2 4 5 5 5 68 69 93 74 99 100 98 98 100 100 100 100 100 92 74 100 100 100 100 100 100 100 100 100 100 100 100 100 100
5 5 5 5 5 5 5 5 5 5 5 5 5 11 74 84 89 85 100 100 100 100 100 100 100 100 100 100 97 100 100 100 100 100 100 100 100 100 100 100 100 100 100
5 14 71 77 59 84 82 74 57 44 26 5 40 87 82 100 98 100 100 100 100 100 100 100 100 100 100 100 100 100 100 100 100 100 100 100 100 100 100 100 100 100 100
57 12 5 8 17 30 22 6 5 7 23 6 15 80 90 90 100 100 100 100 100 100 100 100 100 100 100 96 100 100 100 100 100 100 100 100 100 100 100 100 100 100 100
100 82 100 83 77 79 73 77 46 55 98 100 23 25 68 72 100 100 100 100 100 100 100 100 100 100 100 100 100 100 100 100 100 100 100 100 100 100 100 100 100 100 100
100 100 100 100 100 100 100 100 100 100 100 100 100 100 100 100 100 100 100 100 100 100 100 100 100 100 100 100 100 100 100 100 100 100 100 100 100 100 100 100 100 100 100

GFSMW_prec_cloud_072.txt.gz
Cloud_Cover
100 100 100 100 100 100 100 100 100 100 100 100 100 100 100 100 100 100 100 100 100 100 100 100 100 100 100 100 100 100 100 100 100 100 100 99 100 100 78 80 94 91 100
100 100 100 100 100 100 100 100 100 100 100 100 100 100 100 100 100 100 100 100 100 100 100 100 100 100 100 100 100 100 100 100 100 100 99 100 83 70 46 95 87 9 16
99 100 100 100 100 100 100 100 100 100 100 100 100 100 100 100 100 70 93 100 100 100 100 100 100 100 100 100 100 100 100 100 100 100 100 98 99 100 100 100 100 100 85
100 100 100 100 100 100 100 100 100 100 100 100 100 100 100 100 100 98 86 100 100 100 100 100 100 100 100 100 100 100 100 100 100 100 100 100 97 100 100 100 100 100 100
54 100 100 100 100 100 100 100 100 100 100 100 96 100 100 100 100 100 100 100 100 100 100 100 100 100 100 100 100 100 100 100 100 100 100 100 92 100 100 100 100 100 100
5 5 99 100 100 91 100 100 100 100 100 100 100 100 100 100 100 100 100 100 100 100 100 100 100 100 100 100 100 100 84 73 76 100 100 100 100 100 100 100 100 100 100
0 0 0 94 100 100 96 100 100 100 100 100 100 100 100 100 100 100 100 100 100 100 100 100 100 100 98 100 89 85 78 89 76 98 100 100 100 100 100 100 100 100 100
1 0 1 2 64 100 100 100 100 100 100 100 100 100 100 100 100 100 100 100 100 100 100 100 100 100 100 100 100 99 100 100 99 100 100 90 100 100 100 100 99 100 100
53 26 1 0 4 96 88 100 100 100 100 100 100 80 95 100 100 100 100 100 100 100 100 100 100 100 100 100 100 62 61 100 100 98 45 83 99 94 67 97 72 90 100
100 20 5 0 0 27 17 6 82 100 100 100 100 99 69 100 40 98 100 100 100 100 100 100 100 100 100 100 100 100 100 100 98 72 30 36 19 77 75 100 100 100 100
5 3 0 4 0 0 0 0 0 0 41 100 100 100 100 100 100 100 100 100 100 100 100 88 97 76 71 79 91 85 87 63 63 81 46 6 19 99 96 99 100 100 100
0 0 2 5 5 5 4 1 0 0 0 0 1 23 67 90 100 100 100 100 100 100 100 100 100 100 99 96 98 100 98 100 100 98 99 81 95 100 100 100 100 100 100
24 86 37 5 5 12 5 4 3 0 0 0 0 0 1 0 3 49 100 47 2 61 98 100 100 100 100 100 100 100 100 100 99 100 100 100 100 100 100 100 100 100 100
100 100 100 68 13 100 99 18 31 5 2 0 0 0 0 0 0 0 2 26 3 0 4 100 100 100 93 30 100 100 100 100 100 100 100 100 100 100 100 100 100 100 100
100 66 5 9 86 100 100 100 93 5 5 0 0 0 0 0 0 0 0 0 3 2 4 93 70 89 100 90 42 98 100 100 100 100 100 99 97 98 100 100 100 100 100
38 59 100 100 81 40 23 5 5 5 5 0 0 0 0 0 0 0 0 0 0 0 0 0 0 3 16 67 99 100 100 100 100 100 100 100 100 100 100 100 100 100 100
80 92 100 100 99 85 81 5 5 1 0 0 0 0 0 0 0 0 0 0 0 0 0 0 0 0 0 74 100 100 100 100 100 100 100 100 92 9 59 81 93 100 91
100 100 100 100 100 100 100 79 5 4 0 0 0 0 0 0 0 0 0 0 0 0 0 0 0 0 25 98 100 100 100 100 100 100 100 86 5 5 18 92 100 100 100
100 97 70 53 53 58 34 10 5 0 0 4 5 4 0 0 0 0 0 0 4 11 3 4 11 34 78 100 100 100 100 100 100 100 94 62 100 98 100 100 75 100 100
98 36 41 44 64 37 5 5 5 0 5 0 1 1 0 0 5 5 6 5 38 85 81 100 91 99 100 100 100 86 99 100 100 95 72 100 100 100 100 100 100 100 100
59 79 99 16 5 5 5 5 5 4 3 2 2 22 8 5 5 18 39 60 90 100 100 100 100 100 100 100 100 10 15 40 100 94 72 100 100 100 100 100 100 100 100
70 61 42 5 5 56 28 21 23 5 5 4 5 6 5 5 22 88 88 64 100 100 100 100 100 100 100 100 97 13 97 90 92 96 100 100 100 100 100 100 100 100 100
43 30 99 100 84 10 9 5 5 5 5 5 5 8 5 6 79 84 83 95 100 100 100 100 100 100 100 100 42 86 100 97 100 98 100 100 100 100 100 100 100 100 100
100 98 68 98 93 24 60 54 5 14 46 52 25 9 60 99 91 98 98 100 100 100 100 100 100 100 100 100 100 98 99 100 98 100 100 100 100 100 100 100 100 100 100
100 100 100 100 98 25 59 100 89 83 77 70 68 56 52 100 82 88 100 100 100 98 99 100 100 100 100 100 74 88 100 100 100 100 100 99 100 100 100 100 100 100 100
100 100 100 100 100 76 55 100 100 100 100 100 100 100 100 100 100 100 100 100 100 100 100 100 100 100 100 100 92 100 100 100 100 100 100 100 100 100 100 100 100 100 100

GFSMW_prec_cloud_075.txt.gz
Cloud_Cover
100 100 100 100 100 100 100 100 100 100 100 100 100 100 100 74 100 100 100 100 100 100 100 100 100 100 100 100 100 100 100 100 100 100 100 100 100 100 100 100 100 69 74
100 100 100 100 100 100 100 100 100 100 100 100 100 100 100 100 100 100 100 100 100 100 100 100 100 100 100 100 100 100 100 100 100 100 100 100 100 91 97 85 97 100 95
100 100 100 100 100 100 90 100 100 100 100 100 100 100 100 100 100 98 99 100 100 100 100 100 100 100 100 100 100 100 100 100 100 94 92 100 100 100 100 100 100 98 51
100 100 100 100 100 100 100 100 97 100 100 100 100 100 100 100 100 100 100 100 100 100 100 100 100 100 100 100 100 100 100 98 32 41 8 20 67 100 100 100 100 100 100
100 100 100 100 100 100 100 100 73 100 100 100 100 100 100 100 100 100 100 100 100 100 100 100 100 100 100 100 100 100 86 83 97 99 100 92 95 100 100 100 100 100 100
100 97 68 100 100 100 100 100 100 100 100 99 93 100 100 100 100 100 100 100 100 100 100 100 100 100 100 100 100 100 100 60 90 56 20 22 95 43 36 92 100 100 100
100 100 100 61 94 100 100 100 100 100 100 100 100 100 100 100 100 100 100 100 100 100 100 100 100 100 100 100 100 100 100 86 98 78 80 69 92 100 100 100 100 100 100
51 80 100 100 99 47 30 27 100 100 100 100 100 100 100 100 100 100 100 100 100 100 100 100 100 100 100 100 100 100 100 100 100 100 100 100 100 100 100 100 100 100 100
14 5 5 99 100 100 87 52 78 93 100 100 100 100 100 100 100 100 100 100 100 100 100 100 100 100 100 100 100 100 100 100 100 100 100 100 99 83 100 100 100 100 99
4 1 1 0 14 95 100 99 14 97 100 88 94 100 100 100 100 100 100 100 100 100 100 100 100 100 100 100 100 100 100 100 100 100 100 100 87 91 49 61 94 93 100
52 57 12 5 0 0 1 83 100 100 100 100 100 100 92 100 100 100 100 100 100 100 100 100 100 100 100 100 100 100 100 100 100 100 100 92 70 100 95 95 95 100 100
100 100 40 2 0 0 1 0 1 47 100 100 100 100 100 100 100 100 68 100 100 100 100 100 100 100 100 100 100 91 60 89 88 98 71 84 68 100 100 100 100 100 100
16 9 81 2 0 0 0 0 0 0 0 0 0 0 16 85 100 100 100 100 100 100 100 94 68 42 64 95 89 100 100 51 89 100 95 100 100 100 100 100 100 100 100
5 5 3 0 3 5 3 1 0 0 0 0 0 0 0 0 0 1 20 8 37 20 48 29 52 64 54 42 5 4 1 0 26 100 100 100 100 100 100 100 100 100 100
100 34 2 0 0 0 0 3 2 4 4 5 12 5 5 2 0 0 0 0 0 0 0 0 0 0 0 0 0 0 5 20 98 100 96 99 100 100 100 100 100 100 100
70 22 6 72 50 39 5 5 32 6 44 73 10 59 72 5 3 0 0 0 0 0 3 0 0 0 0 0 0 45 97 100 100 100 100 100 100 100 100 100 100 100 100
100 97 96 100 100 100 100 100 100 100 99 100 100 100 27 35 5 4 0 0 0 0 0 0 0 0 0 0 6 25 100 100 100 100 100 100 100 100 85 22 68 94 100
100 100 100 100 100 100 100 100 59 24 95 100 100 97 13 5 4 0 0 0 0 0 0 0 0 0 0 0 56 89 100 100 100 100 100 100 100 63 5 11 5 16 100
97 100 99 100 100 100 100 100 100 97 94 100 100 100 12 5 0 0 0 0 0 2 0 0 0 0 0 3 99 100 100 100 100 100 100 100 94 5 98 53 91 100 100
100 100 100 100 100 100 100 100 100 100 100 100 100 100 51 5 5 1 2 0 0 65 38 100 99 6 16 56 100 100 100 100 100 100 100 94 17 99 9 100 100 100 100
83 100 100 100 100 100 100 100 100 100 100 70 13 5 5 5 0 0 11 5 6 58 95 100 100 100 78 84 100 100 99 37 98 100 58 6 49 91 97 85 100 100 100
87 100 100 100 100 80 100 100 98 49 33 33 42 5 5 2 7 27 100 21 63 95 100 100 100 97 86 100 100 100 88 5 6 5 5 5 53 82 98 100 100 100 100
27 81 100 100 99 96 96 100 100 39 27 10 5 5 5 5 39 72 88 79 62 99 100 100 100 100 96 100 100 100 84 36 5 24 6 57 99 93 98 100 100 100 100
93 100 100 100 100 100 100 100 100 100 98 57 100 47 5 33 23 21 62 100 100 100 100 100 100 100 100 100 100 100 32 36 29 18 5 59 42 100 100 97 100 100 100
11 84 100 100 100 100 100 100 100 100 100 100 89 29 8 22 50 62 78 69 95 100 100 100 98 100 100 99 100 100 66 95 96 38 94 61 42 100 100 100 100 100 100
100 71 29 53 100 100 100 100 100 100 100 100 100 100 100 100 100 100 100 100 100 97 100 100 99 100 100 100 100 100 100 100 100 95 84 100 87 100 100 100 100 100 100

GFSMW_prec_cloud_078.txt.gz
Cloud_Cover
100 100 100 100 100 100 100 100 100 100 100 100 100 100 100 100 100 100 100 86 82 99 100 100 100 100 100 100 100 100 93 99 100 100 100 100 43 25 100 98 97 100 87
100 100 100 100 100 100 100 100 100 100 100 100 100 100 100 100 100 100 100 100 100 100 100 100 100 100 100 100 100 100 100 100 100 100 91 98 97 96 86 34 69 59 28
100 100 100 100 100 100 100 100 100 100 100 100 100 100 100 100 100 100 100 100 97 100 100 100 100 100 100 100 100 100 100 100 100 100 88 58 71 90 92 59 10 66 6
100 100 100 100 100 100 100 100 100 100 100 100 100 100 100 100 100 100 100 100 100 100 97 100 100 100 100 100 100 100 100 100 84 73 88 100 100 100 100 100 98 86 62
100 100 100 100 100 100 100 100 100 100 100 100 100 100 100 100 100 100 100 100 100 100 100 100 100 100 100 100 100 100 100 100 100 49 67 9 5 70 100 82 99 80 90
100 100 100 100 100 100 100 100 100 100 100 100 100 100 100 100 100 100 100 100 100 100 100 100 100 100 100 100 100 100 100 100 100 97 88 70 41 77 27 82 100 100 100
100 100 100 100 100 100 99 100 64 100 100 100 100 100 100 100 100 100 100 100 100 100 100 100 100 100 100 100 100 100 100 100 100 99 100 94 100 100 93 100 100 100 100
100 100 100 100 100 100 100 100 100 89 100 100 100 100 100 100 100 100 100 100 100 100 100 100 100 100 100 100 100 100 97 100 100 100 100 100 100 100 100 100 100 100 100
100 100 100 100 100 100 100 100 100 100 100 100 98 100 100 100 100 100 100 100 100 100 100 100 100 100 100 100 100 100 100 100 100 100 100 100 100 100 94 94 70 100 100
100 100 100 100 99 100 100 100 100 100 100 100 100 92 98 100 100 100 100 100 100 100 100 100 100 100 100 100 100 100 100 100 100 95 99 100 100 90 100 99 84 100 100
83 100 100 100 100 29 96 100 100 100 100 100 100 100 100 100 100 100 100 100 100 100 100 100 100 100 100 100 100 100 100 100 100 100 100 100 98 100 100 100 100 100 97
5 8 98 100 100 100 91 12 18 96 100 100 100 100 100 100 100 100 100 100 100 100 100 100 100 100 100 100 100 100 100 100 100 100 100 100 100 83 100 65 58 75 100
81 27 12 12 10 58 99 100 100 100 100 100 57 58 92 100 100 100 100 100 100 100 100 100 100 100 100 100 100 100 100 100 100 100 100 98 67 15 40 93 53 100 100
97 49 82 97 52 57 32 2 66 100 100 100 100 100 100 100 98 20 48 100 84 94 100 100 100 100 87 29 67 94 92 25 56 44 22 80 100 100 100 100 100 100 100
47 34 16 5 9 4 5 5 0 0 1 22 49 90 100 100 100 100 100 100 84 39 45 39 94 100 98 82 70 31 22 17 25 100 100 100 100 100 100 100 100 100 100
77 36 5 5 15 17 3 0 0 0 0 0 0 0 0 0 10 37 77 99 99 92 99 100 100 100 99 95 9 0 0 0 31 100 100 100 100 100 100 100 100 100 100
5 35 91 92 96 54 10 5 4 12 4 5 2 1 24 6 5 16 100 100 59 7 2 4 5 3 0 0 0 0 10 13 14 100 100 100 100 100 100 99 72 96 100
57 100 100 70 90 100 100 100 100 100 28 7 5 3 18 5 5 28 96 73 17 5 13 5 2 0 0 0 0 89 83 100 100 100 100 100 100 100 100 16 5 5 5
5 5 3 28 100 98 100 100 100 100 100 100 100 92 98 99 82 100 96 96 57 34 5 5 0 0 0 0 47 98 100 100 76 100 100 100 100 100 38 5 5 5 33
5 3 5 10 100 100 100 100 100 100 100 100 100 100 100 100 100 100 100 100 57 24 25 100 81 4 5 0 92 100 100 72 90 100 100 100 100 95 5 3 5 42 74
5 5 5 54 100 100 100 100 100 100 100 100 100 100 100 100 100 100 100 98 22 67 80 100 100 99 37 6 96 100 65 45 54 99 100 100 90 5 5 5 5 6 87
5 5 5 5 6 93 100 100 100 100 100 100 100 100 100 100 100 100 100 87 70 100 100 95 100 100 100 93 79 99 100 100 37 25 78 24 5 16 15 41 64 84 10
5 5 5 5 5 16 84 100 100 100 100 100 100 100 100 100 100 100 100 100 100 100 100 100 100 100 100 100 100 91 100 100 56 5 5 5 61 10 34 30 84 76 72
5 8 97 24 5 38 15 85 100 100 100 100 100 100 100 100 100 100 100 100 100 100 100 100 100 100 100 100 100 100 100 100 50 5 5 11 58 75 86 73 98 83 74
65 33 50 65 93 100 100 99 60 100 100 100 100 100 100 100 100 86 100 100 100 100 100 100 100 100 100 79 84 100 100 100 91 29 86 90 98 84 100 100 90 92 88
5 5 43 80 100 100 99 98 40 100 100 100 100 100 100 100 100 100 100 100 100 100 100 100 98 89 89 93 99 100 100 100 100 100 100 100 100 100 100 100 100 98 100

GFSMW_prec_cloud_081.txt.gz
Cloud_Cover
100 100 100 100 100 100 100 100 100 100 100 100 100 100 100 100 100 100 98 100 100 100 100 66 74 100 100 100 100 99 100 94 98 100 72 52 6 5 5 31 31 100 83
100 100 100 100 100 100 100 100 100 100 100 100 100 100 100 100 100 100 100 100 100 96 100 100 93 100 99 100 100 99 81 100 100 71 98 46 4 1 5 5 53 98 71
100 100 100 100 100 100 100 100 100 100 100 100 100 100 100 100 100 100 100 100 100 100 100 100 100 100 100 100 97 82 100 100 100 100 97 7 7 14 20 54 62 12 5
100 100 100 100 100 100 100 100 100 100 100 100 100 100 100 100 100 100 100 100 100 100 100 100 100 100 100 100 100 100 100 100 93 32 7 6 90 67 100 93 20 66 79
100 100 100 100 100 100 100 100 100 100 100 100 100 100 100 100 100 100 100 100 100 100 100 100 100 100 100 100 100 100 100 100 100 100 27 23 30 89 100 92 100 45 14
100 100 100 100 100 100 100 100 100 100 100 100 100 100 100 100 100 100 100 100 100 100 100 100 100 100 100 100 100 100 100 100 100 97 100 100 97 64 35 84 100 92 96
100 100 100 100 100 100 100 100 100 100 100 100 100 100 100 100 100 100 100 100 100 100 100 100 100 100 100 100 100 100 100 100 100 95 100 100 96 84 96 85 63 86 100
100 100 100 100 100 100 100 100 100 100 100 100 100 100 100 100 100 100 100 100 100 100 100 100 100 100 100 100 100 100 100 100 100 100 100 100 100 100 100 100 92 100 100
100 100 100 100 100 100 100 100 92 100 100 100 100 100 100 100 100 100 100 100 100 100 100 100 100 100 100 100 100 100 100 100 100 100 100 100 100 100 100 100 100 100 79
100 100 100 100 100 100 100 100 30 77 100 100 100 100 100 100 100 100 100 100 100 100 100 100 100 100 100 100 100 100 100 100 100 100 100 100 100 100 99 86 100 100 100
100 100 100 100 100 100 100 100 100 92 53 77 98 100 100 100 100 100 100 100 100 100 100 100 100 100 100 100 100 100 100 100 100 100 100 88 100 100 100 100 97 100 100
100 100 100 100 100 100 100 100 100 99 70 100 100 98 99 100 100 100 100 100 100 100 100 100 100 100 100 100 100 100 100 100 100 91 85 97 100 99 99 100 100 100 100
100 100 100 100 100 100 100 100 100 100 100 100 100 85 75 100 100 100 96 100 100 100 100 100 100 100 100 96 95 100 100 100 100 100 100 100 100 100 100 100 100 100 93
12 23 94 34 64 99 100 84 27 65 100 100 100 78 100 100 100 94 100 99 24 75 100 100 100 100 99 100 100 100 100 100 100 100 100 100 100 86 95 100 100 100 100
4 2 3 31 100 100 100 100 100 100 100 85 99 95 100 100 100 100 100 100 100 100 100 100 100 100 100 100 100 100 100 100 100 100 100 100 100 100 100 100 100 100 100
5 5 5 5 4 64 100 100 100 100 100 100 100 100 100 100 100 100 100 100 100 100 100 100 100 100 100 100 100 100 100 100 99 98 49 80 100 99 100 100 100 100 100
5 6 25 6 5 1 0 23 94 100 100 100 100 100 100 100 100 100 100 100 100 100 100 100 100 100 100 100 84 6 5 5 5 11 28 97 100 100 100 100 100 99 88
5 5 5 5 20 55 25 80 59 14 11 30 96 100 100 100 100 100 100 96 95 76 35 53 6 19 29 54 71 96 83 98 100 100 96 100 100 100 100 100 55 5 5
5 5 5 3 4 20 39 62 40 22 95 97 69 58 22 76 100 100 100 61 30 99 90 98 70 79 91 69 25 96 100 100 94 62 51 100 100 100 100 100 7 5 3
5 5 5 5 5 5 5 5 0 5 9 87 100 100 100 100 100 100 100 100 100 98 92 100 100 100 27 21 57 100 100 100 100 49 89 100 100 100 100 26 5 5 0
5 4 5 5 5 5 4 21 27 15 22 92 98 100 100 100 100 100 100 100 100 100 100 100 100 98 100 100 84 100 100 100 92 100 79 99 100 100 64 5 0 5 5
5 5 5 5 5 5 5 5 11 44 84 100 100 100 100 100 100 100 100 100 100 100 100 100 100 100 100 87 55 100 100 94 23 19 13 100 100 86 5 10 2 5 5
5 4 3 5 5 5 5 5 5 15 100 66 100 100 100 100 100 100 100 96 96 100 100 100 100 100 100 100 100 100 100 100 98 95 5 36 19 5 11 25 5 5 9
5 6 68 100 65 5 5 5 5 5 94 100 99 68 100 100 100 100 100 100 100 100 100 100 100 100 100 100 100 100 100 100 100 100 38 5 5 5 5 6 68 66 59
84 99 32 5 5 5 5 5 5 5 65 84 35 100 100 99 100 100 100 100 100 100 100 100 100 100 100 100 100 100 100 100 100 100 91 12 8 11 5 37 100 100 87
80 5 5 5 5 5 5 5 5 5 25 98 21 73 100 100 100 100 100 100 100 100 100 100 100 100 100 99 100 100 100 100 100 100 100 99 100 94 39 95 100 100 99

GFSMW_prec_cloud_084.txt.gz
Cloud_Cover
96 100 100 100 100 100 100 100 100 100 100 100 100 100 100 100 100 100 100 100 100 100 100 100 99 100 100 90 64 100 70 6 8 5 95 91 71 5 4 79 5 5 90
100 100 100 100 100 100 100 100 100 100 100 100 100 100 100 100 100 100 100 100 100 100 100 100 100 100 100 100 100 96 96 56 51 20 44 74 6 27 6 1 0 6 29
100 100 100 100 100 100 100 100 100 100 100 100 100 100 100 100 100 100 100 100 100 100 100 100 100 100 100 100 100 66 82 69 68 97 18 76 8 4 4 2 0 3 5
100 100 100 100 100 100 100 100 100 100 100 100 100 100 100 100 100 100 100 100 100 100 100 100 100 100 100 100 100 100 100 95 100 100 96 27 9 5 5 19 8 5 5
100 100 100 100 100 100 100 100 100 100 100 100 100 100 100 100 100 100 100 100 100 100 100 100 100 100 100 100 100 100 100 100 100 100 100 100 87 100 100 100 100 100 58
100 100 100 100 100 100 100 100 100 100 100 100 100 100 100 100 100 100 100 100 100 100 100 100 100 100 100 100 100 100 100 100 100 100 100 100 100 100 100 98 97 100 95
100 100 100 100 100 100 100 100 100 100 100 100 100 100 100 100 100 100 100 100 100 100 100 100 100 100 100 100 100 100 100 100 100 100 100 100 100 100 100 91 99 100 100
100 100 100 100 100 100 100 100 100 100 100 100 100 100 100 100 100 100 100 100 100 100 100 100 100 100 100 100 100 100 100 100 100 100 100 100 100 100 100 100 100 100 100
100 100 100 100 100 100 100 100 100 100 100 100 100 100 100 100 100 100 100 100 100 100 100 100 100 100 100 100 100 100 100 100 100 100 100 100 100 100 100 100 100 100 100
100 100 100 100 100 100 100 100 100 100 100 100 100 100 100 100 100 100 100 100 100 100 100 100 100 100 100 100 100 100 100 100 100 100 100 100 100 100 100 100 100 100 100
100 100 100 100 100 100 100 100 100 100 100 100 100 100 100 100 100 100 100 100 100 100 100 100 100 100 100 100 100 100 100 100 100 100 100 100 100 100 100 100 100 100 100
100 100 100 100 100 100 100 100 100 100 100 100 100 100 100 100 100 100 100 100 100 100 100 100 100 100 100 100 100 100 100 100 100 100 100 100 100 100 100 99 100 100 100
100 100 100 100 100 100 100 100 96 100 100 100 100 100 100 100 100 100 100 100 100 100 100 100 100 100 100 100 100 100 100 100 100 100 100 100 100 100 100 100 100 100 98
100 100 100 100 100 100 100 100 100 100 100 100 100 90 88 100 100 100 100 100 100 100 100 100 100 100 100 100 100 100 100 100 100 100 100 100 100 100 100 100 56 61 73
73 100 100 100 100 100 87 35 62 99 99 100 94 68 100 100 100 100 100 100 100 100 100 100 100 100 100 100 100 100 100 100 100 100 100 100 100 100 58 65 58 100 100
0 60 100 100 100 100 100 100 82 22 100 11 5 83 62 91 5 34 100 100 100 100 100 100 100 100 100 100 100 100 94 100 100 100 100 89 6 5 62 99 100 48 100
5 5 5 83 100 100 93 96 100 100 98 100 100 69 88 25 70 23 78 56 44 99 99 100 100 100 100 100 100 89 70 100 100 100 96 78 100 100 98 65 96 100 100
5 5 5 5 5 22 53 100 88 29 17 8 45 46 100 100 95 73 100 100 91 80 58 100 87 82 100 100 100 100 97 100 100 100 98 87 65 100 100 100 99 100 22
5 5 5 5 5 5 3 0 0 2 14 93 100 100 100 100 100 67 88 100 100 100 100 100 100 100 100 100 100 100 47 94 100 100 100 100 100 99 100 58 72 43 73
5 4 4 5 5 5 5 5 5 5 5 0 0 19 50 97 100 100 100 100 100 100 100 100 100 100 100 100 100 95 100 100 100 100 98 100 96 100 94 99 100 13 4
5 5 5 5 5 5 5 5 5 5 5 55 37 11 34 67 41 51 99 96 97 100 100 100 100 100 100 100 100 100 100 100 100 97 100 96 70 100 100 100 53 2 0
4 0 0 0 5 1 5 0 2 5 5 5 55 70 92 87 77 70 100 100 100 100 100 100 100 100 100 100 100 100 100 100 100 98 100 100 85 100 100 92 5 0 2
0 0 0 3 5 5 5 0 0 5 5 5 40 17 6 17 89 88 94 98 100 100 100 100 100 100 100 100 100 100 100 100 100 100 100 17 93 100 100 27 5 5 5
5 5 32 95 32 4 5 4 5 5 5 5 5 23 54 97 53 69 100 100 100 100 100 100 100 100 100 100 100 100 100 100 100 100 98 88 47 98 37 21 67 6 5
5 24 3 0 0 0 0 0 4 5 5 5 5 5 5 54 71 100 91 100 100 100 100 100 100 100 100 100 100 100 100 100 100 100 82 100 58 22 22 13 38 36 7
0 0 0 0 0 0 0 0 1 5 5 5 5 5 5 5 39 100 100 100 100 100 100 100 100 100 100 100 100 100 100 100 100 100 100 100 100 65 100 78 89 81 30

GFSMW_prec_cloud_087.txt.gz
Cloud_Cover
50 27 97 100 100 100 100 100 100 100 100 100 100 100 100 100 100 100 100 100 100 100 100 100 100 100 100 100 99 65 99 100 93 100 100 68 20 16 25 37 5 3 5
100 100 100 100 100 100 100 100 100 100 100 100 100 100 100 100 100 100 100 100 100 100 100 100 100 100 100 100 100 100 96 98 100 100 100 100 50 64 12 5 5 0 0
99 100 100 100 100 100 100 100 100 100 100 100 100 100 100 100 100 100 100 100 100 100 100 100 100 100 100 100 100 100 100 100 100 100 94 78 79 88 5 22 5 4 0
100 100 100 100 100 100 100 100 100 100 100 100 100 100 100 100 100 100 100 100 100 100 100 100 100 100 100 100 100 100 100 100 100 100 100 73 100 87 60 7 5 5 4
99 79 100 100 100 100 100 100 100 100 100 100 100 100 100 100 100 100 100 100 100 100 100 100 100 100 100 100 100 100 100 100 100 100 100 100 100 100 100 26 29 87 57
80 100 100 100 100 100 100 100 100 100 100 100 100 100 100 100 100 100 100 100 100 100 100 100 100 100 100 100 100 100 100 100 100 100 100 100 100 100 100 100 79 32 82
100 100 100 100 100 100 100 100 100 100 100 100 100 100 100 100 100 100 100 100 100 100 100 100 100 100 100 100 100 100 100 100 100 100 100 100 100 100 100 100 100 100 100
100 100 100 100 100 100 100 100 100 100 100 100 100 100 100 100 100 100 100 100 100 100 100 89 100 100 100 100 100 100 100 100 100 100 100 100 100 100 100 100 100 100 100
100 100 100 100 100 100 100 100 100 100 100 100 100 100 100 100 100 100 100 100 100 100 100 100 100 100 100 100 100 100 100 100 100 100 100 100 100 100 100 100 100 100 100
100 100 100 100 100 100 100 100 100 100 100 100 100 100 100 100 100 100 100 100 100 100 100 100 100 100 100 100 100 100 100 100 100 100 100 100 100 100 100 100 100 100 100
100 100 100 100 100 100 100 100 100 100 100 100 100 100 100 100 100 100 100 100 100 100 100 100 100 100 100 100 100 100 100 100 100 100 100 100 100 100 100 100 100 100 100
100 100 100 100 100 100 100 100 100 100 100 100 100 100 100 100 100 100 100 100 100 100 100 100 100 100 100 100 100 100 100 100 100 100 100 100 100 100 100 100 100 100 100
100 100 100 100 100 100 100 100 100 100 100 100 100 100 100 100 100 100 100 100 100 100 100 100 100 100 100 100 100 100 100 100 100 100 100 100 100 100 100 100 100 100 100
100 100 100 100 100 100 100 100 100 100 100 100 100 100 100 100 100 100 100 100 100 100 100 100 100 100 100 100 100 100 100 100 100 100 100 100 100 100 100 100 100 100 100
100 100 100 100 100 100 100 100 100 100 100 100 100 100 100 100 100 100 100 100 100 100 100 100 100 100 100 100 100 100 100 100 100 100 100 100 100 100 100 100 100 100 89
64 100 100 100 100 100 100 100 100 100 100 100 100 100 100 100 100 100 100 100 100 100 100 100 100 100 100 100 100 100 100 100 100 100 100 100 100 100 100 100 100 100 100
100 100 100 100 100 100 100 100 100 100 100 100 100 100 78 100 10 88 100 100 100 100 100 100 97 100 100 100 100 100 100 100 100 100 100 100 100 100 100 100 97 100 94
21 100 100 100 100 100 100 100 100 100 100 100 100 100 100 28 11 5 15 33 97 100 100 100 100 100 100 100 100 100 100 100 100 100 100 100 100 100 100 100 100 100 100
5 5 12 78 100 100 100 100 100 100 100 100 100 100 100 79 54 97 84 85 91 83 28 6 31 100 100 99 100 100 100 100 100 100 100 100 100 100 100 100 100 100 100
4 5 5 2 0 4 9 89 100 92 100 100 79 16 38 73 100 100 100 100 100 100 100 100 98 69 94 100 100 100 100 100 100 100 100 100 100 99 100 83 100 100 97
0 0 0 0 0 0 0 0 0 16 64 73 15 5 5 33 100 100 100 100 100 100 100 100 93 100 100 100 100 100 100 100 100 100 100 100 100 90 100 100 100 100 100
0 0 0 0 0 0 0 0 0 0 0 0 0 0 1 5 4 92 100 100 100 100 100 100 97 76 86 100 100 100 100 100 100 100 100 100 100 100 100 100 100 100 100
0 0 0 0 0 0 0 0 0 0 0 0 0 0 0 0 4 4 87 100 100 100 100 100 100 100 100 100 100 100 100 100 100 100 100 100 100 100 100 100 100 97 100
0 0 0 0 0 0 0 0 0 0 0 0 0 0 0 2 4 5 5 100 100 100 100 100 100 100 100 100 100 100 100 100 100 100 100 100 100 100 100 100 100 100 36
0 0 0 0 0 0 0 0 0 0 0 0 0 0 0 2 3 5 5 7 60 100 100 100 100 100 100 100 100 100 100 100 100 100 100 100 100 100 100 100 96 99 29
0 0 0 0 0 0 0 0 0 0 1 5 5 5 5 5 5 5 5 6 59 100 100 100 100 100 100 100 100 100 100 100 100 100 100 100 100 100 100 100 100 100 86

GFSMW_prec_cloud_090.txt.gz
Cloud_Cover
96 0 7 0 0 5 81 100 100 100 100 100 100 100 100 100 100 100 100 100 100 100 100 100 100 100 100 100 100 100 100 100 100 100 95 97 91 100 98 54 43 100 91
13 0 7 2 24 51 90 100 100 100 100 100 100 100 100 100 100 100 100 100 100 100 100 100 100 100 100 100 100 100 100 100 100 100 99 100 100 85 100 100 100 100 92
0 0 90 84 60 8 100 100 100 100 100 100 100 100 100 100 100 100 100 100 100 100 100 100 100 100 100 100 92 100 100 100 100 100 100 100 100 100 100 100 86 25 25
0 0 78 71 87 38 100 100 100 100 100 100 100 100 100 100 100 100 100 100 100 100 100 100 100 100 100 100 96 100 100 100 100 100 100 100 100 100 100 85 100 22 5
0 37 100 100 100 100 100 100 100 100 100 100 100 100 100 100 100 100 100 100 100 100 100 100 100 100 100 100 100 100 100 100 100 100 100 100 100 100 100 97 100 90 37
46 42 100 100 100 100 100 100 100 100 100 100 100 100 100 100 100 100 100 100 100 100 100 100 100 100 100 100 100 100 100 100 100 100 100 100 100 100 100 100 100 100 99
100 98 94 100 100 100 100 100 100 100 100 100 100 100 100 100 100 100 100 100 100 100 100 100 100 100 100 100 100 100 100 100 100 100 100 100 100 100 100 100 100 100 100
100 100 100 97 100 100 100 100 100 100 100 100 100 100 100 100 100 100 100 100 100 100 100 100 100 100 100 100 100 100 100 100 100 100 100 100 100 100 100 100 100 100 100
100 100 100 100 100 100 100 100 100 100 100 100 100 100 100 100 100 100 100 100 100 100 100 100 100 100 100 100 100 100 100 100 100 100 100 100 100 100 100 100 100 100 100
100 100 100 100 100 100 100 100 100 100 100 100 100 100 100 100 100 100 100 100 100 100 100 100 100 100 100 100 100 100 100 100 100 100 100 100 100 100 100 100 100 100 100
100 100 100 100 100 100 100 100 100 100 100 100 100 100 100 100 100 100 100 100 100 100 100 100 100 100 100 100 100 100 100 100 100 100 100 100 100 100 100 100 100 100 100
100 100 100 100 100 100 100 100 100 100 100 100 100 100 100 100 100 100 100 100 100 100 100 100 100 100 100 100 100 100 100 100 100 100 100 100 100 100 100 100 100 100 100
100 100 100 100 100 100 100 100 100 100 100 100 100 100 100 100 100 100 100 100 100 100 100 100 100 100 100 100 100 100 100 100 100 100 100 100 100 100 100 100 100 100 100
100 100 100 100 100 100 100 100 100 100 100 100 100 100 100 100 100 100 100 100 100 100 100 100 100 100 100 100 100 100 100 100 100 100 100 100 100 100 100 100 100 100 100
100 100 100 100 100 100 100 100 100 100 100 100 100 100 100 100 100 100 100 100 100 100 100 100 100 100 100 100 100 100 100 100 100 100 100 100 100 100 100 100 100 100 100
66 66 100 100 100 100 100 100 100 100 100 100 100 100 100 100 100 100 100 100 100 100 100 100 100 100 100 100 100 100 100 100 100 100 100 100 100 100 100 100 100 100 100
5 10 100 100 100 100 100 100 100 100 98 100 100 100 100 100 100 100 100 100 100 100 100 100 100 100 100 100 100 100 100 100 100 100 100 100 100 100 100 100 100 100 100
98 44 72 100 100 100 100 100 100 100 97 100 100 100 100 100 100 95 99 100 100 100 100 100 82 100 100 100 100 100 56 100 100 100 100 100 100 100 100 100 100 100 100
21 10 75 100 100 100 100 100 100 100 100 100 100 100 100 100 100 100 100 100 100 100 100 100 100 100 100 100 93 46 86 100 100 100 100 100 100 100 100 100 100 100 100
0 10 98 8 17 97 100 100 100 100 100 100 100 100 99 50 45 87 97 100 100 100 100 100 100 100 96 100 100 47 79 100 100 100 100 100 100 100 100 100 100 100 100
0 0 5 68 74 93 100 53 24 100 100 100 100 95 30 12 5 9 57 90 100 100 98 100 100 100 100 100 99 91 100 100 100 100 100 100 100 100 100 100 100 100 100
0 0 0 0 0 2 2 2 3 3 0 3 5 5 37 20 4 4 1 4 55 100 100 100 100 100 100 100 100 100 100 100 100 100 100 100 100 100 100 100 100 100 100
0 0 0 0 0 0 0 0 0 0 0 0 0 0 0 0 0 0 0 0 5 82 100 100 100 100 100 100 100 100 100 100 100 100 100 100 100 99 100 100 100 100 100
0 0 0 0 0 0 0 0 0 0 0 0 0 0 0 0 0 0 0 5 5 5 12 100 100 100 100 100 100 100 100 100 100 100 100 100 100 100 100 100 100 100 100
0 0 0 0 0 0 0 0 0 0 0 0 0 0 0 0 0 0 5 5 17 37 84 100 100 100 100 100 100 100 100 100 100 100 100 100 100 100 100 100 100 100 100
0 0 0 0 0 0 0 0 0 0 0 0 0 0 4 5 5 5 5 5 5 18 100 100 100 100 100 100 100 100 100 100 100 100 100 100 100 100 100 100 100 100 100

GFSMW_prec_cloud_093.txt.gz
Cloud_Cover
0 2 3 4 0 8 7 4 0 2 34 8 100 100 100 100 100 100 100 100 100 87 100 100 100 100 100 100 100 100 100 100 100 100 100 100 100 97 98 82 100 100 100
0 0 0 4 2 7 5 0 0 2 98 24 100 100 100 100 100 100 100 100 100 100 100 100 100 100 100 100 100 100 100 100 100 100 100 100 100 100 84 100 100 99 100
0 0 12 9 19 15 34 27 1 5 66 48 100 100 100 100 100 100 100 100 100 100 100 100 100 100 100 100 100 100 100 100 100 100 100 100 100 100 100 100 100 93 100
52 7 6 10 96 25 65 53 44 95 89 100 100 100 100 100 100 100 100 100 100 100 100 100 100 100 100 100 100 100 100 100 100 100 100 100 100 100 100 100 100 100 98
100 0 26 48 100 94 99 100 75 99 100 100 100 100 100 100 100 100 100 100 100 100 100 100 100 100 100 100 100 100 100 100 100 100 100 100 100 100 100 100 100 100 100
100 21 88 100 100 100 56 100 100 100 100 100 100 100 100 100 100 100 100 100 100 100 100 100 100 100 100 100 100 100 100 100 100 100 100 100 100 100 100 100 100 100 100
81 52 88 100 100 100 100 97 79 100 100 100 100 100 100 100 100 100 100 100 100 100 100 100 100 100 100 100 100 100 100 100 100 100 100 100 100 100 100 100 100 100 100
88 95 100 100 100 100 100 99 89 100 100 100 100 100 100 100 100 100 100 100 100 100 100 100 100 100 100 100 100 100 100 100 100 100 100 100 100 100 100 100 100 100 100
100 100 100 100 100 100 100 74 100 100 100 100 100 100 100 100 100 100 100 100 100 100 100 100 100 100 100 100 100 100 100 100 100 100 100 100 100 100 100 100 100 100 100
100 100 100 100 100 100 100 100 100 100 100 100 100 100 100 100 100 100 100 100 100 100 100 100 100 100 100 100 100 100 100 100 100 100 100 100 100 100 100 100 100 100 94
100 100 100 100 100 100 100 100 100 100 100 100 100 100 100 100 100 100 100 100 100 100 100 100 100 100 100 100 100 100 100 100 100 100 100 100 100 100 100 100 100 100 100
100 100 100 100 100 100 100 100 100 100 100 100 100 100 100 100 100 100 100 100 100 100 100 100 100 100 100 100 100 100 100 100 100 100 100 100 100 100 100 100 100 100 100
100 100 100 100 100 100 100 100 100 100 100 100 100 100 100 100 100 100 100 100 100 100 100 100 100 100 100 100 100 100 100 100 100 100 100 100 100 100 100 100 100 100 100
100 100 100 100 100 100 100 100 100 100 100 100 100 100 100 100 100 100 100 100 100 100 100 100 100 100 100 100 100 100 100 100 100 100 100 100 100 100 100 100 100 100 98
97 100 100 100 100 100 100 100 100 100 100 100 100 100 100 100 100 100 100 100 100 100 100 100 100 100 100 100 100 100 100 100 100 100 100 100 100 100 100 100 100 100 100
34 5 58 84 100 100 100 100 100 100 100 100 100 100 100 100 100 100 100 100 100 100 100 100 100 100 100 100 100 100 100 100 100 100 100 100 100 100 100 100 100 100 100
23 93 93 57 96 100 100 100 100 100 100 100 100 100 100 100 100 100 100 100 100 100 100 100 100 100 100 100 100 100 100 100 100 100 100 100 100 100 100 100 100 100 100
8 20 7 6 28 97 99 100 100 100 100 100 85 95 100 100 100 100 100 100 100 100 100 100 100 100 100 100 100 100 100 100 100 100 100 100 100 100 100 100 100 100 100
3 3 5 24 11 93 90 89 100 100 100 78 100 100 99 88 100 100 100 98 100 99 100 100 100 100 100 100 100 100 100 100 69 78 100 100 100 100 100 100 100 100 100
10 88 100 100 76 100 56 4 100 100 100 100 100 100 100 100 98 98 98 100 100 82 100 100 100 100 100 100 100 100 100 100 100 98 100 100 100 100 100 100 100 100 100
0 0 2 0 3 3 84 100 100 100 100 100 100 100 74 99 98 100 73 5 7 4 38 78 100 99 97 100 100 100 100 100 100 100 100 100 100 100 100 100 100 100 100
0 0 0 0 0 0 0 0 0 2 0 1 0 0 1 1 0 0 1 8 2 0 5 5 44 100 100 100 100 100 100 100 100 100 100 100 100 100 100 100 100 100 100
0 0 0 0 0 0 0 0 0 0 0 0 0 0 0 0 0 0 0 0 0 1 1 5 5 60 100 100 100 100 100 100 100 100 100 100 100 100 100 100 100 100 100
3 5 4 4 0 0 0 0 0 0 0 0 0 0 0 0 0 0 0 2 5 5 8 35 16 21 90 100 100 100 100 100 100 100 100 100 100 100 100 100 100 100 100
0 0 0 0 0 0 0 0 0 0 0 0 0 0 0 0 0 2 5 5 5 8 82 82 100 100 100 97 100 100 100 100 100 100 100 100 100 100 100 100 100 100 100
0 0 0 0 0 0 0 0 0 0 0 0 0 0 0 0 0 5 5 5 5 15 22 71 100 100 100 100 100 100 100 100 100 100 100 100 100 100 100 100 100 100 100

GFSMW_prec_cloud_096.txt.gz
Cloud_Cover
0 5 96 100 70 5 64 99 66 100 83 100 100 93 74 81 100 76 100 100 100 100 89 100 100 100 100 100 100 100 100 100 100 100 100 100 100 100 100 100 100 100 100
0 4 5 52 100 100 100 100 100 82 81 100 90 10 29 70 32 100 100 100 100 100 100 100 100 100 100 100 100 100 100 100 100 100 100 100 100 100 100 100 100 100 100
0 0 2 18 84 100 74 100 100 97 100 100 47 30 68 70 100 100 100 100 100 100 100 100 100 100 100 100 100 100 100 100 100 100 100 100 100 100 100 95 99 100 100
0 28 32 58 35 71 91 100 100 91 100 100 30 43 10 100 100 100 100 100 100 100 100 100 100 100 100 100 100 100 100 100 100 100 100 100 100 100 100 100 100 100 100
79 96 95 45 38 41 45 68 99 100 100 100 66 97 78 83 100 100 100 100 100 100 100 100 100 100 100 100 100 100 100 100 100 100 100 100 100 100 100 100 99 100 100
100 97 79 99 100 56 97 20 68 74 77 100 100 100 99 99 97 79 100 100 100 100 100 100 100 100 100 100 100 100 100 100 100 100 100 100 100 100 100 100 99 100 100
100 100 100 100 100 100 100 100 16 52 96 100 100 100 100 100 100 100 100 100 100 100 100 100 100 100 100 100 100 100 100 100 100 100 100 100 100 100 100 99 100 100 100
100 100 100 100 100 95 100 100 100 62 38 100 100 100 100 100 100 100 100 100 100 100 100 100 100 100 100 100 100 100 100 100 100 100 100 100 100 100 100 100 100 100 100
100 100 100 100 100 100 100 100 100 90 100 100 100 100 100 100 100 100 100 100 100 100 100 100 100 100 100 100 100 100 100 100 100 100 100 100 100 100 100 100 100 100 100
100 100 100 100 100 100 100 100 100 100 100 100 100 100 100 100 100 100 100 100 100 100 100 100 100 100 100 100 100 100 100 100 100 100 100 100 100 100 100 100 100 100 100
100 100 100 100 100 100 100 100 100 100 100 100 100 100 100 100 100 100 100 100 100 100 100 100 100 100 100 100 100 100 100 100 100 100 100 100 100 100 100 100 100 100 100
100 100 100 100 100 100 100 100 100 100 100 100 100 100 100 100 100 100 100 100 100 100 100 100 100 100 100 100 100 100 100 100 100 100 100 100 100 100 100 100 100 100 100
100 100 100 100 100 100 100 100 100 100 100 100 100 100 100 100 100 100 100 100 100 100 100 100 100 100 100 100 100 100 100 100 100 100 100 100 100 100 100 100 100 100 100
100 100 100 98 100 99 100 100 100 100 100 100 100 100 100 100 100 100 100 100 100 100 100 100 100 100 100 100 100 100 100 100 100 100 100 100 100 100 100 100 100 100 100
85 100 100 100 98 45 100 100 100 100 100 100 100 100 100 100 100 100 100 100 100 100 100 100 100 100 100 100 100 100 100 100 100 100 100 100 100 100 100 100 100 100 100
12 4 5 99 30 75 30 0 100 100 100 30 100 100 100 100 100 100 100 100 100 100 100 100 100 100 100 100 100 100 100 100 100 100 100 100 100 100 100 100 100 100 100
5 5 5 5 9 28 45 92 31 100 100 100 100 100 100 100 100 100 100 100 100 100 100 100 100 100 100 100 100 100 100 100 100 100 100 100 100 100 100 100 100 100 100
3 4 4 2 1 0 2 2 20 100 100 100 100 100 100 100 100 100 100 100 100 100 100 100 100 100 100 100 100 100 100 100 100 100 100 100 100 100 100 100 100 100 100
5 4 4 5 4 5 5 32 75 14 98 88 98 100 100 100 100 100 100 100 100 100 100 100 100 100 100 100 100 100 100 100 100 100 100 100 100 100 100 100 100 100 100
0 0 0 0 0 5 7 50 60 65 100 100 94 99 74 96 100 100 100 97 99 100 100 100 100 100 100 100 100 100 100 100 100 100 100 100 100 100 100 100 100 100 100
0 0 5 5 5 5 4 5 5 18 98 100 100 100 100 74 95 100 100 100 100 90 100 100 99 95 68 96 100 100 100 100 100 100 100 100 100 100 100 100 100 100 100
0 0 0 0 0 0 0 0 0 0 0 1 6 2 1 1 3 6 5 4 4 3 0 4 4 5 5 5 30 100 100 100 100 100 100 100 100 100 100 100 100 100 100
0 0 0 0 0 0 0 0 0 0 0 0 0 0 0 0 0 0 0 0 0 0 3 5 5 5 5 5 5 8 100 100 100 100 100 100 100 100 100 100 100 100 100
3 3 0 0 0 0 4 1 4 3 0 0 0 0 0 0 0 0 0 1 4 5 5 5 5 11 5 38 18 9 10 100 100 100 100 100 100 100 100 100 100 100 100
88 42 5 5 4 5 5 5 3 3 0 4 4 0 0 0 0 0 3 5 5 5 5 15 67 100 99 74 98 100 100 100 100 100 100 100 100 100 100 100 100 100 100
93 68 37 8 10 5 5 5 5 0 3 1 0 0 0 0 0 3 5 5 5 5 8 19 68 71 100 100 100 100 100 100 96 100 100 100 100 100 100 100 100 100 100

GFSMW_prec_cloud_099.txt.gz
Cloud_Cover
0 0 0 6 100 95 17 100 100 100 100 100 100 98 96 48 91 100 74 86 8 100 100 100 100 100 100 100 100 100 100 100 100 100 100 100 100 100 100 100 100 100 100
0 0 0 0 5 95 27 96 100 100 100 100 100 94 62 99 22 24 94 92 78 99 91 100 99 99 100 100 100 100 100 100 100 100 100 100 100 100 100 100 100 100 100
0 0 0 27 66 73 94 29 100 100 100 100 100 100 100 100 78 76 74 27 100 100 96 91 100 100 100 100 100 100 100 100 100 100 100 100 100 100 100 100 100 100 100
5 26 92 100 100 100 100 100 100 100 100 100 100 100 100 100 73 99 70 99 100 100 100 100 96 100 100 100 100 100 100 100 100 100 100 100 100 100 100 100 100 100 100
100 25 72 100 100 100 100 99 100 100 100 100 100 100 100 100 100 100 54 100 100 100 100 100 100 100 100 100 100 100 100 100 100 100 100 100 100 100 100 100 100 100 100
100 100 97 76 100 100 100 100 100 100 100 100 100 100 100 100 100 100 94 100 77 96 100 100 100 100 100 100 100 100 100 100 100 100 100 100 100 100 100 100 100 100 100
100 100 100 100 100 100 100 100 100 100 100 100 99 100 100 100 100 100 100 100 97 95 100 100 100 100 100 100 100 100 100 100 100 100 100 100 100 100 100 100 99 100 100
100 100 100 100 100 100 100 98 100 100 76 95 99 100 100 100 100 100 100 100 100 100 100 100 100 100 100 100 100 100 100 100 100 100 100 100 100 100 100 100 100 100 100
100 100 100 100 100 100 100 100 100 100 97 100 100 100 100 100 100 100 100 100 100 90 100 100 100 100 100 100 100 100 100 100 100 100 100 100 100 100 100 100 100 100 100
100 100 100 100 100 100 100 100 100 100 100 100 100 100 100 100 100 100 100 100 100 100 100 100 100 100 100 100 100 100 100 100 100 100 100 100 100 100 100 100 100 100 100
100 100 100 100 100 100 100 79 100 99 100 100 100 100 100 100 100 100 100 100 100 100 100 100 100 100 100 100 100 100 100 100 100 100 100 100 100 100 100 100 100 100 100
100 100 100 100 100 100 100 100 100 100 100 100 100 100 100 100 100 100 100 100 100 100 100 100 100 100 100 100 100 100 100 100 100 100 100 100 100 100 100 100 100 100 100
100 100 100 100 100 100 100 100 100 100 100 100 100 100 100 100 100 100 100 100 100 100 100 100 100 100 100 100 100 100 100 100 100 100 100 100 100 100 100 100 100 100 100
100 100 100 100 100 99 100 100 100 100 100 100 100 100 100 100 100 100 100 100 100 100 100 100 100 100 100 100 100 100 100 100 100 100 100 100 100 100 100 100 100 100 100
100 68 10 24 18 91 75 89 98 100 100 100 100 100 100 100 100 100 100 100 100 100 100 100 100 100 100 100 100 100 100 100 100 100 100 100 100 100 100 100 100 100 100
32 58 38 94 5 5 12 2 4 1 58 94 100 100 100 100 100 100 100 100 100 100 100 100 100 100 100 100 100 100 100 100 100 100 100 100 100 100 100 100 100 100 100
4 5 5 5 5 4 4 5 5 10 5 5 88 99 100 100 100 100 100 100 100 100 100 100 100 100 100 100 100 100 100 100 100 100 100 100 100 100 100 100 100 100 100
5 5 5 0 0 0 0 0 0 0 36 72 100 100 100 100 100 100 100 100 100 100 100 100 100 100 100 100 100 100 100 100 100 100 100 100 100 100 100 100 100 100 100
5 2 0 0 0 0 0 0 0 0 4 5 29 10 85 100 100 100 100 98 37 97 100 100 100 100 100 100 100 100 100 100 100 100 100 100 100 100 100 100 100 100 100
2 0 0 0 0 0 0 0 3 5 12 56 36 5 25 86 31 18 7 57 98 100 100 100 100 100 100 100 100 100 100 100 100 100 100 100 100 100 100 100 100 100 100
0 0 0 0 2 2 2 0 5 8 10 13 14 61 93 92 97 98 99 100 100 100 27 10 43 66 78 64 24 15 30 100 100 100 100 100 100 100 100 100 100 100 100
0 0 2 0 0 0 0 5 5 5 24 17 6 2 0 0 0 3 4 4 10 32 29 3 4 5 4 5 5 5 32 80 100 100 100 100 100 100 85 100 100 100 100
5 5 5 5 5 5 5 5 5 5 5 0 0 0 2 5 5 5 0 4 0 0 5 5 5 5 5 5 5 5 19 93 80 99 100 100 100 100 97 100 100 100 100
5 5 5 16 54 92 92 100 11 2 0 0 0 4 5 5 5 5 0 1 5 5 5 6 38 16 78 54 13 53 100 100 100 37 96 100 100 100 100 100 100 100 100
5 5 5 5 46 31 5 5 5 5 5 5 3 5 5 5 5 4 3 4 5 8 26 11 38 32 43 32 100 100 100 100 100 100 77 88 100 100 100 100 100 100 100
100 98 95 86 58 34 22 5 5 5 5 5 5 5 5 5 5 5 5 5 5 64 6 16 82 39 41 76 100 100 100 100 100 100 100 94 100 100 100 100 100 100 100

GFSMW_prec_cloud_102.txt.gz
Cloud_Cover
0 0 0 0 0 73 100 100 78 97 64 98 100 100 100 99 100 97 40 22 63 39 99 100 89 86 30 41 100 100 100 100 100 100 100 100 100 100 100 100 100 100 100
0 0 0 0 0 1 100 100 92 55 100 100 100 61 51 86 96 100 100 100 19 10 14 22 37 94 88 99 88 100 100 100 100 86 99 99 100 100 100 100 100 100 100
5 4 0 0 0 4 24 71 90 51 100 100 100 100 100 100 100 100 99 81 100 87 88 86 99 55 100 100 100 100 100 100 100 100 100 100 100 100 100 100 100 100 100
0 0 0 0 0 28 59 38 44 60 98 100 100 100 100 100 100 100 100 100 100 100 100 100 100 100 100 100 100 100 100 100 100 100 100 100 100 100 100 100 100 100 100
100 83 79 99 100 100 96 47 99 99 100 100 100 100 100 100 100 100 100 100 100 100 100 100 100 100 100 100 100 100 100 100 88 99 100 100 100 100 100 100 100 100 100
100 100 100 100 100 100 97 82 99 100 100 100 100 100 100 100 100 100 100 100 100 100 100 100 100 100 100 100 100 100 100 100 100 100 100 100 100 100 100 100 100 100 100
100 100 100 100 100 100 100 100 78 87 100 84 100 100 96 100 100 100 100 100 100 100 100 100 100 100 100 100 100 100 100 100 100 100 100 100 100 100 100 100 100 100 100
100 100 100 100 100 100 100 100 100 100 100 100 98 85 100 100 100 100 100 100 100 100 100 100 100 100 100 100 100 100 100 100 100 100 100 100 100 100 100 100 100 100 100
100 100 100 100 100 100 100 100 100 100 100 100 100 100 100 100 100 100 100 100 100 100 100 100 100 100 100 100 100 100 100 100 100 100 100 100 100 100 100 100 100 100 100
100 100 100 100 100 100 100 100 100 100 100 100 100 100 100 100 100 100 100 100 100 100 100 100 100 100 100 100 100 100 100 100 100 100 100 100 100 100 100 100 100 100 100
100 100 100 100 100 100 100 100 100 100 100 100 100 100 100 100 100 100 100 100 100 100 100 100 100 100 100 100 100 100 100 100 100 100 100 100 100 100 100 100 100 100 100
100 100 100 100 100 100 100 100 100 100 100 100 100 100 100 100 100 100 100 100 98 100 100 100 100 100 100 100 100 100 100 100 100 100 100 100 100 100 100 100 100 100 100
100 100 100 100 100 100 100 100 100 100 100 100 100 100 100 100 100 100 100 100 100 100 100 100 100 100 100 100 100 100 100 100 100 100 100 100 100 100 100 100 100 100 100
100 100 100 100 100 100 100 100 100 100 100 100 100 100 100 100 100 100 100 100 100 100 100 100 100 100 100 100 100 100 100 100 100 100 100 100 100 100 100 100 100 100 100
62 28 75 100 96 100 100 100 100 100 100 100 100 100 100 100 100 100 100 100 100 100 100 100 100 100 100 100 100 100 100 100 100 100 100 100 100 100 100 100 100 100 100
5 43 66 65 54 28 31 59 77 65 6 21 100 100 100 100 100 100 100 100 100 100 100 100 100 100 100 100 100 84 99 100 100 100 100 100 100 100 100 100 100 100 100
4 4 5 5 5 0 0 0 3 3 11 14 59 93 100 100 100 100 44 76 100 93 89 100 100 100 100 100 100 100 100 100 100 100 100 100 100 100 100 100 100 100 100
5 5 5 2 0 0 0 0 0 0 0 0 0 0 0 12 17 5 27 5 52 85 98 100 79 83 97 96 100 100 95 80 100 100 100 100 100 100 100 100 100 100 100
4 5 0 0 0 0 0 0 0 0 0 0 0 0 0 1 2 10 20 48 23 26 32 30 78 45 7 55 75 72 74 100 97 100 100 100 100 100 100 100 100 100 100
5 0 0 0 0 0 0 0 0 4 4 5 5 8 13 14 8 5 5 6 5 46 25 6 5 5 5 48 40 73 88 95 100 100 100 100 100 100 100 100 100 100 100
5 3 2 5 1 0 2 3 5 5 5 21 53 59 40 48 85 24 46 85 84 71 47 81 55 8 5 5 5 5 5 5 9 21 38 35 100 100 100 100 100 97 100
5 5 5 5 5 5 5 5 5 5 5 5 5 5 4 5 5 5 5 10 7 10 5 5 5 5 5 5 5 7 36 41 100 100 98 73 94 100 100 100 100 100 100
34 5 13 15 6 38 40 9 7 9 54 50 5 5 3 0 4 1 0 0 0 5 5 5 5 5 5 5 5 12 68 98 100 100 100 100 58 42 100 100 100 100 100
100 100 100 100 94 78 91 96 68 27 7 12 44 36 11 28 17 5 5 5 5 5 8 29 9 8 6 5 5 5 87 100 100 100 100 100 88 12 22 100 100 100 100
100 100 100 100 100 100 100 100 90 95 100 100 74 75 30 5 7 5 5 20 5 61 100 100 100 100 98 34 70 92 100 100 100 100 100 100 100 100 74 100 100 100 100
100 100 100 100 100 100 100 98 100 84 54 5 5 5 8 5 12 42 78 12 79 64 35 10 55 93 100 100 100 100 92 100 100 100 100 100 100 100 100 100 100 100 100

GFSMW_prec_cloud_105.txt.gz
Cloud_Cover
0 0 0 0 0 0 0 4 83 5 70 100 100 100 100 100 84 100 100 99 100 74 44 29 100 100 100 100 100 100 98 54 100 100 100 100 100 100 100 100 93 98 91
0 0 0 0 0 0 0 2 100 5 42 100 100 90 75 37 9 89 100 97 96 72 97 65 100 100 100 67 41 10 39 49 67 100 100 100 100 100 100 100 100 100 100
84 36 0 0 0 0 0 0 100 86 12 100 68 61 86 100 100 99 100 100 100 95 65 67 68 76 49 46 21 46 92 50 57 100 100 100 100 100 100 100 100 100 100
98 80 76 7 0 0 0 2 99 32 93 100 98 100 97 100 100 86 100 100 100 100 100 100 67 65 68 99 67 73 96 100 100 100 100 100 100 100 100 100 100 100 100
90 100 100 100 98 100 92 1 73 100 89 70 98 100 100 100 100 100 93 100 100 27 78 100 100 100 100 100 100 99 98 100 100 100 100 100 100 100 100 100 100 100 100
100 83 100 100 100 100 100 100 99 99 100 99 100 100 100 100 100 100 100 100 100 100 100 100 100 100 100 100 100 100 100 100 100 100 100 100 100 100 100 100 100 100 100
100 100 100 100 100 100 100 100 100 100 100 100 100 100 100 100 100 100 100 100 100 100 100 100 100 100 100 100 97 100 100 100 100 100 100 100 100 100 100 96 100 100 100
100 100 100 100 100 100 100 100 100 100 100 100 100 100 100 100 100 100 100 100 100 100 100 100 100 100 100 100 100 100 100 100 100 100 100 100 100 100 100 98 100 100 100
100 100 100 100 100 100 100 100 100 100 100 100 100 100 100 100 100 100 100 100 100 100 100 100 100 100 78 100 100 100 100 100 100 100 100 100 100 100 100 100 100 100 100
100 100 100 100 100 100 100 100 100 100 100 100 100 100 100 100 100 100 100 100 100 100 100 100 100 100 100 100 100 100 100 100 100 100 100 100 100 100 100 100 100 100 100
100 100 100 100 100 100 100 100 100 100 100 100 100 100 100 100 100 100 100 100 100 100 100 100 100 100 100 100 100 100 100 100 100 100 100 100 100 100 100 100 100 100 100
100 100 100 100 100 100 100 100 100 100 100 100 100 100 100 100 100 100 100 100 100 100 79 100 100 92 100 100 100 100 100 100 100 100 100 100 100 100 100 100 100 100 100
100 100 100 100 100 100 100 100 100 100 100 97 99 100 100 100 100 100 100 100 100 100 100 100 100 100 100 100 100 100 100 100 100 100 100 100 100 100 100 100 100 100 100
100 40 94 100 100 100 100 100 100 100 100 100 100 100 100 100 100 100 100 100 100 100 100 100 100 100 100 100 100 100 100 100 100 100 100 100 100 100 100 100 100 100 100
2 6 13 26 26 52 100 100 100 100 100 100 100 100 88 100 100 100 100 100 100 100 100 100 100 100 100 100 100 100 100 100 100 100 100 100 100 100 100 100 100 100 100
5 4 2 3 5 3 5 99 100 100 100 100 100 100 100 100 100 100 100 100 100 100 100 100 100 100 100 100 100 100 100 100 100 100 100 100 100 100 100 100 100 100 100
5 5 5 5 5 0 0 0 0 1 2 2 5 51 93 10 60 56 83 97 61 95 54 73 100 100 90 91 96 100 100 100 100 100 100 100 100 100 100 100 100 100 100
5 5 5 5 0 0 0 0 0 0 0 0 0 0 0 0 2 5 4 8 14 26 47 38 6 56 84 19 18 5 32 100 56 67 100 100 100 100 100 100 100 100 100
5 5 5 2 0 0 0 0 0 0 0 0 0 0 0 0 0 0 0 0 3 0 0 0 0 0 0 4 5 5 5 5 4 11 78 97 81 96 100 100 100 100 100
5 5 5 5 39 6 5 5 5 5 0 0 0 0 0 0 5 5 5 5 5 5 33 55 22 32 50 12 16 55 94 84 9 22 5 5 10 18 100 100 100 100 100
0 4 5 5 5 5 5 5 5 5 5 5 5 5 5 5 5 7 56 95 84 75 5 5 0 4 5 5 5 5 5 16 26 55 29 17 9 38 100 88 92 100 100
0 0 3 5 5 5 5 5 5 5 5 41 64 70 12 5 5 5 5 4 3 5 5 5 5 5 5 5 5 5 57 71 97 100 100 100 100 100 100 100 69 62 98
5 5 5 26 67 95 97 97 97 100 100 85 37 5 5 3 0 5 5 5 5 5 5 42 79 12 13 7 5 5 5 12 100 100 100 100 100 100 100 100 76 24 90
100 94 80 73 68 78 98 100 100 100 100 100 52 5 5 5 5 5 5 5 7 37 80 38 80 67 87 66 5 5 7 29 92 96 92 87 99 94 92 95 37 66 100
100 100 100 100 100 75 66 90 85 95 99 71 75 65 6 5 14 10 63 94 95 100 100 100 100 95 77 54 19 93 66 90 83 100 60 50 67 12 91 98 100 100 100
100 100 100 100 100 100 100 100 100 100 100 100 100 100 100 100 95 100 99 100 100 100 98 100 100 100 100 94 88 97 80 100 86 94 83 7 5 5 98 100 100 94 100

GFSMW_prec_cloud_108.txt.gz
Cloud_Cover
0 0 0 0 0 0 0 0 0 0 0 0 72 100 100 100 100 97 66 28 83 100 100 100 100 100 100 100 100 75 100 100 100 100 68 87 57 100 100 100 99 81 99
0 0 0 0 0 0 0 0 0 0 29 53 95 100 100 100 93 76 100 100 92 100 100 100 100 100 100 100 100 100 100 100 100 86 48 55 39 92 80 100 100 100 100
100 86 19 27 29 7 0 0 0 0 42 99 96 100 100 98 97 100 99 95 88 100 100 100 100 100 96 88 100 100 82 93 72 55 70 98 96 5 39 46 62 100 99
16 52 78 70 96 40 2 7 30 1 71 100 88 100 99 100 100 97 96 99 76 100 100 100 100 100 100 100 100 93 100 85 50 79 39 94 99 44 99 99 100 95 88
94 100 100 99 100 62 100 70 35 5 3 66 64 80 85 95 99 87 100 100 90 70 82 100 100 100 100 100 100 100 95 99 100 100 100 100 93 100 100 95 99 98 100
100 100 100 100 100 100 100 100 100 100 100 100 93 100 100 99 100 100 100 100 100 100 100 99 94 97 100 100 74 98 100 100 84 88 100 100 100 100 100 99 100 93 100
100 74 100 100 100 100 100 100 100 100 100 100 100 100 100 100 100 100 100 95 100 100 100 100 100 100 100 100 100 100 100 100 100 100 100 100 100 100 100 100 100 100 100
100 100 100 100 100 100 100 100 100 100 99 100 100 100 100 100 100 100 99 97 100 100 100 100 93 100 100 100 100 100 100 100 100 100 100 100 100 100 100 100 100 100 100
100 100 100 100 100 100 100 100 100 100 98 92 95 100 100 87 88 99 100 100 100 100 100 97 100 100 100 100 100 100 100 100 100 100 100 100 100 100 100 100 100 100 100
100 100 100 100 100 100 100 100 100 100 100 100 100 100 99 100 99 100 100 100 100 100 100 100 100 100 100 100 100 100 100 100 93 100 100 100 100 100 100 100 100 100 100
100 100 100 100 100 100 100 100 100 100 98 100 100 100 100 100 100 100 100 100 100 100 100 100 100 100 100 100 100 100 100 100 100 100 100 100 100 100 100 100 100 100 100
100 100 100 100 100 100 100 100 100 100 100 100 100 100 100 100 100 100 100 100 100 100 100 99 100 100 100 100 100 100 100 100 100 100 100 100 100 100 100 100 100 100 100
67 89 98 100 100 100 100 100 100 100 100 100 100 100 100 100 100 100 100 100 99 100 100 100 100 100 98 100 100 100 100 100 100 100 100 100 100 100 100 100 100 100 100
5 5 14 26 100 100 100 100 100 100 100 100 100 100 100 100 100 100 100 100 100 100 100 100 100 100 100 100 100 100 100 100 100 100 100 100 100 100 100 100 100 100 100
2 4 5 5 5 8 86 100 100 91 99 100 100 100 100 100 100 100 100 100 100 100 100 96 83 92 91 99 85 99 100 100 100 100 100 91 100 100 100 100 100 100 100
0 0 4 4 5 2 0 0 14 63 11 36 71 89 99 100 99 100 100 100 100 100 100 98 100 100 100 98 88 100 99 100 100 100 100 100 100 100 100 97 100 100 100
3 5 5 5 5 4 0 0 0 0 0 0 0 0 2 4 6 58 13 17 96 100 100 100 100 100 100 53 100 100 100 100 100 100 100 100 100 100 100 100 100 100 100
0 5 5 5 5 1 0 0 0 0 0 0 0 0 0 0 0 0 1 5 5 9 7 35 31 16 6 23 5 22 36 100 71 41 93 52 36 61 80 42 80 100 100
4 3 5 5 5 5 5 5 5 5 5 5 4 3 0 0 0 0 0 0 0 0 0 0 0 1 0 5 5 5 19 39 54 18 16 61 97 14 39 19 88 100 100
2 5 5 5 5 5 4 5 5 5 5 5 5 5 5 2 0 0 0 0 0 1 3 5 6 5 5 5 5 5 5 5 5 5 44 49 7 63 19 15 15 31 14
1 5 5 5 9 11 5 5 5 5 5 7 11 7 4 5 5 5 5 5 5 5 5 5 5 5 5 5 5 5 5 5 11 5 5 5 66 66 90 100 100 100 100
69 18 5 26 92 100 100 100 100 100 100 99 100 98 58 40 62 57 17 4 4 2 0 2 4 5 5 5 5 5 5 5 72 73 62 61 47 89 52 56 64 80 94
89 44 44 80 74 96 100 100 100 100 100 100 84 11 63 62 71 56 13 5 5 5 5 5 23 7 5 52 86 89 80 68 79 71 39 20 54 68 62 66 64 65 73
0 6 60 99 98 93 99 100 100 100 100 100 100 100 100 100 96 91 72 86 100 100 100 97 95 99 94 77 77 90 97 100 100 93 45 9 96 62 86 14 39 75 95
16 20 14 18 20 40 87 97 98 98 72 81 100 100 100 100 100 100 100 100 100 96 100 96 99 93 77 62 42 89 99 86 93 94 28 52 98 95 18 27 68 82 91
2 3 0 2 2 53 96 100 99 100 100 100 100 100 100 100 100 100 100 78 72 78 96 98 100 95 100 100 97 100 97 83 94 91 54 99 100 99 69 69 67 79 96

GFSMW_prec_cloud_111.txt.gz
Cloud_Cover
0 0 0 0 0 0 0 0 0 0 0 0 0 0 0 100 100 38 37 19 53 43 40 57 100 100 100 100 100 96 99 97 100 100 99 100 58 100 50 64 100 100 96
0 0 3 4 23 0 1 1 0 0 0 0 0 0 55 100 100 100 61 93 55 10 5 39 51 100 100 100 100 100 98 82 100 100 100 100 38 19 4 25 63 8 81
11 74 35 73 11 36 78 20 2 0 0 0 0 0 0 50 100 99 44 48 97 81 5 10 5 51 99 100 100 100 100 100 100 100 100 89 57 5 5 6 32 69 100
60 100 96 86 100 99 100 96 12 1 0 0 0 0 5 19 2 8 74 77 88 96 100 98 36 80 84 100 100 100 100 100 100 100 78 5 41 32 15 31 20 47 84
99 100 100 92 100 100 100 100 18 91 50 82 0 2 79 54 3 46 97 100 100 100 100 100 100 32 100 100 100 100 100 100 100 100 100 100 38 71 98 100 99 85 87
98 100 100 99 100 100 100 100 100 100 61 97 24 78 100 100 100 100 100 100 100 99 100 100 100 100 100 100 100 100 100 100 100 100 100 93 100 100 54 100 100 100 100
100 100 100 97 98 100 100 100 100 100 100 95 88 100 100 100 100 100 100 100 86 100 100 100 100 100 100 100 100 100 100 100 100 100 100 100 100 100 100 100 100 100 100
100 100 100 100 100 98 100 100 100 100 100 100 100 100 100 100 100 100 100 100 89 89 100 100 100 100 100 100 100 100 100 100 100 100 100 95 61 100 100 100 100 100 100
100 100 100 100 100 100 100 100 100 100 100 100 100 100 100 100 100 100 94 99 100 100 100 100 100 100 100 100 100 100 100 100 100 100 100 100 100 100 100 100 100 100 100
100 100 100 100 100 100 100 100 100 100 100 75 100 100 100 100 100 100 100 100 100 100 100 100 100 100 100 100 100 100 100 100 100 100 100 100 100 100 95 100 100 100 100
100 100 100 100 100 100 100 100 100 100 100 92 100 100 100 100 100 99 87 100 100 100 100 100 100 100 100 100 100 100 100 100 100 100 100 100 100 100 100 100 100 100 100
100 100 100 100 100 100 100 100 100 100 100 100 100 100 100 99 100 100 100 99 100 100 100 100 100 100 100 100 99 100 100 100 100 100 100 100 100 100 100 100 100 100 100
89 12 4 50 75 77 67 100 94 100 100 98 100 100 100 100 100 100 100 100 100 100 100 100 100 90 100 100 100 100 100 100 100 100 100 100 100 100 100 100 100 100 100
1 0 0 1 3 5 5 32 74 68 100 100 100 100 100 100 98 88 90 99 100 89 100 100 100 100 100 100 100 100 100 100 100 100 100 100 100 100 100 100 100 100 100
0 0 0 4 5 5 1 0 4 20 47 55 100 100 100 100 100 100 100 100 100 100 100 100 100 100 100 100 100 100 100 100 100 100 100 100 100 100 100 100 100 100 100
0 0 0 0 0 4 4 0 0 0 0 1 4 5 31 99 100 100 100 100 100 100 100 100 100 100 100 100 100 100 100 100 100 100 100 100 100 100 100 100 100 100 100
0 0 0 1 5 5 5 0 0 0 0 0 0 0 0 1 0 3 39 90 23 62 92 100 100 100 100 100 94 100 100 97 100 96 88 100 100 100 100 100 100 100 100
2 2 4 5 5 5 5 1 0 0 1 5 4 3 1 0 0 0 0 0 0 1 5 3 34 77 100 100 100 100 100 91 64 68 98 100 93 79 100 100 100 100 100
5 5 5 5 5 5 13 5 4 2 1 5 5 5 5 5 2 0 0 0 0 0 0 2 5 5 5 5 8 13 5 10 31 25 7 21 10 42 99 99 100 100 83
1 4 5 21 20 19 40 21 24 42 6 10 8 6 5 6 8 5 5 5 5 20 69 83 54 29 41 7 79 71 60 40 29 5 5 15 58 81 87 38 96 100 39
0 0 0 4 66 90 100 100 100 100 100 100 100 100 100 100 100 100 100 100 100 100 100 100 87 45 14 7 40 68 85 70 35 5 5 5 74 50 74 88 76 47 59
1 0 0 0 0 0 0 1 56 99 100 100 100 100 100 100 100 100 100 100 100 100 100 100 100 100 91 50 15 58 72 83 86 31 5 5 5 5 82 91 80 78 67
0 0 0 1 5 4 5 5 4 5 5 59 99 100 100 100 100 100 100 100 79 94 100 100 100 100 100 99 45 67 73 26 38 6 57 91 78 24 16 5 5 5 5
0 0 0 0 0 0 0 0 0 0 0 0 22 91 100 100 100 100 100 100 94 58 14 16 62 84 75 30 31 98 96 77 75 96 99 57 70 40 5 28 6 5 5
0 3 0 5 2 0 0 0 0 0 0 0 6 70 100 100 98 100 92 100 99 99 100 99 96 100 99 80 96 100 100 100 99 100 96 58 16 40 64 19 5 5 6
1 5 5 5 2 0 0 0 0 0 0 4 21 100 100 100 100 100 100 93 69 82 85 92 100 100 100 100 98 86 55 68 100 100 42 5 5 66 48 5 5 5 20

GFSMW_prec_cloud_114.txt.gz
Cloud_Cover
0 0 0 0 0 0 0 0 0 0 0 0 0 0 0 0 0 0 0 9 1 40 53 22 14 16 48 75 100 100 100 100 100 100 100 100 99 100 82 98 58 100 94
1 0 0 0 0 0 0 0 0 0 0 0 0 0 0 0 0 0 0 3 64 57 100 43 12 47 38 98 65 24 100 100 100 100 100 100 100 100 100 82 74 68 38
0 0 0 0 0 6 16 28 67 1 0 0 0 0 0 0 0 0 0 7 16 20 17 98 78 20 5 6 92 24 97 100 100 100 100 100 100 100 95 96 37 41 8
0 96 41 1 96 81 73 99 100 49 5 0 3 0 0 0 0 0 0 0 11 13 100 100 99 5 5 7 7 5 63 99 100 100 99 100 100 100 100 92 68 57 5
1 100 88 100 95 100 98 100 98 87 23 0 4 30 26 11 24 90 72 92 50 89 100 93 96 92 65 48 3 18 100 91 100 100 100 100 100 100 45 99 100 98 95
7 96 100 100 97 94 49 95 49 100 99 100 72 74 89 100 72 100 99 100 100 100 100 100 100 100 96 100 98 100 99 90 64 96 100 100 100 100 98 84 100 100 100
71 100 100 99 100 99 89 97 61 100 100 100 100 100 93 97 100 100 100 100 100 100 100 100 100 100 100 100 100 100 100 100 100 100 100 100 100 100 100 100 100 100 100
100 100 100 100 100 100 99 78 100 100 100 98 100 100 100 100 100 100 100 100 100 100 100 100 100 100 100 100 99 99 100 100 100 100 100 100 100 100 100 97 100 100 100
66 100 100 98 100 100 100 100 100 100 100 100 100 100 100 100 100 100 100 100 100 100 100 100 59 62 95 94 100 99 100 100 100 99 100 100 100 100 100 100 100 100 100
100 99 100 100 100 100 100 100 100 100 100 100 100 100 100 100 100 100 100 100 100 100 100 100 100 90 100 72 84 68 100 73 100 96 100 100 100 100 100 100 100 100 100
90 99 100 83 100 100 100 100 100 100 100 100 100 100 99 100 98 100 100 100 100 100 95 79 77 100 92 100 100 100 100 100 100 100 100 90 100 100 100 100 100 100 100
56 98 100 100 100 100 100 100 100 100 100 100 100 100 100 100 100 100 98 66 100 92 51 91 75 12 75 60 91 83 100 100 100 100 100 100 100 100 100 100 100 100 100
0 0 0 0 0 0 4 4 5 10 23 77 86 99 100 100 100 95 98 88 98 100 100 100 99 99 70 66 96 98 100 100 100 100 100 100 100 100 100 100 100 100 100
0 0 0 0 0 0 2 0 0 0 0 0 4 5 24 38 84 74 100 98 99 100 100 100 100 97 83 100 100 100 100 100 100 100 100 100 100 100 100 100 100 100 100
0 1 2 0 0 1 5 5 0 0 0 0 0 0 1 8 86 98 59 28 70 73 100 100 100 100 100 100 100 100 100 100 100 100 100 100 100 100 100 100 100 100 100
0 0 0 4 5 5 5 16 5 5 5 4 4 0 0 0 0 1 12 85 100 92 30 60 37 88 57 100 86 99 100 100 100 100 100 100 100 100 100 100 100 100 100
4 5 6 50 83 100 100 100 100 100 86 66 60 11 5 2 3 0 0 0 0 3 92 87 97 98 100 100 100 100 100 100 100 100 100 100 100 100 100 100 59 100 100
0 1 3 12 17 50 48 97 100 100 100 100 100 86 21 5 5 5 8 2 1 0 0 0 14 17 4 33 95 100 100 100 100 100 97 100 100 100 100 100 100 41 100
0 0 0 0 0 2 3 4 1 0 2 41 98 100 100 100 100 100 100 96 88 70 51 14 5 1 4 47 93 50 10 17 86 99 100 99 80 87 8 39 92 100 100
5 1 0 0 0 0 0 5 3 0 0 0 0 0 20 96 100 100 100 100 100 100 100 100 100 100 100 99 80 100 100 100 100 100 52 9 20 79 92 100 88 48 7
5 5 5 0 0 0 0 5 1 0 0 0 0 0 0 0 0 20 78 100 99 99 93 100 98 96 98 100 100 100 100 100 100 100 100 88 82 80 77 78 79 67 100
5 5 5 5 4 0 1 0 0 0 0 0 0 0 0 0 0 0 0 0 19 88 100 95 84 78 50 15 15 30 77 94 100 90 48 62 69 65 89 50 5 12 96
2 5 5 5 5 4 0 5 5 9 3 0 0 0 0 0 0 4 42 72 72 56 31 10 65 96 44 27 5 7 58 76 94 94 89 84 66 66 64 5 5 27 22
1 0 1 5 5 5 8 5 16 71 20 3 0 0 0 0 7 88 99 95 60 5 5 5 6 11 6 37 46 48 37 23 8 12 16 34 50 62 5 5 4 5 5
5 5 5 18 72 95 100 94 98 84 72 5 0 0 8 39 52 5 5 5 5 14 65 88 90 100 100 100 99 100 100 100 100 100 84 56 5 5 5 5 5 5 5
5 40 85 74 82 95 100 100 100 100 75 25 0 0 2 6 9 5 5 14 40 74 90 97 96 100 100 100 100 100 100 100 100 100 98 75 68 5 20 75 93 5 5

GFSMW_prec_cloud_117.txt.gz
Cloud_Cover
0 0 0 0 0 0 0 0 0 0 3 15 0 0 0 0 0 0 0 0 0 3 14 36 19 8 6 3 17 50 74 74 44 100 100 100 100 100 100 100 100 100 100
3 1 0 0 0 0 0 0 14 24 71 77 42 0 0 0 0 0 0 0 0 0 8 7 7 62 98 59 72 96 88 71 92 98 100 100 100 100 100 100 98 82 80
0 0 0 0 0 0 3 16 44 50 60 78 40 0 0 0 0 0 0 0 0 0 0 0 3 8 21 6 75 99 98 100 100 100 100 100 100 99 100 100 100 93 100
0 2 52 0 0 0 0 0 6 84 98 86 95 10 0 0 0 6 56 55 42 28 41 13 49 100 100 82 84 34 40 24 83 99 100 100 100 100 100 100 100 100 100
0 1 1 0 0 0 5 0 1 100 100 82 100 100 100 53 41 70 49 92 47 77 100 50 77 100 98 100 100 100 100 66 38 44 56 36 96 100 100 100 100 100 100
0 0 2 0 18 46 56 0 2 59 56 100 99 100 100 96 100 78 100 100 99 100 80 91 100 100 100 100 100 100 100 100 100 100 100 100 86 100 100 100 100 100 100
0 0 60 10 78 100 100 100 82 98 28 100 99 100 100 100 100 100 100 100 100 85 100 67 100 100 100 100 100 100 100 100 100 100 100 100 100 100 100 98 100 100 100
0 0 10 53 68 84 97 80 99 100 100 99 100 100 100 100 100 100 100 100 100 100 100 100 100 100 100 100 100 100 100 100 100 100 100 100 100 100 100 100 100 100 100
46 62 0 2 65 7 53 46 76 100 100 100 100 100 100 100 100 100 100 100 100 100 100 100 100 100 100 100 100 100 100 100 97 100 100 100 100 100 100 100 100 100 100
0 16 0 3 30 63 45 97 100 97 100 100 100 100 100 100 100 100 100 100 100 100 100 100 100 100 100 100 100 100 100 100 100 48 97 49 100 88 100 100 100 100 100
0 0 26 53 37 86 91 100 100 100 100 100 99 96 100 100 100 100 100 100 100 100 100 100 100 100 100 100 100 100 90 95 72 88 18 100 98 92 100 100 100 100 100
0 0 0 0 0 1 12 6 0 0 3 5 5 5 5 7 57 89 92 100 100 95 100 100 100 100 100 100 100 41 7 29 78 60 41 100 98 100 100 100 100 100 100
0 0 0 0 0 2 5 5 17 35 18 7 5 5 5 1 4 20 6 88 100 100 100 100 100 100 100 89 60 36 70 67 32 87 77 88 100 93 100 100 100 100 100
0 0 0 0 0 0 5 5 32 22 68 98 99 63 20 5 5 1 1 3 4 4 32 94 97 100 100 100 98 95 38 66 81 81 100 100 100 100 100 100 100 100 100
0 0 0 0 3 5 5 5 9 25 60 87 78 100 100 100 90 45 8 4 0 3 5 5 5 14 63 50 85 93 27 57 99 100 100 100 100 100 100 100 99 100 100
0 0 0 0 0 0 0 5 5 5 5 0 1 7 50 97 99 100 100 100 95 30 3 0 2 5 92 30 98 74 90 100 100 100 100 100 100 100 100 100 100 100 100
4 5 5 5 5 1 0 4 5 5 5 3 0 0 0 0 0 4 16 74 94 100 100 100 95 28 3 50 100 100 100 100 100 100 100 100 100 100 100 100 98 99 100
5 5 5 5 5 5 5 5 5 5 5 4 0 0 0 0 0 0 0 0 0 5 10 33 72 99 100 82 40 11 36 24 64 90 99 100 100 100 100 100 100 100 100
0 0 0 3 5 5 5 5 4 5 5 1 5 5 5 0 0 0 0 0 0 0 0 5 45 16 21 84 100 100 100 100 100 100 92 81 35 100 100 100 100 100 100
5 5 5 0 0 1 5 5 5 4 4 4 0 1 5 5 0 0 0 0 0 0 0 0 2 5 97 98 73 49 57 94 91 95 32 7 5 38 70 100 100 100 89
11 5 5 5 5 5 5 4 5 5 5 5 5 5 5 5 5 2 0 0 0 0 2 4 4 0 1 1 56 96 100 84 100 100 100 100 96 77 76 57 82 88 77
95 75 5 5 5 5 5 5 5 4 5 5 5 5 5 5 5 5 0 0 0 0 0 0 2 1 1 4 5 20 87 87 90 81 76 90 94 96 84 93 100 100 100
6 18 5 5 5 5 5 5 5 5 5 5 5 5 5 5 5 4 0 0 0 3 3 1 5 5 5 5 4 5 29 71 99 98 71 90 98 77 64 17 5 82 31
5 5 5 5 5 5 5 6 5 5 10 5 5 5 5 5 5 4 0 0 0 4 5 9 58 10 5 5 6 36 73 28 14 11 20 70 89 37 5 5 5 5 7
100 25 58 20 11 5 7 27 57 42 21 13 10 5 5 5 5 5 0 0 2 5 50 83 100 100 100 85 100 100 100 100 100 100 74 46 7 32 11 6 5 5 6
100 100 100 58 54 71 32 17 100 88 33 11 50 79 5 5 5 5 5 0 4 5 12 74 93 99 100 100 100 100 100 100 100 97 79 33 75 99 97 97 88 99 96

GFSMW_prec_cloud_120.txt.gz
Cloud_Cover
2 0 0 0 0 0 0 0 22 28 100 100 100 62 1 0 0 0 0 0 0 0 0 1 46 71 65 31 18 24 52 100 100 100 100 72 59 100 100 100 100 100 100
0 0 0 0 0 0 0 0 86 94 100 100 100 100 84 0 0 0 0 0 4 2 0 1 5 60 100 99 52 28 28 61 98 99 91 43 18 100 100 100 100 100 100
0 0 0 0 0 0 0 0 0 91 100 100 100 100 0 0 4 14 45 98 55 82 69 12 5 11 97 99 56 39 21 98 100 98 100 72 95 100 100 100 100 100 100
0 0 0 0 0 0 0 0 0 23 66 93 100 100 100 100 100 100 100 100 100 100 100 89 23 0 2 82 78 95 96 100 100 100 100 100 79 100 100 100 100 100 100
0 0 0 0 0 0 0 0 0 0 0 25 42 96 100 100 95 81 80 100 73 92 100 100 100 67 72 14 100 98 100 100 100 100 98 98 62 64 100 100 100 100 100
0 0 0 0 0 0 0 0 0 0 0 1 5 11 47 86 52 85 90 84 83 93 100 87 100 100 97 11 60 100 100 100 100 98 100 100 100 100 100 100 100 100 100
0 0 0 0 0 0 0 0 4 5 5 23 5 8 5 100 99 96 100 100 100 100 90 48 74 59 73 96 66 100 100 100 100 100 100 100 100 100 100 100 100 100 100
0 0 0 0 0 0 0 0 5 5 6 79 5 18 5 6 99 59 100 100 100 100 100 100 100 98 37 7 96 100 100 100 100 100 100 100 100 100 100 100 100 99 100
0 0 0 0 0 0 0 4 5 5 5 5 5 5 12 5 6 7 82 98 99 100 100 100 100 100 100 100 100 100 100 100 100 100 100 100 100 100 100 100 100 100 100
0 0 0 0 0 0 0 1 5 5 5 5 5 0 4 5 5 5 51 79 74 100 100 100 100 100 100 100 100 100 100 100 100 100 100 100 100 100 100 100 100 100 100
0 0 0 0 0 0 0 0 0 0 5 5 5 5 5 4 5 5 5 33 40 100 95 100 100 100 100 100 100 100 100 100 100 100 100 100 100 100 99 97 100 100 97
0 0 0 0 0 0 0 0 0 5 5 5 49 92 95 46 5 5 5 5 5 5 100 100 100 100 100 100 100 100 100 100 100 100 100 98 100 82 42 34 61 100 33
0 0 0 0 0 0 0 0 0 0 0 0 0 2 19 65 94 100 56 11 5 5 1 14 94 100 100 100 100 100 92 100 100 99 46 8 5 5 24 89 74 96 92
0 0 0 0 0 0 0 0 0 0 0 0 0 0 0 0 0 0 25 95 100 96 55 16 1 18 94 100 100 100 100 100 100 98 98 89 96 85 99 60 96 79 77
0 0 0 0 0 0 0 0 5 5 5 5 4 0 0 0 0 0 0 0 0 2 18 31 70 41 4 2 5 5 8 13 43 94 100 22 11 91 94 100 96 91 92
0 0 0 0 0 0 0 0 0 5 5 5 5 5 4 0 0 5 0 0 0 0 0 0 0 4 46 63 42 5 5 0 4 5 12 97 58 100 100 100 100 96 85
2 1 0 5 1 2 0 0 5 5 5 5 5 5 5 5 5 0 5 4 0 0 0 0 0 0 0 4 36 98 100 100 66 21 11 6 58 92 99 100 100 100 100
5 5 4 1 1 3 4 1 1 5 5 5 5 5 5 5 5 0 0 1 5 5 0 0 0 0 0 0 5 5 12 92 100 100 100 96 36 23 70 62 94 100 100
56 98 94 64 5 5 5 5 5 5 5 5 5 5 5 5 5 5 0 0 0 0 0 1 2 3 1 0 5 5 5 5 10 31 100 100 100 99 60 27 98 42 71
97 100 100 80 18 17 43 12 58 5 5 5 5 5 5 5 5 5 5 0 0 0 2 0 0 0 0 0 5 6 5 5 5 5 5 7 26 93 99 100 94 36 19
84 76 94 97 100 27 94 100 81 81 90 38 5 10 5 5 5 5 5 5 1 0 1 0 0 0 0 3 5 5 5 5 10 5 5 5 5 74 75 90 100 99 87
83 100 87 94 100 80 9 85 98 58 100 92 16 6 43 13 5 5 5 5 5 1 5 5 3 0 5 2 5 5 83 84 100 90 23 7 54 99 100 100 93 99 96
5 49 100 91 98 100 81 79 91 73 51 100 94 5 35 56 9 5 5 5 5 5 3 1 5 5 5 5 4 5 11 60 93 75 55 97 89 65 99 66 44 98 48
10 5 14 52 82 99 83 92 70 83 100 99 100 26 82 94 83 5 11 10 7 5 4 5 5 5 5 5 5 12 79 40 15 5 27 69 77 47 5 5 5 5 5
5 6 18 30 86 85 79 80 61 62 90 100 100 100 100 100 100 9 26 90 68 48 5 5 68 28 5 15 95 99 98 98 92 98 69 5 6 5 5 5 5 17 100
5 29 74 100 100 100 93 78 98 90 85 87 100 100 100 100 100 57 16 63 68 100 5 17 74 33 70 90 89 98 100 100 100 94 7 5 5 14 27 12 9 5 5